[[{"header":{"parameterUnit":"m.s-1","parameterCategory":1,"la1":30.6,"la2":28.766,"lo1":-90.7593,"lo2":-88.6598,"dx":0.0162,"dy":0.0183,"nx":116,"ny":114,"refTime":"2023-01-10T06:00:00:Z","depth":0,"parameterNumber":2,"parameterNumberName":"U-component_of_WINDS"},"data":[0.0,0.0,0.0,0.0,0.0,0.0,0.0,0.0,0.0,0.0,0.0,0.0,0.0,0.0,0.0,0.0,0.0,0.0,0.0,0.0,0.0,0.0,0.0,0.0,0.0,0.0,0.0,0.0,0.0,0.0,0.0,0.0,0.0,0.0,0.0,0.0,0.0,0.0,0.0,0.0,0.0,0.0,0.0,0.0,0.0,0.0,0.0,0.0,0.0,0.0,0.0,0.0,0.0,0.0,0.0,0.0,0.0,0.0,0.0,0.0,0.0,0.0,0.0,0.0,0.0,0.0,0.0,0.0,0.0,0.0,0.0,0.0,0.0,0.0,0.0,0.0,0.0,0.0,0.0,0.0,0.0,0.0,0.0,0.0,0.0,0.0,0.0,0.0,0.0,0.0,0.0,0.0,0.0,0.0,0.0,0.0,0.0,0.0,0.0,0.0,0.0,0.0,0.0,0.0,0.0,0.0,0.0,0.0,0.0,0.0,0.0,0.0,0.0,0.0,0.0,0.0,0.0,0.0,0.0,0.0,0.0,0.0,0.0,0.0,0.0,0.0,0.0,0.0,0.0,0.0,0.0,0.0,0.0,0.0,0.0,0.0,0.0,0.0,0.0,0.0,0.0,0.0,0.0,0.0,0.0,0.0,0.0,0.0,0.0,0.0,0.0,0.0,0.0,0.0,0.0,0.0,0.0,0.0,0.0,0.0,0.0,0.0,0.0,0.0,0.0,0.0,0.0,0.0,0.0,0.0,0.0,0.0,0.0,0.0,0.0,0.0,0.0,0.0,0.0,0.0,0.0,0.0,0.0,0.0,0.0,0.0,0.0,0.0,0.0,0.0,0.0,0.0,0.0,0.0,0.0,0.0,0.0,0.0,0.0,0.0,0.0,0.0,0.0,0.0,0.0,0.0,0.0,0.0,0.0,0.0,0.0,0.0,0.0,0.0,0.0,0.0,0.0,0.0,0.0,0.0,0.0,0.0,0.0,0.0,0.0,0.0,0.0,0.0,0.0,0.0,0.0,0.0,0.0,0.0,0.0,0.0,0.0,0.0,0.0,0.0,0.0,0.0,0.0,0.0,0.0,0.0,0.0,0.0,0.0,0.0,0.0,0.0,0.0,0.0,0.0,0.0,0.0,0.0,0.0,0.0,0.0,0.0,0.0,0.0,0.0,0.0,0.0,0.0,0.0,0.0,0.0,0.0,0.0,0.0,0.0,0.0,0.0,0.0,0.0,0.0,0.0,0.0,0.0,0.0,0.0,0.0,0.0,0.0,0.0,0.0,0.0,0.0,0.0,0.0,0.0,0.0,0.0,0.0,0.0,0.0,0.0,0.0,0.0,0.0,0.0,0.0,0.0,0.0,0.0,0.0,0.0,0.0,0.0,0.0,0.0,0.0,0.0,0.0,0.0,0.0,0.0,0.0,0.0,0.0,0.0,0.0,0.0,0.0,0.0,0.0,0.0,0.0,0.0,0.0,0.0,0.0,0.0,0.0,0.0,0.0,0.0,0.0,0.0,0.0,0.0,0.0,0.0,0.0,0.0,0.0,0.0,0.0,0.0,0.0,0.0,0.0,0.0,0.0,0.0,0.0,0.0,0.0,0.0,0.0,0.0,0.0,0.0,0.0,0.0,0.0,0.0,0.0,0.0,0.0,0.0,0.0,0.0,0.0,0.0,0.0,0.0,0.0,0.0,0.0,0.0,0.0,0.0,0.0,0.0,0.0,0.0,0.0,0.0,0.0,0.0,0.0,0.0,0.0,0.0,0.0,0.0,0.0,0.0,0.0,0.0,0.0,0.0,0.0,0.0,0.0,0.0,0.0,0.0,0.0,0.0,0.0,0.0,0.0,0.0,0.0,0.0,0.0,0.0,0.0,0.0,0.0,0.0,0.0,0.0,0.0,0.0,0.0,0.0,0.0,0.0,0.0,0.0,0.0,0.0,0.0,0.0,0.0,0.0,0.0,0.0,0.0,0.0,0.0,0.0,0.0,0.0,0.0,0.0,0.0,0.0,0.0,0.0,0.0,0.0,0.0,0.0,0.0,0.0,0.0,0.0,0.0,0.0,0.0,0.0,0.0,0.0,0.0,0.0,0.0,0.0,0.0,0.0,0.0,0.0,0.0,0.0,0.0,0.0,0.0,0.0,0.0,0.0,0.0,0.0,0.0,0.0,0.0,0.0,0.0,0.0,0.0,0.0,0.0,0.0,0.0,0.0,0.0,0.0,0.0,0.0,0.0,0.0,0.0,0.0,0.0,0.0,0.0,0.0,0.0,0.0,0.0,0.0,0.0,0.0,0.0,0.0,0.0,0.0,0.0,0.0,0.0,0.0,0.0,0.0,0.0,0.0,0.0,0.0,0.0,0.0,0.0,0.0,0.0,0.0,0.0,0.0,0.0,0.0,0.0,0.0,0.0,0.0,0.0,0.0,0.0,0.0,0.0,0.0,0.0,0.0,0.0,0.0,0.0,0.0,0.0,0.0,0.0,0.0,0.0,0.0,0.0,0.0,0.0,0.0,0.0,0.0,0.0,0.0,0.0,0.0,0.0,0.0,0.0,0.0,0.0,0.0,0.0,0.0,0.0,0.0,0.0,0.0,0.0,0.0,0.0,0.0,0.0,0.0,0.0,0.0,0.0,0.0,0.0,0.0,0.0,0.0,0.0,0.0,0.0,0.0,0.0,0.0,0.0,0.0,0.0,0.0,0.0,0.0,0.0,0.0,0.0,0.0,0.0,0.0,0.0,0.0,0.0,0.0,0.0,0.0,0.0,0.0,0.0,0.0,0.0,0.0,0.0,0.0,0.0,0.0,0.0,0.0,0.0,0.0,0.0,0.0,0.0,0.0,0.0,0.0,0.0,0.0,0.0,0.0,0.0,0.0,0.0,0.0,0.0,0.0,0.0,0.0,0.0,0.0,0.0,0.0,0.0,0.0,0.0,0.0,0.0,0.0,0.0,0.0,0.0,0.0,0.0,0.0,0.0,0.0,0.0,0.0,0.0,0.0,0.0,0.0,0.0,0.0,0.0,0.0,0.0,0.0,0.0,0.0,0.0,0.0,0.0,0.0,0.0,0.0,0.0,0.0,0.0,0.0,0.0,0.0,0.0,0.0,0.0,0.0,0.0,0.0,0.0,0.0,0.0,0.0,0.0,0.0,0.0,0.0,0.0,0.0,0.0,0.0,0.0,0.0,0.0,0.0,0.0,0.0,0.0,0.0,0.0,0.0,0.0,0.0,0.0,0.0,0.0,0.0,0.0,0.0,0.0,0.0,0.0,0.0,0.0,0.0,0.0,0.0,0.0,0.0,0.0,0.0,0.0,0.0,0.0,0.0,0.0,0.0,0.0,0.0,0.0,0.0,0.0,0.0,0.0,0.0,0.0,0.0,0.0,0.0,0.0,0.0,0.0,0.0,0.0,0.0,0.0,0.0,0.0,0.0,0.0,0.0,0.0,0.0,0.0,0.0,0.0,0.0,0.0,0.0,0.0,0.0,0.0,0.0,0.0,0.0,0.0,0.0,0.0,0.0,0.0,0.0,0.0,0.0,0.0,0.0,0.0,0.0,0.0,0.0,0.0,0.0,0.0,0.0,0.0,0.0,0.0,0.0,0.0,0.0,0.0,0.0,0.0,0.0,0.0,0.0,0.0,0.0,0.0,0.0,0.0,0.0,0.0,0.0,0.0,0.0,0.0,0.0,0.0,0.0,0.0,0.0,0.0,0.0,0.0,0.0,0.0,0.0,0.0,0.0,0.0,0.0,0.0,0.0,0.0,0.0,0.0,0.0,0.0,0.0,0.0,0.0,0.0,0.0,0.0,0.0,0.0,0.0,0.0,0.0,0.0,0.0,0.0,0.0,0.0,0.0,0.0,0.0,0.0,0.0,0.0,0.0,0.0,0.0,0.0,0.0,0.0,0.0,0.0,0.0,0.0,0.0,0.0,0.0,0.0,0.0,0.0,0.0,0.0,0.0,0.0,0.0,0.0,0.0,0.0,0.0,0.0,0.0,0.0,0.0,0.0,0.0,0.0,0.0,0.0,0.0,0.0,0.0,0.0,0.0,0.0,0.0,0.0,0.0,0.0,0.0,0.0,0.0,0.0,0.0,0.0,0.0,0.0,0.0,0.0,0.0,0.0,0.0,0.0,0.0,0.0,0.0,0.0,0.0,0.0,0.0,0.0,0.0,0.0,0.0,0.0,0.0,0.0,0.0,0.0,0.0,0.0,0.0,0.0,0.0,0.0,0.0,0.0,0.0,0.0,0.0,0.0,0.0,0.0,0.0,0.0,0.0,0.0,0.0,0.0,0.0,0.0,0.0,0.0,0.0,0.0,0.0,0.0,0.0,0.0,0.0,0.0,0.0,0.0,0.0,0.0,0.0,0.0,0.0,0.0,0.0,0.0,0.0,0.0,0.0,0.0,0.0,0.0,0.0,0.0,0.0,0.0,0.0,0.0,0.0,0.0,0.0,0.0,0.0,0.0,0.0,0.0,0.0,0.0,0.0,0.0,0.0,0.0,0.0,0.0,0.0,0.0,0.0,0.0,0.0,0.0,0.0,0.0,0.0,0.0,0.0,0.0,0.0,0.0,0.0,0.0,0.0,0.0,0.0,0.0,0.0,0.0,0.0,0.0,0.0,0.0,0.0,0.0,0.0,0.0,0.0,0.0,0.0,0.0,0.0,0.0,0.0,0.0,0.0,0.0,0.0,0.0,0.0,0.0,0.0,0.0,0.0,0.0,0.0,0.0,0.0,0.0,0.0,0.0,0.0,0.0,0.0,0.0,0.0,0.0,0.0,0.0,0.0,0.0,0.0,0.0,0.0,0.0,0.0,0.0,0.0,0.0,0.0,0.0,0.0,0.0,0.0,0.0,0.0,0.0,0.0,0.0,0.0,0.0,0.0,0.0,0.0,0.0,0.0,0.0,0.0,0.0,0.0,0.0,0.0,0.0,0.0,0.0,0.0,0.0,0.0,0.0,0.0,0.0,0.0,0.0,0.0,0.0,0.0,0.0,0.0,0.0,0.0,0.0,0.0,0.0,0.0,0.0,0.0,0.0,0.0,0.0,0.0,0.0,0.0,0.0,0.0,0.0,0.0,0.0,0.0,0.0,0.0,0.0,0.0,0.0,0.0,0.0,0.0,0.0,0.0,0.0,0.0,0.0,0.0,0.0,0.0,0.0,0.0,0.0,0.0,0.0,0.0,0.0,0.0,0.0,0.0,0.0,0.0,0.0,0.0,0.0,0.0,0.0,0.0,0.0,0.0,0.0,0.0,0.0,0.0,0.0,0.0,0.0,0.0,0.0,0.0,0.0,0.0,0.0,0.0,0.0,0.0,0.0,0.0,0.0,0.0,0.0,0.0,0.0,0.0,0.0,0.0,0.0,0.0,0.0,0.0,0.0,0.0,0.0,0.0,0.0,0.0,0.0,0.0,0.0,0.0,0.0,0.0,0.0,0.0,0.0,0.0,0.0,0.0,0.0,0.0,0.0,0.0,0.0,0.0,0.0,0.0,0.0,0.0,0.0,0.0,0.0,0.0,0.0,0.0,0.0,0.0,0.0,0.0,0.0,0.0,0.0,0.0,0.0,0.0,0.0,0.0,0.0,0.0,0.0,0.0,0.0,0.0,0.0,0.0,0.0,0.0,0.0,0.0,0.0,0.0,0.0,0.0,0.0,0.0,0.0,0.0,0.0,0.0,0.0,0.0,0.0,0.0,0.0,0.0,0.0,0.0,0.0,0.0,0.0,0.0,0.0,0.0,0.0,0.0,0.0,0.0,0.0,0.0,0.0,0.0,0.0,0.0,0.0,0.0,0.0,0.0,0.0,0.0,0.0,0.0,0.0,0.0,0.0,0.0,0.0,0.0,0.0,0.0,0.0,0.0,0.0,0.0,0.0,0.0,0.0,0.0,0.0,0.0,0.0,0.0,0.0,0.0,0.0,0.0,0.0,0.0,0.0,0.0,0.0,0.0,0.0,0.0,0.0,0.0,0.0,0.0,0.0,0.0,0.0,0.0,0.0,0.0,0.0,0.0,0.0,0.0,0.0,0.0,0.0,0.0,0.0,0.0,0.0,0.0,0.0,0.0,0.0,0.0,0.0,0.0,0.0,-5.1357,-4.9133,0.0,0.0,0.0,0.0,0.0,0.0,0.0,0.0,0.0,0.0,0.0,0.0,0.0,0.0,0.0,0.0,0.0,0.0,0.0,0.0,0.0,0.0,0.0,0.0,0.0,0.0,0.0,0.0,0.0,0.0,0.0,0.0,0.0,0.0,0.0,0.0,-3.3211,-3.522,-3.5693,-3.7598,-4.0763,-3.824,-3.6404,-3.5184,0.0,0.0,0.0,0.0,0.0,0.0,0.0,0.0,0.0,0.0,0.0,0.0,0.0,0.0,0.0,0.0,0.0,0.0,0.0,0.0,0.0,0.0,0.0,0.0,0.0,0.0,0.0,0.0,0.0,0.0,0.0,0.0,0.0,0.0,0.0,0.0,0.0,0.0,0.0,0.0,0.0,0.0,0.0,0.0,0.0,0.0,0.0,0.0,0.0,0.0,0.0,0.0,0.0,0.0,0.0,0.0,0.0,0.0,0.0,0.0,0.0,0.0,0.0,0.0,0.0,0.0,0.0,0.0,0.0,0.0,-5.4255,-5.248,0.0,0.0,0.0,0.0,0.0,0.0,0.0,0.0,0.0,0.0,0.0,0.0,0.0,0.0,0.0,0.0,0.0,0.0,0.0,0.0,0.0,0.0,0.0,-2.9952,-3.0473,-3.0618,-3.1234,-3.1646,0.0,0.0,0.0,0.0,0.0,0.0,0.0,0.0,-3.5387,-3.8417,-3.9666,-4.1691,-4.4437,-4.4655,-4.3558,-4.1393,-3.9932,0.0,0.0,0.0,0.0,0.0,0.0,0.0,0.0,0.0,0.0,0.0,0.0,0.0,0.0,0.0,0.0,0.0,0.0,0.0,0.0,0.0,0.0,0.0,0.0,0.0,0.0,0.0,0.0,0.0,0.0,0.0,0.0,0.0,0.0,0.0,0.0,0.0,0.0,0.0,0.0,0.0,0.0,0.0,0.0,0.0,0.0,0.0,0.0,0.0,0.0,0.0,0.0,0.0,0.0,0.0,0.0,0.0,0.0,0.0,0.0,0.0,0.0,0.0,-5.7695,-5.8456,-5.8456,-5.9144,-6.0158,-6.1208,-5.7261,-5.65,-5.7768,-5.4363,0.0,0.0,0.0,0.0,0.0,0.0,0.0,0.0,0.0,0.0,0.0,0.0,0.0,0.0,0.0,0.0,0.0,0.0,0.0,0.0,0.0,-3.2451,-3.3212,-3.39,-3.4081,-3.4117,-3.4132,0.0,0.0,0.0,0.0,0.0,0.0,-3.4885,-3.6577,-3.8417,-4.4108,-4.7436,-4.8453,-4.9265,-4.9387,-4.8686,-4.4601,-4.2643,-4.226,0.0,0.0,0.0,0.0,0.0,0.0,0.0,0.0,0.0,0.0,0.0,0.0,0.0,0.0,0.0,0.0,0.0,0.0,0.0,0.0,0.0,0.0,0.0,0.0,0.0,0.0,0.0,0.0,0.0,0.0,0.0,0.0,0.0,0.0,0.0,0.0,0.0,0.0,0.0,0.0,0.0,-5.0198,-5.0597,0.0,0.0,0.0,0.0,0.0,0.0,0.0,0.0,0.0,0.0,0.0,0.0,0.0,-5.5305,-5.7442,-5.8492,-5.9687,-6.1073,-6.2693,-6.3454,-6.3454,-6.3563,-6.3708,-6.3889,-6.3237,0.0,-6.1254,-6.005,0.0,0.0,0.0,0.0,0.0,0.0,0.0,0.0,0.0,0.0,0.0,0.0,0.0,0.0,0.0,0.0,0.0,0.0,0.0,0.0,0.0,-3.6028,-3.7314,-3.85,-3.9058,-3.8802,-3.7443,-3.6608,0.0,0.0,0.0,0.0,-3.4258,-3.6301,-3.9508,-4.3907,-4.8686,-5.1161,-5.1486,-5.1873,-5.1998,-5.184,-4.9821,-4.7548,-4.5166,-4.3689,0.0,0.0,0.0,0.0,0.0,0.0,0.0,0.0,0.0,0.0,0.0,0.0,0.0,0.0,0.0,0.0,0.0,0.0,0.0,0.0,0.0,0.0,0.0,0.0,0.0,0.0,0.0,0.0,0.0,0.0,0.0,0.0,0.0,0.0,0.0,0.0,0.0,0.0,0.0,-4.9112,-5.1466,-5.19,-5.1249,-5.0633,0.0,0.0,0.0,0.0,0.0,0.0,0.0,0.0,0.0,-5.8166,-5.8673,-5.9832,-6.1752,-6.3019,-6.3997,-6.4722,-6.6315,-6.7076,-6.7076,-6.7076,-6.7076,-6.7076,-6.7076,-6.6424,-6.5192,-6.2549,-5.9977,-5.755,0.0,0.0,0.0,0.0,-5.4762,-5.516,0.0,0.0,0.0,0.0,0.0,0.0,0.0,0.0,0.0,0.0,0.0,0.0,-3.792,-3.9854,-4.1506,-4.281,-4.3574,-4.3122,-4.1178,-3.9506,0.0,0.0,0.0,-3.4047,-3.5097,-3.8522,-4.3103,-4.8888,-5.1789,-5.3203,-5.3146,-5.3167,-5.3146,-5.3103,-5.3182,-5.1412,-4.8283,-4.7158,-4.515,-4.25,0.0,0.0,0.0,0.0,0.0,0.0,0.0,0.0,0.0,0.0,0.0,0.0,0.0,0.0,0.0,0.0,0.0,0.0,0.0,0.0,0.0,0.0,0.0,0.0,0.0,0.0,0.0,0.0,0.0,0.0,0.0,0.0,0.0,0.0,0.0,0.0,0.0,-5.0778,-5.2878,-5.3096,-5.2915,-5.2552,0.0,0.0,0.0,0.0,0.0,0.0,-5.7007,-5.8854,-6.0774,-6.2585,-6.3237,-6.4215,-6.5591,-6.6822,-6.7402,-6.7438,-6.8633,-6.9207,-6.9207,-6.9207,-6.9207,-6.9207,-6.9207,-6.885,-6.8054,-6.4867,-6.2693,-6.1317,-6.0086,-5.8891,-5.7949,-5.918,-5.9615,-5.9977,0.0,0.0,0.0,0.0,0.0,0.0,0.0,0.0,0.0,0.0,0.0,-3.7993,-4.1126,-4.357,-4.5345,-4.6178,-4.6287,-4.6021,-4.5251,-4.1578,-3.9067,-3.8255,-3.5205,-3.428,-3.5884,-4.217,-4.7166,-5.0692,-5.238,-5.3124,-5.3002,-5.3124,-5.306,-5.2828,-5.3082,-5.3093,-5.2726,-5.0305,-4.8764,-4.7516,-4.2856,0.0,0.0,0.0,0.0,0.0,0.0,0.0,0.0,0.0,0.0,0.0,0.0,0.0,0.0,0.0,0.0,0.0,0.0,0.0,0.0,0.0,0.0,0.0,0.0,0.0,0.0,0.0,0.0,0.0,0.0,0.0,0.0,0.0,0.0,0.0,0.0,0.0,0.0,-5.4943,-5.6029,0.0,0.0,0.0,0.0,-5.574,-5.7985,-6.0375,-6.2657,-6.3599,-6.5192,-6.7583,-6.7692,-6.809,-6.8953,-6.9062,-6.9098,-6.9098,-6.9171,-6.9207,-6.9207,-6.9207,-6.9207,-6.9207,-6.9207,-6.9207,-6.9062,-6.809,-6.5881,-6.3056,-6.2983,-6.1534,-5.976,-6.2078,-6.2947,-6.3309,0.0,0.0,0.0,-3.1618,-3.1763,-3.2017,-3.285,-3.3176,-3.39,-3.5587,-3.8282,-4.1035,-4.3715,-4.671,-4.9038,-5.0308,-5.0504,-4.9804,-4.8008,-4.4126,-4.1977,-4.2195,-3.8627,-3.8911,-4.3743,-4.6707,-4.9571,-5.2344,-5.2931,-5.3203,-5.3124,-5.3203,-5.3124,-5.306,-5.3182,-5.3203,-5.313,-5.227,-5.0839,-4.893,-4.6654,-4.3534,0.0,0.0,0.0,0.0,0.0,0.0,0.0,0.0,0.0,0.0,0.0,0.0,0.0,0.0,0.0,0.0,0.0,0.0,0.0,0.0,0.0,0.0,0.0,0.0,0.0,0.0,0.0,0.0,0.0,0.0,0.0,0.0,0.0,0.0,0.0,0.0,0.0,-5.6464,-5.7768,0.0,-5.6862,-5.9108,-6.0629,-6.0629,-6.3345,-6.5374,-6.6243,-6.704,-6.7873,-6.8742,-6.8778,-6.8887,-6.9207,-6.9714,-6.9968,-7.0004,-7.0444,-7.0661,-7.0661,-7.0661,-7.0661,-7.0661,-7.0661,-7.0408,-6.9968,-6.9647,-6.8271,-6.6243,-6.5736,-6.4975,-6.4359,-6.5192,-6.5518,-6.5627,0.0,0.0,0.0,-3.2053,-3.2415,-3.2777,-3.3321,-3.4298,-3.5587,-3.718,-4.0619,-4.3932,-4.671,-4.9422,-5.1522,-5.2585,-5.2761,-5.2134,-5.0592,-4.6662,-4.4654,-4.5182,-4.2157,0.0,-4.8078,-4.9348,-5.1022,-5.3203,-5.3203,-5.3203,-5.3203,-5.3203,-5.3203,-5.3203,-5.3203,-5.3203,-5.3203,-5.3203,-5.227,-5.0692,-4.9297,-4.6654,-4.3297,0.0,0.0,0.0,0.0,0.0,0.0,0.0,0.0,0.0,0.0,0.0,0.0,0.0,0.0,0.0,0.0,0.0,0.0,0.0,0.0,0.0,0.0,0.0,0.0,0.0,0.0,0.0,0.0,0.0,0.0,0.0,0.0,0.0,0.0,-5.6029,-5.7913,-5.7623,-5.9506,-6.0593,-6.005,-6.2693,-6.4504,-6.4794,-6.7293,-6.8814,-6.8814,-6.9539,-6.9973,-6.9973,-6.9973,-6.9973,-6.9973,-7.077,-7.1168,-7.1168,-7.1965,-7.2327,-7.2327,-7.2327,-7.2327,-7.2327,-7.2327,-7.1893,-7.1132,-7.0879,-7.0009,-6.8706,-6.7619,-6.704,-6.6786,-6.6786,-6.6878,-6.7005,0.0,0.0,-3.1256,-3.2053,-3.285,-3.3357,-3.3393,-3.479,-3.6962,-4.0039,-4.3317,-4.6581,-4.9879,-5.1645,-5.2635,-5.2783,-5.2783,-5.285,-5.298,-4.9074,-4.6827,-4.6961,0.0,0.0,-4.83,-5.0028,-5.1646,-5.3261,-5.3261,-5.324,-5.3298,-5.3298,-5.3298,-5.3298,-5.3298,-5.324,-5.3261,-5.3261,-5.3203,-5.3004,-5.0655,-4.915,-4.8012,0.0,0.0,0.0,0.0,0.0,0.0,0.0,0.0,0.0,0.0,0.0,0.0,0.0,0.0,0.0,0.0,0.0,0.0,0.0,0.0,0.0,0.0,0.0,0.0,0.0,0.0,0.0,0.0,0.0,0.0,0.0,0.0,0.0,-5.5341,-5.7804,-5.947,-5.8746,-6.1426,-6.3345,-6.3345,-6.5518,-6.7257,-6.8017,-6.9539,-7.0408,-7.0408,-7.1096,-7.1494,-7.1494,-7.1531,-7.1531,-7.1531,-7.2364,-7.2762,-7.2762,-7.3559,-7.3921,-7.3921,-7.3921,-7.3921,-7.3921,-7.3921,-7.3486,-7.269,-7.1893,-7.1132,-7.0299,-6.8633,-6.751,-6.6822,-6.6822,-6.7047,-6.7321,-3.0074,-3.0618,-3.1256,-3.2053,-3.2379,-3.2741,-3.3321,-3.524,-3.7377,-3.9369,-4.3462,-4.6975,-4.9082,-5.1221,-5.2559,-5.2672,-5.2635,-5.2717,-5.285,-4.8502,-4.593,-4.5969,0.0,0.0,-5.1684,-5.2244,-5.3041,-5.4069,-5.4069,-5.4363,-5.495,-5.495,-5.495,-5.495,-5.495,-5.462,-5.4069,-5.4069,-5.3739,-5.313,-5.2491,-5.1022,-4.9096,0.0,0.0,0.0,0.0,0.0,0.0,0.0,0.0,0.0,0.0,0.0,0.0,0.0,0.0,0.0,0.0,0.0,0.0,0.0,0.0,0.0,0.0,0.0,0.0,0.0,0.0,0.0,0.0,0.0,0.0,0.0,-5.9072,-6.1208,-6.0194,-6.1788,-6.3418,-6.4396,-6.5808,-6.6677,-6.6677,-6.8343,-6.9502,-6.972,-7.0661,-7.1205,-7.1205,-7.1386,-7.1494,-7.1494,-7.2074,-7.2364,-7.2364,-7.3197,-7.3595,-7.3595,-7.378,-7.3921,-7.3921,-7.3921,-7.3921,-7.3921,-7.3921,-7.3776,-7.3559,-7.3342,-7.2798,-7.182,-6.9068,-6.7873,-6.7619,-6.704,-6.6722,-6.67,-3.0726,-3.0908,-3.1256,-3.2053,-3.2488,-3.2958,-3.3791,-3.5928,-3.8408,-4.0999,-4.4621,-4.7901,-5.0192,-5.1679,-5.2581,-5.2694,-5.2658,-5.2593,-5.2331,-4.9378,-4.7753,-4.8081,0.0,-5.2608,-5.298,-5.3411,-5.3858,-5.4399,-5.473,-5.5133,-5.5596,-5.5596,-5.5596,-5.5596,-5.5596,-5.5317,-5.4913,-5.4913,-5.462,-5.4179,-5.3849,-5.2674,-5.1022,-5.0178,-4.8967,-4.7609,-4.6489,-4.5755,-4.5425,-4.5572,0.0,0.0,0.0,0.0,0.0,0.0,0.0,0.0,0.0,0.0,0.0,0.0,0.0,0.0,0.0,0.0,0.0,0.0,0.0,0.0,0.0,0.0,0.0,0.0,-6.2512,-6.4758,-6.4975,-6.5229,-6.5881,-6.7148,-6.7728,-6.8271,-6.8923,-6.9828,-7.0517,-7.0842,-7.1277,-7.1494,-7.1494,-7.182,-7.2001,-7.2001,-7.2798,-7.3197,-7.3197,-7.403,-7.4395,-7.4428,-7.4754,-7.4899,-7.4899,-7.4899,-7.4899,-7.4899,-7.4899,-7.4718,-7.4395,-7.4395,-7.3957,-7.3016,0.0,0.0,0.0,0.0,-6.8255,-6.7597,-3.1799,-3.1437,-3.1256,-3.2053,-3.2777,-3.3574,-3.448,-3.6653,-3.964,-4.357,-4.6214,-4.8974,-5.2241,-5.2568,-5.2649,-5.2739,-5.2761,-5.2397,-5.1508,-5.0967,0.0,-5.1478,-5.1682,-5.2199,-5.3148,-5.388,-5.44,-5.4803,-5.55,-5.5904,-5.6014,-5.6014,-5.5941,-5.589,-5.589,-5.5816,-5.5721,-5.5721,-5.5706,-5.5559,-5.4803,-5.4069,-5.3261,-5.2454,-5.2123,-5.194,-5.0618,-4.9585,-4.8809,-4.8339,0.0,0.0,0.0,0.0,0.0,0.0,0.0,0.0,0.0,0.0,0.0,0.0,0.0,0.0,0.0,0.0,0.0,0.0,0.0,0.0,0.0,0.0,0.0,0.0,-6.5555,-6.7692,-6.9134,-6.8162,-6.7583,-6.8307,-6.8416,-6.8959,-7.0372,-7.0517,-7.0806,-7.1458,-7.1603,-7.1639,-7.1639,-7.24,0.0,0.0,0.0,-7.4066,-7.4066,-7.4863,-7.5228,-7.5228,-7.5949,-7.6275,-7.6275,-7.6275,-7.6275,-7.6275,-7.6275,-7.5877,-7.5228,-7.5228,-7.4826,-7.4066,-7.3088,-7.2114,-7.1332,-7.1466,-7.055,-6.9272,-3.0219,-3.0654,-3.1256,-3.2053,-3.2343,-3.2922,-3.4371,-3.6653,-3.964,-4.357,-4.6214,-4.8931,-5.2164,-5.2526,-5.2526,-5.2549,-5.2549,-5.1978,-5.0635,-5.1755,-5.2008,-5.0837,-5.2166,-5.3271,-5.4099,-5.4283,-5.5332,-5.7299,-5.7446,-5.7886,-5.8487,-5.8487,-5.818,-5.7519,-5.7519,-5.7189,-5.6565,-5.6565,-5.6198,-5.5574,-5.5449,-5.4876,-5.4069,-5.3261,-5.2968,-5.2983,-5.3228,-5.3265,-5.3344,-5.4304,-5.3259,-5.1731,-5.239,-5.1027,0.0,0.0,0.0,0.0,0.0,0.0,0.0,0.0,0.0,0.0,0.0,0.0,0.0,0.0,0.0,0.0,0.0,0.0,0.0,-6.4903,-6.7692,-6.9792,-7.0118,-7.0408,-7.0661,-7.0806,-7.0842,-7.0951,-7.1277,-7.1277,-7.135,-7.1494,-7.211,-7.2472,-7.2472,-7.3233,-7.3667,-7.3667,-7.4431,-7.4866,-7.4866,-7.5659,-7.6058,-7.6058,-7.6239,0.0,-7.6275,-7.6275,-7.6275,-7.6275,-7.6275,-7.6203,-7.6058,-7.6058,-7.5985,-7.5623,-7.3523,-7.1629,-7.0217,-7.0878,-7.0154,-6.8999,-3.1016,-3.1016,-3.1365,-3.2596,-3.314,-3.3936,-3.5566,-3.7176,-3.964,-4.357,-4.5852,-4.817,-5.0995,-5.1285,-5.0959,-5.0162,-5.0156,-5.0264,-5.0435,-5.1673,-5.2233,-5.181,-5.2642,-5.3469,-5.4276,-5.4679,-5.5727,-5.7409,-5.7813,-5.8217,-5.8621,-5.8514,-5.833,-5.7997,-5.7927,-5.773,-5.7409,-5.7409,-5.7152,-5.6748,-5.6345,-5.5978,-5.55,-5.473,-5.4399,-5.4436,-5.4774,-5.4899,-5.5009,-5.5747,-5.5468,-5.4934,-5.5693,-5.4748,-5.3002,0.0,0.0,0.0,0.0,0.0,0.0,0.0,0.0,0.0,0.0,0.0,0.0,0.0,0.0,-5.9144,-6.1571,0.0,-6.6134,-6.7728,-6.9647,-7.0951,-7.0951,-7.1277,-7.1494,-7.1494,-7.1494,-7.1494,-7.1494,-7.1494,-7.1675,-7.2074,-7.2472,-7.2871,-7.3305,-7.4033,-7.4468,-7.4468,-7.5297,-7.5696,-7.5696,-7.6094,-7.6275,-7.6275,-7.6275,-7.6275,-7.6275,-7.6275,-7.6275,-7.6275,-7.6275,-7.6275,-7.6275,-7.6275,-7.6058,-7.5623,-7.4826,-7.3931,-7.3047,-7.3276,-7.2611,-7.1728,-3.1981,-3.1582,-3.1727,-3.3357,-3.4045,-3.495,-3.6741,-3.7538,-3.935,-4.3136,-4.5019,-4.683,-4.8952,-4.9314,-4.8858,-4.7591,-4.7897,-4.8826,0.0,-5.1501,-5.2364,-5.3023,-5.306,-5.3478,-5.443,-5.5111,-5.6035,-5.7262,-5.7923,-5.8217,-5.8217,-5.8124,-5.805,-5.7997,-5.7904,-5.7904,-5.7997,-5.7997,-5.7997,-5.7923,-5.7299,-5.7042,-5.6969,-5.6492,-5.6088,-5.5831,-5.5809,-5.5837,-5.5953,-5.6145,-5.6598,-5.7188,-5.7946,-5.7849,-5.7058,-5.5132,-5.4553,0.0,0.0,0.0,0.0,0.0,0.0,0.0,0.0,-5.4327,-5.5667,-5.947,-6.1027,-6.2693,-6.5953,-6.7184,-6.8343,-7.0299,-7.1096,-7.1494,-7.1494,-7.1494,-7.1494,-7.1494,-7.1494,-7.1567,-7.1712,-7.1748,-7.2074,-7.2871,-7.3088,-7.345,-7.4102,-7.4899,-7.5334,-7.5334,-7.5949,-7.6275,-7.6275,-7.6275,-7.6275,-7.6275,-7.6275,-7.6275,-7.6275,-7.6275,-7.6275,-7.6275,-7.613,-7.6167,-7.6275,-7.5949,-7.5659,-7.5373,-7.581,-7.6065,-7.614,-7.5725,-7.5082,-7.4296,-3.1111,-3.1618,-3.256,-3.419,-3.3973,-3.4335,-3.6633,-3.7067,-3.8282,-4.1524,-4.3389,-4.4729,-4.5743,-4.6468,-4.683,-4.6649,-4.8125,0.0,-5.0347,-5.2071,-5.3093,-5.3167,-5.3203,-5.3901,-5.5427,-5.5537,-5.6675,-5.8927,-5.9001,-5.9074,-5.9074,-5.9038,-5.8671,-5.7997,-5.7973,-5.7997,-5.7997,-5.7997,-5.7997,-5.7997,-5.7886,-5.7886,-5.7923,-5.8584,-5.7923,-5.6653,-5.6539,-5.7001,-5.7804,-5.8287,-5.8555,-5.8823,-5.9404,-5.9983,-6.003,-5.7554,-5.6815,-5.5981,-5.2104,-5.1212,-5.2045,-5.4689,-5.5414,-5.6971,0.0,-6.2947,-6.2947,-6.6243,-6.8126,-6.9321,-6.9756,-7.048,-7.106,-7.135,-7.1458,-7.1494,-7.1494,-7.1494,-7.1494,-7.1494,-7.1494,-7.1784,-7.2509,-7.2581,-7.2907,-7.374,-7.4431,-7.4866,-7.4938,-7.5732,-7.6167,-7.6167,-7.6239,-7.6275,-7.6275,-7.6275,-7.6275,-7.6275,-7.6275,-7.6275,-7.6275,-7.6275,-7.6275,-7.6239,-7.5551,-7.5659,-7.6167,-7.4754,-7.4971,-7.6061,-7.5071,-7.5148,-7.5725,-7.5299,-7.4472,-7.357,-3.2488,-3.2669,-3.3393,-3.5023,-3.5007,-3.5276,-3.6777,-3.7393,-3.85,-4.0691,-4.1994,-4.3027,-4.3824,-4.3389,-4.3065,-4.3159,-4.5639,-4.7743,-4.9085,-5.1694,-5.3203,-5.3203,-5.3203,-5.3739,-5.4876,-5.5354,-5.6308,-5.779,-5.829,-5.851,-5.851,-5.844,-5.8257,-5.7997,-5.7927,-5.7927,-5.7997,-5.7997,-5.7997,-5.7997,-5.7997,-5.7997,-5.8107,-5.8914,-5.9074,-5.8744,-5.778,-5.7363,0.0,-5.81,-5.8615,-5.9213,-6.0393,-6.0584,-6.018,-5.907,-5.8366,-5.7942,-5.7612,-5.7188,-5.7369,-5.9615,-6.052,-6.1716,-6.4867,-6.5084,-6.5518,-6.8742,-6.9901,-7.0517,-7.0951,-7.1277,-7.1494,-7.1494,-7.1494,-7.1494,-7.1494,-7.1494,-7.1675,-7.2146,-7.2219,-7.2327,-7.269,-7.3124,-7.374,-7.454,-7.4902,-7.5334,-7.5768,-7.613,-7.6275,-7.6275,-7.6275,-7.6529,-7.7,-7.7,-7.7217,-7.7688,-7.7688,-7.7688,-7.7688,-7.7688,-7.7434,-7.7,-7.7144,-7.6855,-7.6275,-7.6094,-7.613,-7.6242,-7.5469,-7.5541,-7.5969,-7.5335,-7.4794,-7.4396,-3.3791,-3.3538,-3.3828,-3.5225,-3.5659,-3.6146,-3.7176,-3.7466,-3.8101,-3.9659,-4.0546,-4.1289,-4.1886,-4.0709,-4.0127,-4.0737,-4.3597,-4.621,-4.8138,-5.1149,-5.2968,-5.3167,-5.3203,-5.3592,-5.4363,-5.495,-5.5757,-5.6822,-5.7373,-5.7776,-5.7997,-5.7904,-5.7904,-5.7997,-5.7904,-5.7904,-5.7997,-5.7997,-5.7997,-5.7997,-5.7997,-5.7997,-5.8107,-5.8914,-5.9148,-5.8941,-5.8207,-5.7584,-5.707,-5.6974,-5.7418,-5.8202,-5.9286,-5.9468,-5.9295,-5.9387,-5.8682,-5.833,-6.0438,-6.0919,-6.1317,-6.3345,-6.4794,-6.5881,-6.646,-6.675,-6.7583,-6.9901,-7.0553,-7.0879,-7.1422,-7.1494,-7.1494,-7.1494,-7.1494,-7.1494,-7.1494,-7.1712,-7.2074,-7.2653,-7.3088,-7.3378,-7.3378,-7.3921,-7.4573,-7.537,-7.5442,-7.5696,-7.6275,-7.6275,-7.6275,-7.6275,-7.6529,-7.6891,-7.747,-7.7724,-7.8122,-7.8702,-7.8702,-7.8702,-7.8702,-7.8702,-7.8376,-7.7833,-7.8195,-7.7724,-7.6637,-7.6782,-7.6746,-7.6567,-7.5937,-7.6152,-7.6686,-7.5765,-7.5369,-7.5263,-3.4407,-3.3936,-3.3647,-3.448,-3.5261,-3.6327,-3.7937,-3.687,-3.6472,-3.8082,-3.8988,-3.9478,-3.9478,-3.8753,-3.8913,-4.056,-4.3051,-4.557,-4.8041,-5.0615,-5.238,-5.3167,-5.3203,-5.3592,-5.4363,-5.4436,-5.5207,-5.6822,-5.6822,-5.7262,-5.7997,-5.7997,-5.7997,-5.7997,-5.7997,-5.7997,-5.7997,-5.7997,-5.7997,-5.7997,-5.7997,-5.7997,-5.8107,-5.8914,-5.7707,-5.5725,-5.7261,-5.7797,-5.7394,-5.5035,-5.477,-5.5381,-5.5338,-5.6285,-5.7617,-5.8254,-5.7297,-5.6428,-5.8058,-5.9651,-6.1571,-6.4758,-6.7293,-6.9062,-6.9098,-6.9714,-7.0294,-7.0403,-7.0951,-7.1458,-7.1494,-7.1494,-7.1494,-7.1494,-7.1494,-7.1494,-7.1494,-7.2183,-7.269,-7.2726,-7.4102,-7.5011,-7.5011,-7.5047,-7.5406,-7.6203,-7.6239,-7.6275,-7.6275,-7.6275,-7.6275,-7.6275,-7.7072,-7.747,-7.7507,-7.8267,-7.8666,-7.8702,-7.8702,-7.8702,-7.8702,-7.8702,-7.8702,-7.8629,-7.7869,-7.7507,-7.7326,-7.5804,-7.6094,-7.7364,-7.6153,-7.666,-7.7919,-7.6694,-7.6015,-7.562,-3.3973,-3.361,-3.3647,-3.448,-3.4842,-3.5566,-3.7176,-3.7393,-3.7594,-3.8118,-3.8444,0.0,0.0,0.0,0.0,0.0,-4.1956,-4.4565,-4.6525,-4.9534,-5.1573,-5.238,-5.2931,-5.3335,-5.3592,-5.4142,-5.4656,-5.5207,-5.6271,-5.6932,-5.7226,-5.774,-5.7997,-5.7997,-5.7997,-5.7997,-5.7997,-5.7997,-5.7997,-5.7997,-5.7997,-5.7997,-5.8143,-5.9406,-5.8004,-5.5432,0.0,-5.4688,-5.2893,-5.2616,-5.2638,-5.3058,-5.46,-5.5014,-5.5064,-5.5848,-5.7188,-5.8854,-6.0991,-6.2766,-6.4758,-6.7981,-6.9394,-7.0118,-7.0589,-7.0951,-7.1132,-7.1132,-7.0915,-7.077,-7.077,-7.077,-7.077,-7.077,-7.1168,-7.1494,-7.1494,-7.2183,-7.2907,-7.345,-7.4431,-7.5334,-7.5841,-7.5913,-7.6022,-7.6275,-7.6275,-7.6275,-7.6275,-7.6818,-7.7108,-7.7108,-7.7869,-7.8557,-7.91,-7.9354,-7.9752,-8.0295,-8.0295,-8.0295,-8.0295,-8.0295,-8.0006,-7.9499,-7.9788,-7.9607,-7.9064,-7.8521,-7.8593,-7.8957,-7.7774,-7.781,-7.842,-7.7739,-7.7595,-7.7482,0.0,-3.3791,-3.3755,-3.4826,-3.5007,0.0,0.0,0.0,0.0,0.0,0.0,0.0,0.0,0.0,0.0,0.0,0.0,-4.3321,-4.5351,-4.7719,-4.9664,-5.1079,-5.1353,-5.161,-5.1903,-5.2123,-5.2637,-5.3555,-5.4583,-5.5537,-5.6381,-5.6895,-5.7299,-5.7556,-5.7556,-5.7556,-5.7593,-5.7886,-5.7997,-5.796,-5.762,-5.751,-5.7524,-5.7883,-5.6131,0.0,-5.3117,-5.1289,-4.9091,-4.9331,-4.974,-5.0417,-5.1964,-5.3238,-5.4327,-5.5414,-5.755,-6.0339,-6.3599,-6.5229,-6.6786,-7.0009,-7.077,-7.0915,-7.1386,-7.1494,-7.1494,-7.1494,-7.0661,-6.9968,-6.9968,-6.9968,-6.9865,-6.9575,-7.0625,-7.1494,-7.1494,-7.2436,-7.345,-7.4214,-7.5044,-7.5732,-7.6239,-7.6275,-7.6275,-7.6275,-7.6275,-7.642,-7.671,-7.7217,-7.7615,-7.7905,-7.8702,-7.939,-7.9897,-8.0187,-8.0585,-8.1128,-8.1128,-8.1128,-8.1128,-8.1128,-8.0839,-8.0368,-8.0875,-8.0658,-7.9897,-7.9897,-7.9897,-7.9826,-7.907,-7.907,-7.95,-7.8927,-7.8889,-7.8848,0.0,0.0,-3.3936,0.0,0.0,0.0,0.0,0.0,0.0,0.0,0.0,0.0,0.0,0.0,0.0,0.0,0.0,0.0,-4.4361,-4.5296,0.0,-4.9317,-4.8673,-4.8636,-4.95,-4.871,-4.9481,-5.1867,-5.1903,-5.3115,-5.5412,-5.5486,-5.5868,-5.6638,-5.6675,-5.6675,-5.6748,-5.7519,-5.785,-5.7717,-5.6855,-5.642,-5.6237,-5.4602,0.0,-5.0162,-4.9413,-4.8021,-4.6395,-4.5671,-4.6576,-4.8025,-4.817,-5.1393,-5.545,-5.6971,-5.8637,-6.0991,-6.5627,-6.6967,-6.7764,-7.077,-7.1494,-7.1494,-7.1494,-7.1494,-7.1494,-7.1422,-7.0154,-6.9062,-6.8989,-6.9026,-6.8814,-6.8126,-7.0009,-7.1567,-7.1639,-7.2979,-7.4247,-7.5011,-7.5804,-7.6275,-7.6275,-7.6239,-7.6275,-7.6348,-7.6348,-7.6674,-7.747,-7.7579,-7.7977,-7.8738,-7.9535,-7.9969,-7.9969,-8.073,-8.1128,-8.1128,-8.1128,-8.1128,-8.1128,-8.1128,-8.1128,-8.1128,-8.1128,-8.0694,-7.9969,-7.9969,-7.9969,-7.9969,-7.9969,-8.044,-8.102,-8.0259,-7.9969,-7.9752,0.0,0.0,0.0,0.0,0.0,0.0,0.0,0.0,0.0,0.0,0.0,0.0,0.0,0.0,0.0,0.0,0.0,0.0,-4.1939,-4.3314,0.0,0.0,0.0,0.0,0.0,0.0,0.0,-5.0141,-5.0802,-5.172,-5.2931,-5.3518,-5.3922,-5.4121,-5.473,-5.5023,-5.506,-5.5778,-5.5697,-5.5147,0.0,-5.4332,-5.3857,0.0,0.0,-4.9428,-4.9742,-4.8409,-4.6576,-4.6975,-4.9365,-5.248,-5.4218,-5.6464,-5.8709,-6.0339,-6.2766,-6.5374,-6.7221,-6.8959,-7.048,-7.1313,-7.1494,-7.1494,-7.1494,-7.1494,-7.1168,-7.0009,-6.8525,-6.704,-6.5844,-6.6605,-6.7547,-6.7945,-7.048,-7.2617,-7.3197,-7.4142,-7.4866,-7.5083,-7.5804,-7.6275,-7.6275,-7.5768,-7.5913,-7.7108,-7.7181,-7.7289,-7.747,-7.8629,-7.939,-7.9607,-8.0368,-8.0802,-8.0802,-8.102,-8.1128,-8.1128,-8.1128,-8.1128,-8.1128,-8.1128,-8.1128,-8.1128,-8.1128,-8.0984,-8.0802,-8.0802,-8.0802,-8.0802,-8.0802,-8.0911,-8.1092,-8.0875,-8.0802,-8.0658,0.0,0.0,0.0,0.0,0.0,0.0,0.0,0.0,0.0,0.0,0.0,0.0,0.0,0.0,0.0,0.0,0.0,0.0,0.0,-4.1405,0.0,0.0,0.0,0.0,0.0,0.0,0.0,0.0,0.0,0.0,-5.0969,-5.1022,-5.1242,-5.161,-5.2087,-5.2249,-5.2244,-5.2987,0.0,0.0,0.0,0.0,0.0,0.0,0.0,-4.8073,-4.917,-4.9619,-4.9908,-5.1357,-5.3132,-5.4979,-5.6681,-5.8782,-6.1064,-6.3019,-6.5374,-6.7655,-6.914,-7.0517,-7.1494,-7.1494,-7.1494,-7.1313,-7.0625,-7.0227,-6.943,-6.7474,-6.5808,-6.4323,-6.3056,-6.5011,-6.6822,-6.6931,-7.048,-7.3378,-7.3849,-7.4576,-7.5261,-7.5587,-7.6022,-7.6275,-7.6275,-7.5877,-7.6167,-7.7398,-7.7181,-7.7434,-7.8484,-7.9426,-8.0078,-8.044,-8.0875,-8.1128,-8.1128,-8.1128,-8.1128,-8.1128,-8.1128,-8.1128,-8.1128,-8.1128,-8.1128,-8.1128,-8.1128,-8.1128,-8.1128,-8.1128,-8.1128,-8.1128,-8.1128,-8.1128,-8.1128,-8.1128,-8.1128,-8.1056,0.0,0.0,0.0,0.0,0.0,0.0,0.0,0.0,0.0,0.0,-3.7377,-3.8046,-3.8046,-3.8251,0.0,0.0,0.0,0.0,0.0,0.0,0.0,0.0,0.0,0.0,0.0,0.0,0.0,0.0,0.0,0.0,0.0,0.0,0.0,0.0,0.0,0.0,0.0,0.0,0.0,0.0,0.0,0.0,0.0,0.0,0.0,-4.7047,-4.8641,-5.1176,-5.4074,-5.6536,-5.7116,-5.6971,-5.813,-6.0557,-6.3418,-6.5591,-6.7293,-6.8923,-7.0951,-7.1494,-7.1494,-7.1494,-7.1494,-7.106,-6.9394,-6.8416,-6.7112,-6.4468,-6.273,-6.1462,-6.0629,-6.3599,-6.6098,-6.5953,-7.0227,-7.374,-7.4175,-7.4826,-7.5515,-7.6203,-7.6275,-7.6275,-7.6275,-7.6275,-7.6674,-7.7579,-7.7,-7.7579,-7.9788,-8.0006,-8.0404,-8.1092,-8.1128,-8.1128,-8.1128,-8.1128,-8.1128,-8.1128,-8.1128,-8.1128,-8.1128,-8.1128,-8.1128,-8.1128,-8.1128,-8.1128,-8.1128,-8.1128,-8.1128,-8.1128,-8.1128,-8.1128,-8.1128,-8.1128,-8.1128,-8.1128,0.0,0.0,0.0,0.0,0.0,0.0,0.0,0.0,0.0,0.0,-3.8246,-3.7212,0.0,0.0,0.0,0.0,0.0,0.0,0.0,0.0,0.0,0.0,0.0,0.0,0.0,0.0,-4.3681,-4.4929,-4.4782,0.0,0.0,0.0,0.0,0.0,0.0,0.0,0.0,0.0,0.0,0.0,0.0,0.0,0.0,0.0,0.0,0.0,-5.0307,-5.2082,-5.4146,-5.7188,-5.9434,-6.1462,-6.4251,-6.6424,-6.8162,-6.9249,-7.0191,-7.0987,-7.1386,-7.1494,-7.1494,-7.1494,-7.1494,-7.0915,-6.8706,-6.7583,-6.5953,-6.2223,-6.0665,-5.976,-5.8963,-6.1027,-6.386,-6.7076,-7.0009,-7.2834,-7.5515,-7.5985,-7.613,-7.6275,-7.6275,-7.6275,-7.6275,-7.6275,-7.6891,-7.8376,-7.8376,-7.8774,-7.9861,-8.0549,-8.0984,-8.1128,-8.1128,-8.1128,-8.1128,-8.1128,-8.1128,-8.1128,-8.1128,-8.1128,-8.1128,-8.1128,-8.1128,-8.1128,-8.1128,-8.1128,-8.1128,-8.1128,-8.1128,-8.1128,-8.1128,-8.1128,-8.1128,-8.1128,-8.1128,-8.1128,0.0,0.0,0.0,0.0,0.0,0.0,0.0,-3.8934,-4.0274,-4.2701,-4.1651,-4.0383,-3.955,-3.8732,-3.8452,0.0,0.0,0.0,0.0,0.0,0.0,0.0,0.0,0.0,0.0,-4.2066,-4.2837,-4.4085,0.0,-4.4085,-4.5259,-4.4856,-4.4618,-4.4601,-4.4967,-4.5296,-4.5585,-4.5889,-4.5992,-4.5932,-4.6307,-4.6214,0.0,0.0,0.0,0.0,0.0,-5.2842,-5.5124,-5.6645,-5.9868,-6.3671,-6.6062,-6.7909,-6.9388,-7.0185,-7.0915,-7.1494,-7.1494,-7.1494,-7.1494,-7.1494,-7.1494,-7.0661,-6.7474,-6.5808,-6.378,-5.976,-5.8637,-5.8094,-5.7297,-6.0158,-6.3273,-6.5192,-6.8887,-7.2183,-7.4138,-7.5515,-7.6275,-7.6275,-7.6674,-7.6927,-7.6927,-7.7289,-7.805,-7.9245,-7.9318,-7.968,-8.0476,-8.0911,-8.1128,-8.1128,-8.1128,-8.1128,-8.1128,-8.1128,-8.1128,-8.1128,-8.1128,-8.1128,-8.1128,-8.1128,-8.1128,-8.1128,-8.1128,-8.1128,-8.1128,-8.1128,-8.1128,-8.1128,-8.1128,-8.1128,-8.1128,-8.1128,-8.1128,-8.1128,0.0,0.0,0.0,0.0,0.0,0.0,0.0,-4.1343,-4.2484,-4.5888,-4.549,-4.4331,-4.2899,-4.0509,-3.9252,0.0,0.0,0.0,0.0,0.0,0.0,0.0,0.0,0.0,0.0,0.0,0.0,-4.348,-4.3023,0.0,0.0,0.0,0.0,0.0,-4.3524,-4.3834,-4.4323,-4.443,-4.4445,0.0,0.0,-4.5345,0.0,0.0,0.0,0.0,0.0,-5.3132,-5.5305,-5.5812,-5.9035,-6.32,-6.5156,-6.7474,-6.9569,-7.004,-7.077,-7.1494,-7.1494,-7.1494,-7.1494,-7.1494,-7.1494,-7.0408,-6.6279,-6.4106,-6.1788,-5.7768,-5.6826,-5.6609,-5.6319,-5.9506,-6.244,-6.3309,-6.7257,-7.0806,-7.2472,-7.45,-7.5913,-7.6239,-7.7,-7.7507,-7.7507,-7.8376,-7.9209,-7.9861,-8.0078,-8.044,-8.1092,-8.1128,-8.1128,-8.1128,-8.1128,-8.1128,-8.1128,-8.1128,-8.1128,-8.1128,-8.1128,-8.1128,-8.1128,-8.1128,-8.1128,-8.1128,-8.1128,-8.1128,-8.1128,-8.1128,-8.1128,-8.1128,-8.1128,-8.1128,-8.1128,-8.1128,-8.1128,-8.1128,0.0,0.0,0.0,0.0,0.0,0.0,0.0,-4.2411,-4.52,-4.9133,-4.8315,-4.7047,-4.6142,-4.3281,-4.118,0.0,0.0,0.0,0.0,0.0,0.0,0.0,0.0,0.0,0.0,0.0,0.0,-4.3412,-4.4071,0.0,0.0,0.0,0.0,0.0,0.0,-4.4269,-4.434,-4.4933,0.0,0.0,0.0,0.0,0.0,0.0,0.0,0.0,0.0,-5.2589,-5.3132,-5.5269,-5.6826,-5.8383,-6.1498,-6.6062,-7.0185,-6.9497,-7.0335,-7.1494,-7.1494,-7.1494,-7.1494,-7.1494,-7.1494,-7.0263,-6.5591,-6.3273,-6.0991,-5.6935,-5.5595,-5.5522,-5.6862,-5.8058,-6.005,-6.3708,-6.5337,-6.7692,-7.2074,-7.3523,-7.4682,-7.613,-7.7,-7.7507,-7.7507,-7.8883,-7.9825,-7.9897,-8.0585,-8.102,-8.1128,-8.1128,-8.1128,-8.1128,-8.1128,-8.1128,-8.1128,-8.1128,-8.1128,-8.1128,-8.1128,-8.1128,-8.1128,-8.1128,-8.1128,-8.1128,-8.1128,-8.1128,-8.1128,-8.1128,-8.1128,-8.1128,-8.1128,-8.1128,-8.1128,-8.1128,-8.1128,-8.1128,0.0,0.0,0.0,0.0,0.0,0.0,-4.2774,-4.3788,-4.5888,-5.0886,-5.0126,-4.9003,-4.8677,-4.582,-4.2886,-4.0266,0.0,0.0,0.0,0.0,0.0,0.0,0.0,0.0,0.0,0.0,-4.3798,-4.4126,-4.4346,0.0,0.0,0.0,0.0,0.0,0.0,-4.3794,-4.4191,-4.4459,0.0,0.0,0.0,0.0,0.0,0.0,0.0,0.0,0.0,0.0,-5.2625,-5.3566,-5.5703,-5.7913,-5.7768,-6.1571,-6.6388,-6.7981,-6.9249,-7.0299,-7.1241,-7.1494,-7.1494,-7.1494,-7.1168,-6.9684,-6.5374,-6.2802,-6.0412,-5.7333,-5.6102,-5.5884,-5.7007,-5.784,-5.9072,-6.1172,-6.2983,-6.5156,-6.8017,-7.0372,-7.2364,-7.3957,-7.5696,-7.7144,-7.8122,-7.968,-8.0621,-8.0621,-8.0911,-8.1128,-8.1128,-8.1128,-8.1128,-8.1128,-8.1128,-8.1128,-8.1128,-8.1128,-8.1128,-8.1128,-8.1128,-8.1128,-8.1128,-8.1128,-8.1128,-8.1128,-8.1128,-8.1128,-8.1128,-8.1128,-8.1128,-8.1128,-8.1128,-8.1128,-8.1128,-8.1128,-8.1128,-8.1128,0.0,0.0,0.0,0.0,0.0,-3.9386,-4.3896,-4.4512,-4.6214,-5.114,-5.08,-5.0003,-4.9764,-4.6731,-4.3504,-4.0538,-4.0255,0.0,0.0,0.0,0.0,0.0,0.0,0.0,0.0,0.0,-4.4053,-4.451,-4.5128,-4.5347,0.0,0.0,-4.4742,-4.4101,0.0,0.0,0.0,0.0,0.0,0.0,0.0,0.0,0.0,0.0,0.0,0.0,0.0,0.0,0.0,0.0,0.0,-5.6717,-5.5088,-5.755,-6.1752,-6.5229,-6.7474,-6.9104,-7.0444,-7.1168,-7.1494,-7.1494,-7.077,-6.9032,-6.5265,-6.2549,-6.0122,-5.7695,-5.6536,-5.6247,-5.7043,-5.7659,-5.8383,0.0,-6.1245,-6.3309,-6.5627,-6.809,-7.0335,-7.2146,-7.4066,-7.5949,-7.7796,-7.9897,-8.1128,-8.1128,-8.1128,-8.1128,-8.1128,-8.1128,-8.1128,-8.1128,-8.1128,-8.1128,-8.1128,-8.1128,-8.1128,-8.1128,-8.1128,-8.1128,-8.1128,-8.1128,-8.1128,-8.1128,-8.1128,-8.1128,-8.1128,-8.1128,-8.1128,-8.1128,-8.1128,-8.1128,-8.1128,-8.1128,-8.1128,-8.1128,0.0,0.0,0.0,0.0,0.0,0.0,-4.2321,-4.4258,-4.6432,-4.9713,-5.0112,-4.98,-4.8981,-4.5461,-4.2777,-4.1941,-3.982,0.0,0.0,0.0,0.0,0.0,0.0,0.0,0.0,0.0,-4.497,-4.4286,-4.663,-4.7373,-4.6666,-4.6666,-4.6606,-4.6432,0.0,0.0,0.0,0.0,0.0,0.0,0.0,0.0,0.0,0.0,0.0,0.0,0.0,0.0,0.0,0.0,0.0,0.0,0.0,-5.4798,-5.6862,-6.0883,-6.4903,-6.8199,-6.8995,-7.0335,-7.1494,-7.1494,-7.0335,-6.8374,-6.512,-6.2549,-6.0122,-5.7695,-5.6536,-5.6247,-5.7043,-5.7188,-5.7732,-5.9361,-6.0303,0.0,-6.6243,-6.751,-6.8887,-7.1241,-7.2255,-7.3667,-7.6094,-7.9209,-8.1128,-8.1128,-8.1128,-8.1128,-8.1128,-8.1128,-8.1128,-8.1128,-8.1128,-8.1128,-8.1128,-8.1128,-8.1128,-8.1128,-8.1128,-8.1128,-8.1128,-8.1128,-8.1128,-8.1128,-8.1128,-8.1128,-8.1128,-8.1128,-8.1128,-8.1128,-8.1128,-8.1128,-8.1128,-8.1128,-8.1128,-8.1128,0.0,0.0,0.0,0.0,0.0,0.0,0.0,-4.2158,-4.3824,-4.6468,-4.6323,-4.6323,-4.7192,-4.4263,-4.2123,-4.1796,-4.0317,0.0,0.0,0.0,0.0,0.0,0.0,0.0,0.0,-4.4785,-4.5804,-4.6775,-4.7964,-4.8472,-4.8338,-4.7674,-4.7068,-4.6468,-4.5671,-4.5599,0.0,0.0,0.0,0.0,0.0,0.0,0.0,0.0,0.0,0.0,0.0,0.0,0.0,0.0,0.0,0.0,0.0,0.0,0.0,-5.6609,-6.0375,-6.407,-6.4867,-6.6243,-6.7329,-6.6786,-6.6279,-6.5229,-6.2549,-6.0919,-5.947,-5.7587,-5.6536,-5.6247,-5.7043,-5.7188,-5.7913,-6.0086,-6.0629,0.0,-6.4758,-6.6786,-6.8887,-7.1241,-7.5116,-7.8159,-7.9462,-8.0006,-8.0513,-8.1056,-8.0585,-8.0513,-8.1092,-8.1128,-8.1128,-8.1128,-8.1128,-8.1128,-8.1128,-8.1128,-8.1128,-8.1128,-8.1128,-8.1128,-8.1128,-8.1128,-8.1128,-8.1128,-8.1128,-8.1128,-8.1128,-8.1128,-8.1128,-8.1128,-8.1128,-8.1128,-8.1128,-8.1128,-8.1128,-8.1128,0.0,0.0,0.0,0.0,0.0,0.0,0.0,-4.0727,-4.1886,-4.3715,-4.3498,-4.3824,-4.5417,-4.283,-4.118,-4.1669,-4.0195,0.0,0.0,0.0,0.0,0.0,0.0,0.0,-4.4077,-4.4874,-4.6291,-4.8254,-4.9604,-5.0315,-5.0381,-5.0075,-4.922,-4.7808,-4.7011,-4.6757,0.0,0.0,0.0,0.0,0.0,0.0,-4.9257,0.0,0.0,0.0,0.0,0.0,0.0,0.0,0.0,0.0,0.0,0.0,0.0,0.0,-5.6536,-5.976,-6.1752,-6.3454,-6.4649,-6.4432,-6.3925,-6.3019,-6.1208,-5.9941,-5.8782,-5.7478,-5.679,-5.6609,-5.7116,-5.7188,-5.7804,-5.9615,-6.0158,-6.1426,-6.4432,-6.6424,-6.8633,-7.1603,-7.613,-7.9209,-7.968,-8.0114,-8.044,-8.0658,-8.0187,-8.0114,-8.0621,-8.0658,-8.0802,-8.1092,-8.1128,-8.1128,-8.1128,-8.1128,-8.1128,-8.1128,-8.1128,-8.1128,-8.1128,-8.1128,-8.1128,-8.1128,-8.1128,-8.1128,0.0,-8.1128,-8.1128,-8.1128,-8.1128,-8.1128,-8.1128,-8.1128,-8.1128,-8.1128,0.0,0.0,0.0,0.0,0.0,0.0,0.0,-3.9948,-4.0691,-4.1451,-4.1524,-4.2122,-4.3607,-4.1107,-3.9912,-4.1415,0.0,0.0,0.0,0.0,0.0,0.0,0.0,0.0,-4.415,-4.5019,-4.6649,-4.8981,-5.1466,-5.2697,-5.277,-5.3566,-5.2661,-5.0329,-4.951,-4.8656,-4.788,0.0,0.0,0.0,-4.9655,-4.9967,0.0,0.0,0.0,0.0,0.0,0.0,0.0,0.0,0.0,0.0,0.0,0.0,0.0,0.0,0.0,0.0,0.0,-6.1498,-6.2947,-6.3708,-6.2802,-6.1507,-6.0738,-5.9434,0.0,-5.7369,-5.7188,-5.7224,-5.7333,-5.7261,-5.755,-5.8565,-5.9325,-6.1172,-6.5192,-6.675,-6.8887,-7.269,-7.5804,-7.7651,-7.7651,-7.9643,-8.0694,-8.0042,-7.9933,-7.9933,-7.9969,-8.0006,-8.0332,-8.1092,-8.1128,-8.1128,-8.1128,-8.1128,-8.1128,-8.1128,-8.1128,-8.1128,-8.1128,-8.1128,-8.1128,-8.1128,-8.1128,-8.1128,-8.1128,-8.1128,-8.1128,-8.1128,-8.1128,-8.1128,-8.1128,-8.1128,-8.1128,-8.1128,0.0,0.0,0.0,0.0,0.0,0.0,0.0,0.0,0.0,0.0,-3.9948,-4.0093,-4.0456,-3.9297,-3.8879,0.0,0.0,0.0,0.0,0.0,0.0,0.0,0.0,0.0,-4.4983,-4.6395,-4.8025,-4.98,-5.2842,-5.4617,-5.5196,-5.5993,-5.5124,-5.2806,-5.2009,-5.0524,-4.8619,-4.9039,0.0,0.0,-4.846,-4.8641,0.0,0.0,0.0,0.0,-5.0995,-5.1683,0.0,0.0,0.0,0.0,0.0,0.0,0.0,0.0,-5.277,-5.3385,-5.4943,0.0,-5.8637,-5.8818,-5.9072,-5.9035,0.0,-5.8239,-5.8166,-5.7369,-5.7188,-5.7587,-5.8818,-5.8021,-5.8275,-6.1534,-6.1716,-6.2811,-6.6895,-7.1277,-7.4863,-7.7036,-7.8521,-7.9354,-7.9354,-7.9281,-7.9716,-8.0766,-8.0259,-8.0187,-8.0802,-8.0839,-8.0911,-8.1092,-8.1128,-8.1128,-8.1128,-8.1128,-8.1128,-8.1128,-8.1128,-8.1128,-8.1128,-8.1128,-8.1128,-8.1128,-8.1128,-8.1128,-8.1128,-8.1128,-8.1128,-8.1128,-8.1128,-8.1128,-8.1128,-8.1128,-8.1128,-8.1128,0.0,0.0,0.0,0.0,0.0,0.0,0.0,0.0,0.0,0.0,0.0,-3.8843,-3.8843,-3.848,0.0,0.0,0.0,0.0,0.0,0.0,0.0,0.0,0.0,-4.3208,-4.5273,-4.6504,-4.8496,-5.1176,-5.4001,-5.5993,-5.7116,-5.7913,-5.6862,-5.4182,-5.2625,-5.1212,-5.0017,-5.0017,-4.9582,-4.8837,-4.8402,0.0,0.0,0.0,0.0,0.0,-5.1683,-5.2118,0.0,-5.3349,-5.3929,-5.4255,0.0,0.0,0.0,0.0,-5.2226,-5.2118,-5.2915,-5.487,-5.6717,-5.7116,-5.7804,-5.8275,-5.784,-5.7804,-5.7732,-5.7297,-5.7188,-5.7587,-5.8818,-5.9253,-5.9977,-6.1788,-6.3599,-6.6025,-6.9647,-7.3704,-7.6746,-7.8014,-7.8847,-7.9354,-7.9354,-7.8955,-7.9064,-7.9933,-7.9607,-7.9716,-8.0513,-8.0549,-8.073,-8.1092,-8.1128,-8.1128,-8.1128,-8.1128,-8.1128,-8.1128,-8.1128,-8.1128,-8.1128,-8.1128,-8.1128,-8.1128,-8.1128,-8.1128,-8.1128,-8.1128,-8.1128,-8.1128,-8.1128,-8.1128,-8.1128,-8.1128,-8.1128,-8.1128,0.0,0.0,0.0,0.0,0.0,0.0,0.0,0.0,0.0,0.0,0.0,0.0,0.0,0.0,0.0,0.0,0.0,0.0,0.0,0.0,0.0,0.0,-4.2918,-4.3643,-4.5635,-4.6323,-4.8532,-5.2299,-5.5051,-5.7116,-5.8601,-5.9905,-5.8709,-5.5305,-5.2516,-5.114,-5.0923,-5.0778,-4.9945,-4.8728,-4.8728,0.0,0.0,0.0,0.0,0.0,0.0,0.0,0.0,-5.3784,-5.4037,-5.3929,-5.411,0.0,0.0,0.0,0.0,0.0,-5.2552,-5.4581,-5.6428,-5.6754,-5.7623,-5.8383,-5.8239,-5.7695,-5.7188,-5.7188,-5.7297,-5.7768,-5.9072,-6.0701,-6.1897,-6.2078,-6.57,-6.9647,-7.2798,-7.5225,-7.6963,-7.776,-7.8484,-7.8883,-7.8883,-7.8774,-7.881,-7.9064,-7.8955,-7.9245,-8.0042,-8.0078,-8.0404,-8.1092,-8.1128,-8.1128,-8.1128,-8.1128,-8.1128,-8.1128,-8.1128,-8.1128,-8.1128,-8.1128,-8.1128,-8.1128,-8.1128,0.0,-8.1128,-8.1128,-8.1128,-8.1128,-8.1128,-8.1128,-8.1128,-8.1128,-8.1128,-8.1128,0.0,0.0,0.0,0.0,0.0,0.0,0.0,0.0,0.0,0.0,0.0,0.0,0.0,0.0,0.0,0.0,0.0,0.0,0.0,0.0,0.0,-4.4874,-4.2972,-4.3587,-4.7265,-4.7446,-4.8822,-5.1466,-5.5884,-5.8492,-5.9506,-6.3019,-6.2259,-5.7659,-5.3241,-5.0524,-4.9199,-4.8532,-4.8134,-4.7859,-4.7859,0.0,0.0,0.0,0.0,0.0,0.0,0.0,0.0,-5.1212,-5.2552,-5.4255,-5.1647,0.0,0.0,0.0,0.0,0.0,-5.3748,-5.6247,-5.7587,-5.574,-5.6826,-5.8239,-5.755,-5.7297,-5.7188,0.0,-5.7732,-5.9289,-6.2838,-6.2114,-6.2512,-6.7148,-6.9611,-7.2074,-7.5297,-7.7253,-7.8629,-7.9462,-7.9643,-7.9716,-7.9716,-7.91,-7.9281,-8.0621,-8.0114,-8.0078,-8.0875,-8.0911,-8.0984,-8.1128,-8.1128,-8.1128,-8.1128,-8.1128,-8.1128,-8.1128,-8.1128,-8.1128,-8.1128,-8.1128,-8.1128,-8.1128,0.0,-8.1128,-8.1128,-8.1128,-8.1128,-8.1128,-8.1128,-8.1128,-8.1128,-8.1128,-8.1128,-8.1128,0.0,0.0,0.0,0.0,0.0,0.0,0.0,0.0,0.0,0.0,0.0,0.0,0.0,0.0,0.0,0.0,0.0,0.0,0.0,0.0,-4.4186,-4.712,-4.5345,-4.5361,-4.7663,-4.9836,-5.19,-5.382,-5.8637,-6.1172,-6.1534,-6.1643,-6.0303,-5.7587,-5.3675,-5.1031,-4.951,-4.9148,-4.8749,-4.8294,0.0,0.0,0.0,0.0,0.0,0.0,0.0,0.0,0.0,0.0,-5.2299,-5.3929,-5.2009,0.0,0.0,0.0,0.0,0.0,-5.1792,-5.4037,-5.6029,-5.6645,-5.9905,-6.2838,-6.2476,-6.2404,-6.215,-6.1281,-6.139,-6.2331,-6.4613,-6.5192,-6.6895,-7.1603,-7.2617,-7.3631,-7.5949,-7.7289,-7.834,-7.9173,-7.8883,-7.8774,-7.9209,-7.8521,-7.8738,-8.0332,-8.0114,-8.0259,-8.1056,-8.1128,-8.1128,-8.1128,-8.1128,-8.1128,-8.1128,-8.1128,-8.1128,-8.1128,-8.1128,-8.1128,-8.1128,-8.1128,-8.1128,-8.1128,0.0,-8.1128,-8.1128,-8.1128,-8.1128,-8.1128,-8.1128,-8.1128,-8.1128,-8.1128,-8.1128,-8.1128,0.0,0.0,0.0,0.0,0.0,0.0,0.0,0.0,0.0,0.0,0.0,0.0,0.0,0.0,0.0,0.0,0.0,0.0,0.0,-4.3136,-4.5091,-4.8728,-4.8098,-4.817,-4.9365,-5.2045,-5.4544,-5.6826,-6.0919,-6.32,-6.3708,-6.0665,-5.8601,-5.7333,-5.4182,-5.1864,-5.0365,-5.0184,-4.9655,-4.8837,0.0,0.0,0.0,0.0,0.0,0.0,0.0,0.0,0.0,0.0,0.0,0.0,0.0,0.0,0.0,-5.1719,-5.0162,-4.9235,-5.0778,-5.2697,-5.5051,-5.842,-6.2078,-6.5192,-6.6496,-6.6243,-6.5555,-6.5048,-6.512,-6.5482,-6.6279,-6.838,-7.0951,-7.3812,-7.4392,-7.5044,-7.6637,-7.7398,-7.8159,-7.9136,-7.8376,-7.8159,-7.9173,-7.8376,-7.8448,-8.0078,-8.0006,-8.0259,-8.1056,-8.1128,-8.1128,-8.1128,-8.1128,-8.1128,-8.1128,-8.1128,-8.1128,-8.1128,-8.1128,-8.1128,-8.1128,-8.1128,-8.1128,-8.1128,-8.1128,-8.1128,-8.1128,-8.1128,-8.1128,-8.1128,-8.1128,-8.1128,-8.1128,-8.1128,-8.1128,-8.1128,0.0,0.0,0.0,0.0,0.0,0.0,0.0,0.0,0.0,0.0,0.0,0.0,0.0,0.0,0.0,0.0,0.0,0.0,0.0,-4.5091,-4.625,-4.8764,-5.0234,-5.2009,-5.4327,-5.3204,-5.4798,-5.9361,-6.1181,-6.3237,-6.5374,-6.2911,-6.052,-5.8166,-5.5015,-5.2733,-5.114,-5.0438,-4.9655,-4.8945,-4.9655,0.0,0.0,0.0,0.0,0.0,0.0,0.0,0.0,0.0,0.0,0.0,0.0,0.0,-5.2408,-5.1538,-5.0162,-4.9705,-5.353,-5.5196,-5.679,-6.0774,-6.0375,-6.0375,-6.5627,-6.4504,-6.3136,-6.6025,-6.7221,-6.7981,-6.8778,-7.0842,-7.2291,-7.182,-7.4211,-7.6674,-7.8303,-7.8593,-7.9209,-8.0766,-7.9571,-7.9209,-8.0802,-7.9535,-7.9281,-8.0911,-8.0332,-8.0259,-8.1056,-8.1128,-8.1128,-8.1128,-8.1128,-8.1128,-8.1128,-8.1128,-8.1128,-8.1128,-8.1128,-8.1128,-8.1128,-8.1128,-8.1128,-8.1128,-8.1128,-8.1128,-8.1128,-8.1128,-8.1128,-8.1128,-8.1128,-8.1128,-8.1128,-8.1128,-8.1128,-8.1128,0.0,0.0,0.0,0.0,0.0,0.0,0.0,0.0,0.0,0.0,0.0,0.0,0.0,0.0,0.0,0.0,0.0,0.0,0.0,-4.578,-4.712,-4.9546,-5.0234,-5.19,-5.4834,-5.6717,-5.9035,-6.1824,-6.2947,-6.3961,-6.4758,-6.0846,-5.8275,-5.679,-5.4146,-5.2625,-5.1973,-5.1176,-5.0959,-5.1067,-5.0379,-5.0728,0.0,0.0,0.0,0.0,0.0,0.0,0.0,0.0,-5.0126,-5.1828,-5.0633,-5.1973,-5.3639,-5.1828,-5.0488,-5.0198,-5.2733,-5.5051,-5.7478,-6.052,-6.1716,-6.3345,-6.7981,-6.9249,-6.9611,-7.0335,-7.1132,-7.1458,-7.077,-7.3414,-7.4935,-7.2617,-7.5804,-7.8412,-7.8014,-7.9245,-8.044,-8.1056,-8.0114,-7.9897,-8.102,-8.0114,-7.9897,-8.102,-8.0839,-8.0802,-8.1092,-8.1128,-8.1128,-8.1128,-8.1128,-8.1128,-8.1128,-8.1128,-8.1128,-8.1128,-8.1128,-8.1128,-8.1128,-8.1128,-8.1128,-8.1128,-8.1128,-8.1128,-8.1128,-8.1128,-8.1128,-8.1128,-8.1128,-8.1128,-8.1128,-8.1128,-8.1128,-8.1165,0.0,0.0,0.0,0.0,0.0,0.0,0.0,0.0,0.0,0.0,0.0,0.0,0.0,0.0,0.0,0.0,0.0,0.0,-4.5961,-4.6576,-4.7735,-4.9619,-5.0198,-5.1864,-5.4834,-5.8528,-6.1317,-6.32,-6.4504,-6.4649,-6.3563,-5.9724,-5.7659,-5.7007,-5.4399,-5.353,-5.3892,-5.2589,-5.2226,-5.2408,-5.1285,-5.1357,0.0,0.0,0.0,0.0,0.0,0.0,0.0,0.0,-4.9945,-5.1285,-5.0923,-5.2335,-5.3856,-5.248,-5.2371,-5.2915,-5.3748,-5.6102,-5.8999,-6.1643,-6.3563,-6.5808,-6.9828,-7.1603,-7.269,-7.3631,-7.3486,-7.2979,-7.2364,-7.3885,-7.4863,-7.3667,-7.6674,-7.8955,-7.834,-7.9462,-8.0549,-8.1056,-7.9933,-7.968,-8.0984,-8.0368,-8.0223,-8.1056,-8.1128,-8.1128,-8.1128,-8.1128,-8.1128,-8.1128,-8.1128,-8.1128,-8.1128,-8.1128,-8.1128,-8.1128,-8.1128,-8.1128,-8.1128,-8.1128,-8.1128,-8.1128,-8.1128,-8.1128,-8.1128,-8.1128,-8.1128,-8.1128,-8.1128,-8.1128,-8.1128,-8.1128,-8.1128,-8.1237,0.0,0.0,0.0,0.0,0.0,0.0,0.0,0.0,-4.2901,-4.2901,-4.2901,0.0,0.0,0.0,0.0,0.0,0.0,0.0,-4.7663,-4.7699,-4.804,-4.8873,-5.0416,-5.2408,-5.4798,-5.7949,-6.0774,-6.3164,-6.5591,-6.512,-6.1906,-6.0339,-5.9579,-5.9434,-5.6319,-5.574,-5.7043,-5.4689,-5.3241,-5.2516,-5.2516,-5.2009,-5.1285,0.0,0.0,0.0,0.0,0.0,0.0,0.0,-5.0234,-4.9597,-5.3603,-5.3784,-5.2697,-5.3458,-5.5921,-5.8202,-5.7406,-5.8963,-6.1607,-6.4758,-6.5627,-6.6714,-7.0625,-7.0335,-7.062,-7.5297,-7.374,-7.2038,-7.3631,-7.2038,-7.1494,-7.4576,-7.6492,-7.8086,-7.968,-7.9209,-7.9318,-8.0911,-7.8992,-7.8484,-8.0875,-8.0404,-8.0259,-8.1056,-8.1128,-8.1128,-8.1128,-8.1128,-8.1128,-8.1128,-8.1128,-8.1128,-8.1128,-8.1128,-8.1128,-8.1128,-8.1128,-8.1128,-8.1128,-8.1128,-8.1128,-8.1128,-8.1128,-8.1128,-8.1128,-8.1128,-8.1128,-8.1128,-8.1128,-8.1128,-8.1128,-8.1128,-8.1128,-8.1237,0.0,0.0,0.0,0.0,0.0,0.0,0.0,0.0,-4.2901,-4.2901,-4.3389,0.0,0.0,0.0,0.0,0.0,0.0,0.0,-4.7663,-4.7699,-4.804,-4.8873,-4.9908,-5.1067,-5.2335,-5.545,-5.8818,-6.2367,-6.3092,-6.1788,-5.8601,-5.813,-5.7333,-5.6283,-5.5848,-5.5631,-5.5486,-5.4255,-5.3892,-5.4146,-5.3566,-5.2842,-5.2118,0.0,0.0,0.0,0.0,0.0,0.0,0.0,0.0,0.0,-5.114,-5.3096,-5.4798,-5.3965,-5.5124,-5.6536,-5.5776,-5.9398,-6.3273,-6.3128,-6.7293,-7.1603,-7.2219,-7.2436,0.0,-7.5768,-7.508,-7.403,-7.3921,-7.5189,-7.5985,-7.5192,-7.7869,-8.0006,-7.9933,-8.0187,-8.0585,-8.1056,-8.0476,-8.0332,-8.1056,-8.0875,-8.0839,-8.1092,-8.1128,-8.1128,-8.1128,-8.1128,-8.1128,-8.1128,-8.1128,-8.1128,-8.1128,-8.1128,-8.1128,-8.1128,-8.1128,-8.1128,-8.1128,-8.1128,-8.1128,-8.1128,-8.1128,-8.1128,-8.1128,-8.1128,-8.1128,-8.1128,-8.1128,-8.1128,-8.1165,-8.1744,-8.1925,-8.2143,0.0,0.0,0.0,0.0,0.0,0.0,-4.2901,-4.3191,-4.3353,-4.3353,-4.4077,-4.4584,0.0,0.0,0.0,-4.6468,-4.6794,-4.7192,-4.7663,-4.8025,-4.8366,-4.8873,-4.9981,-5.1249,-5.2697,-5.487,-5.7043,-5.9154,-6.0122,-5.9253,-5.6717,-5.7695,-5.7659,-5.6826,-5.7913,-5.7768,-5.6717,-5.5921,-5.5305,-5.487,-5.4363,-5.3494,-5.248,0.0,0.0,0.0,0.0,0.0,0.0,0.0,0.0,0.0,-5.0271,-5.2213,-5.4327,-5.5269,-5.7587,-5.9941,-6.0448,-6.407,-6.7692,-6.7692,-7.0589,-7.3559,-7.403,-7.45,-7.5116,-7.6094,-7.5406,-7.4682,-7.4826,-7.5913,-7.6746,-7.6565,-7.8557,-8.0223,-8.0368,-8.0513,-8.0766,-8.1056,-8.0839,-8.0766,-8.1092,-8.1128,-8.1128,-8.1128,-8.1128,-8.1128,-8.1128,-8.1128,-8.1128,-8.1128,-8.1128,-8.1128,-8.1128,-8.1128,-8.1128,-8.1128,-8.1128,-8.1128,-8.1128,-8.1128,-8.1128,-8.1128,-8.1128,-8.1128,-8.1128,-8.1128,-8.1128,-8.1128,-8.1128,-8.1128,-8.1201,-8.1998,-8.2287,-8.2505,0.0,0.0,0.0,0.0,0.0,0.0,-4.301,-4.3607,-4.4114,-4.4186,-4.491,-4.5417,0.0,0.0,0.0,-4.6613,-4.7301,-4.7699,-4.7699,-4.8438,-4.8909,-4.9018,-5.056,-5.248,-5.4762,-5.5377,-5.5377,-5.4798,-5.708,-5.7369,-5.5848,-5.8347,-5.947,-5.947,-6.1136,-6.0919,-5.9216,-5.842,-5.6754,-5.4689,-5.4834,-5.3856,-5.2226,-5.1611,0.0,0.0,0.0,0.0,0.0,0.0,0.0,0.0,-5.0524,-5.1357,-5.2263,-5.6681,-6.1426,-6.5736,-6.7764,-7.0408,-7.3124,-7.5297,-7.4428,-7.3595,-7.5804,-7.6275,-7.6275,-7.6275,-7.5152,-7.4573,-7.6022,-7.5225,-7.5297,-7.8231,-7.881,-7.9426,-8.0911,-8.0476,-8.0295,-8.102,-8.0476,-8.0295,-8.1056,-8.1128,-8.1128,-8.1128,-8.1128,-8.1128,-8.1128,-8.1128,-8.1128,-8.1128,-8.1128,-8.1128,-8.1128,-8.1128,-8.1128,-8.1128,-8.1128,-8.1128,-8.1128,-8.1128,-8.1128,-8.1128,-8.1128,-8.1128,-8.1128,-8.1128,-8.1128,-8.1128,-8.1201,-8.1237,-8.1309,-8.2179,-8.2505,-8.2722,0.0,0.0,0.0,0.0,0.0,0.0,-4.3751,-4.3969,-4.4331,-4.4947,-4.5743,-4.625,-4.625,-4.6975,0.0,-4.7446,-4.7627,-4.7699,-4.7699,-4.8438,-4.9184,-4.98,-5.1357,-5.277,-5.3929,-5.3494,-5.3494,-5.3965,-5.5667,-5.5703,-5.4255,-5.7261,-5.8311,-5.7804,-6.0086,-5.947,-5.6717,-5.5957,-5.4617,-5.3132,-5.4399,-5.3168,-5.0764,-5.1828,-5.0959,0.0,0.0,0.0,0.0,0.0,0.0,0.0,-5.0524,-5.1719,-5.2552,-5.4218,-5.8528,-6.2621,-6.186,-6.6605,0.0,-7.24,-7.403,-7.5659,-7.6167,-7.6275,-7.6275,-7.6275,-7.6022,-7.5877,-7.6239,-7.7036,-7.7905,-7.8593,-7.9752,-8.073,-8.1056,-8.0947,-8.0911,-8.1092,-8.0947,-8.0911,-8.1092,-8.1128,-8.1128,-8.1128,-8.1128,-8.1128,-8.1128,-8.1128,-8.1128,-8.1128,-8.1128,-8.1128,-8.1128,-8.1128,-8.1128,-8.1128,-8.1128,-8.1128,-8.1128,-8.1128,-8.1128,-8.1128,-8.1128,-8.1128,-8.1128,-8.1128,-8.1128,-8.1165,-8.178,-8.2034,-8.2215,-8.3627,-8.4171,-8.4316,0.0,0.0,0.0,0.0,0.0,0.0,0.0,0.0,-4.4947,-4.578,-4.6576,-4.7083,-4.7083,-4.7446,0.0,0.0,-4.7699,-4.7699,-4.7699,-4.8822,-5.0017,-5.1176,-5.2045,-5.2697,-5.3132,-5.2335,-5.2299,-5.3132,-5.353,-5.353,-5.3204,-5.6355,-5.7406,-5.6754,-5.9542,-5.8999,-5.5993,-5.5993,-5.5088,-5.3675,-5.4146,-5.3096,-5.1249,-5.1321,-5.009,-4.8257,-4.7844,0.0,0.0,0.0,0.0,0.0,0.0,0.0,-5.1937,-5.5051,-5.8275,-6.1426,0.0,0.0,0.0,-7.3414,0.0,-7.6275,-7.6275,-7.6275,-7.6275,-7.6275,-7.6275,-7.6275,-7.6275,-7.7615,-7.8702,-7.8702,-8.0042,-8.1128,-8.1128,-8.1128,-8.1128,-8.1128,-8.1128,-8.1128,-8.1128,-8.1128,-8.1128,-8.1128,-8.1128,-8.1128,-8.1128,-8.1128,-8.1128,-8.1128,-8.1128,-8.1128,-8.1128,-8.1128,-8.1128,-8.1128,-8.1128,-8.1128,-8.1128,-8.1128,-8.1128,-8.1128,-8.1128,-8.1128,-8.1128,-8.1128,-8.1128,-8.1201,-8.1998,-8.2287,-8.2468,-8.4098,-8.4678,-8.4823,0.0,0.0,0.0,0.0,0.0,0.0,0.0,0.0,0.0,-4.683,-4.7627,-4.8025,-4.7735,-4.7844,-4.7844,0.0,0.0,0.0,-4.7699,-4.922,-5.0669,-5.2009,-5.2335,-5.2408,-5.2299,-5.1502,-5.1538,-5.248,-5.1538,-5.1719,-5.2987,-5.5848,-5.6899,-5.6536,-5.9216,-5.8746,-5.6029,-5.6283,-5.5486,-5.4037,-5.3494,-5.2625,-5.1538,-5.051,-4.9112,-4.7699,-4.7699,-4.7699,-4.7735,-4.7859,0.0,0.0,0.0,0.0,-5.1212,-5.5993,-5.8347,0.0,0.0,0.0,-7.211,-7.5442,-7.6275,0.0,-7.6275,-7.6275,-7.6275,-7.6275,-7.6275,-7.6348,-7.6456,-7.7724,-7.8738,-7.8883,-8.0151,-8.1128,-8.1128,-8.1128,-8.1128,-8.1128,-8.1128,-8.1128,-8.1128,-8.1128,-8.1128,-8.1128,-8.1128,-8.1128,-8.1128,-8.1128,-8.1128,-8.1128,-8.1128,-8.1128,-8.1128,-8.1128,-8.1128,-8.1128,-8.1128,-8.1128,-8.1128,-8.1128,-8.1128,-8.1128,-8.1128,-8.1128,-8.1128,-8.1128,-8.1201,-8.1382,-8.2179,-8.2577,-8.2867,-8.4352,-8.4895,-8.5004,0.0,0.0,0.0,0.0,0.0,0.0,0.0,0.0,0.0,0.0,-4.9293,-4.9257,-4.7844,-4.8294,-4.8438,-4.7751,-4.7699,-4.7699,-4.7699,0.0,0.0,-5.0401,-5.1756,-5.2154,-5.1466,-5.0669,-5.1017,-5.248,-5.1017,-5.1719,-5.4617,-5.6391,-5.7514,-5.8094,-5.8528,-5.7695,-5.5848,-5.3929,-5.219,-5.0778,-5.1357,-5.0307,-4.846,-4.9655,-4.9112,-4.7699,-4.7699,-4.7699,-4.7808,-4.8511,-4.8728,0.0,0.0,0.0,-5.1393,-5.2878,-5.5776,0.0,0.0,0.0,-7.1458,0.0,-7.6275,-7.6275,0.0,0.0,-7.6275,-7.6275,-7.6275,-7.6492,-7.7217,-7.8086,-7.8919,-7.9643,-8.0513,-8.1128,-8.1128,-8.1128,-8.1128,-8.1128,-8.1128,-8.1128,-8.1128,-8.1128,-8.1128,-8.1128,-8.1128,-8.1128,-8.1128,-8.1128,-8.1128,-8.1128,-8.1128,-8.1128,-8.1128,-8.1128,-8.1128,-8.1128,-8.1128,-8.1128,-8.1128,-8.1128,-8.1128,-8.1128,-8.1128,-8.1128,-8.1128,-8.1128,-8.1527,-8.2215,-8.3012,-8.3772,-8.4497,-8.5402,-8.5728,-8.5764,0.0,0.0,0.0,0.0,0.0,0.0,0.0,0.0,0.0,0.0,0.0,-4.9329,-4.9075,-4.8568,-4.8257,-4.8366,-4.7968,-4.7895,-4.833,-4.9039,-4.9619,-5.0075,-5.08,-5.0995,-5.0655,-4.9836,-5.0234,-5.1828,-5.0669,-5.196,-5.5522,-5.621,-5.6971,-5.7695,-5.7261,-5.6174,-5.4581,-5.2625,-5.1393,-5.0728,-5.0162,-5.1176,-5.2697,-4.9836,-5.0017,-5.1393,-4.8677,-4.7699,-4.7844,-4.8619,-4.8909,-4.9162,-5.0778,0.0,0.0,0.0,-5.4037,-5.6754,-6.1208,-6.6315,-7.135,0.0,-7.6275,-7.6275,-7.6275,-7.6275,-7.6275,-7.6275,-7.6275,-7.642,-7.6746,-7.7833,-7.881,-7.9173,-8.0295,-8.1128,-8.1128,-8.1128,-8.1128,-8.1128,-8.1128,-8.1128,-8.1128,-8.1128,-8.1128,-8.1128,-8.1128,-8.1128,-8.1128,-8.1128,-8.1128,-8.1128,-8.1128,-8.1128,-8.1128,-8.1128,-8.1128,-8.1128,-8.1128,-8.1128,-8.1128,-8.1128,-8.1128,-8.1128,-8.1128,-8.1128,-8.1128,-8.1599,-8.1961,-8.2396,-8.3664,-8.4388,-8.4786,-8.5583,-8.5909,-8.5909,0.0,0.0,0.0,0.0,0.0,0.0,0.0,0.0,0.0,0.0,0.0,-4.98,-4.98,0.0,0.0,0.0,-4.8149,-4.788,-4.8257,-4.8475,-4.8786,-4.9148,-4.9785,-4.993,-4.9474,-4.8713,-4.9075,-5.0669,-4.9872,-5.1719,-5.5993,-5.621,-5.6935,-5.8058,-5.6826,-5.5558,-5.4146,-5.2154,-5.1393,-5.1538,-5.0741,-5.2915,-5.6247,-5.2697,-5.3566,-5.6066,-5.1285,-4.9546,-4.951,-4.9293,-4.922,-4.951,-5.1104,-5.1611,0.0,0.0,0.0,-5.4907,0.0,0.0,0.0,-7.3595,-7.4935,-7.5297,0.0,0.0,-7.6275,-7.6275,-7.6275,-7.6275,-7.6275,-7.7615,-7.8774,-7.8955,-8.0187,-8.1128,-8.1128,-8.1128,-8.1128,-8.1128,-8.1128,-8.1128,-8.1128,-8.1128,-8.1128,-8.1128,-8.1128,-8.1128,-8.1128,-8.1128,-8.1128,-8.1128,-8.1128,-8.1128,-8.1128,-8.1128,-8.1128,-8.1128,-8.1128,-8.1128,-8.1128,-8.1128,-8.1128,-8.1128,-8.1128,-8.1128,-8.1165,-8.1961,-8.2396,-8.2722,-8.4135,-8.4823,-8.5076,-8.5692,-8.5909,-8.5909,0.0,0.0,0.0,0.0,0.0,0.0,0.0,0.0,0.0,0.0,0.0,-5.1466,-4.9199,-4.9582,-4.9691,-4.8945,-4.8149,-4.7409,-4.6685,-4.7337,-4.7446,-4.6721,-4.8858,0.0,-4.788,-4.7047,-4.7409,-4.9018,-4.8242,-5.0633,-5.6029,-5.679,-5.8383,-6.052,-5.8166,-5.6681,-5.5667,-5.2589,-5.1719,-5.2552,-5.4001,-5.4762,-5.5486,-5.9661,-6.1399,-6.1,-5.6247,-5.4544,-5.4074,-5.1031,-5.0039,-5.0307,-5.1937,-5.2444,-5.2444,0.0,0.0,0.0,0.0,0.0,0.0,0.0,0.0,0.0,0.0,0.0,-7.6275,-7.6275,-7.6275,-7.6275,-7.6275,-7.7615,-7.8955,-7.9716,-8.0549,-8.1128,-8.1128,-8.1128,-8.1128,-8.1128,-8.1128,-8.1128,-8.1128,-8.1128,-8.1128,-8.1128,-8.1128,-8.1128,-8.1128,-8.1128,-8.1128,-8.1128,-8.1128,-8.1128,-8.1128,-8.1128,-8.1128,-8.1128,-8.1128,-8.1128,-8.1128,-8.1128,-8.1128,-8.1128,-8.1128,-8.1128,-8.1165,-8.1961,-8.2722,-8.3519,-8.4352,-8.5149,-8.5837,-8.5873,-8.5909,-8.5909,0.0,0.0,0.0,0.0,0.0,0.0,0.0,0.0,0.0,0.0,0.0,0.0,0.0,-5.009,-4.9438,-4.9655,-4.7989,-4.683,-4.654,-4.6287,-4.625,-4.6504,-4.7337,-4.7518,-4.6939,-4.6649,-4.6794,-4.7373,-4.8113,-5.0271,-5.3784,-5.5124,-5.6428,-5.7695,-5.6826,-5.6247,-5.5703,-5.1538,-5.0234,-5.1176,-5.3856,-5.6754,-5.9625,-6.1326,-6.3925,-6.5989,-6.1172,-5.7514,-5.4798,-5.411,-5.2213,-5.0293,-5.1393,-5.2082,-5.248,-5.248,-5.248,-5.3349,0.0,0.0,0.0,0.0,0.0,-7.1205,-7.2834,-7.4826,-7.6275,-7.6275,-7.6275,-7.6275,-7.6275,-7.7615,-7.8774,-7.91,-8.0259,-8.1128,-8.1128,-8.1128,-8.1128,-8.1128,-8.1128,-8.0911,-8.0404,-8.0802,-8.0911,-8.0368,-8.0802,-8.1128,-8.1128,-8.1128,-8.1128,-8.1128,-8.1128,-8.1128,-8.1128,-8.1128,-8.1128,-8.1128,-8.1128,-8.1128,-8.1128,-8.1128,-8.1128,-8.1128,-8.1128,-8.1128,-8.1201,-8.2505,-8.3229,-8.3627,-8.4931,-8.5656,-8.5909,-8.5909,-8.5909,-8.5909,0.0,0.0,0.0,0.0,0.0,0.0,0.0,0.0,-5.1393,-5.1647,0.0,0.0,0.0,0.0,-4.9844,-5.0249,-4.8134,-4.6808,-4.6808,-4.5767,-4.5345,-4.583,-4.661,-4.686,-4.6504,-4.6757,-4.6757,-4.6504,-4.7823,-4.9727,-5.2118,-5.3458,-5.4907,-5.6355,-5.5305,-5.5414,-5.6138,-5.219,-5.114,-5.2431,-5.6174,-5.9108,-6.1534,-6.444,-6.6931,-6.8307,-6.4541,-6.1172,-5.8492,-5.842,-5.667,-5.4423,-5.3856,-5.3132,-5.248,-5.248,-5.248,-5.3059,-5.5703,0.0,0.0,0.0,0.0,-6.8017,-7.1168,-7.3342,-7.5008,-7.6058,-7.6275,-7.6275,-7.6275,-7.7398,-7.8303,-7.8303,-7.9426,-8.0404,-8.0658,-8.0694,-8.0802,-8.1092,-8.1128,-8.0911,-8.0368,-8.0549,-8.0476,-7.9933,-8.0404,0.0,-8.0694,-8.0947,-8.1128,-8.1128,-8.1128,-8.1128,-8.1128,-8.1128,-8.1128,-8.1128,-8.1128,-8.1128,-8.1128,-8.1128,-8.1128,-8.1128,-8.1128,-8.1273,-8.1599,-8.2939,-8.3664,-8.4026,-8.5366,-8.5909,-8.5909,-8.5909,-8.5909,-8.5945,0.0,0.0,0.0,0.0,0.0,0.0,0.0,0.0,-5.1054,-5.0257,0.0,0.0,0.0,0.0,0.0,-5.0659,-4.8678,-4.7459,-4.7385,-4.5835,-4.4795,-4.4602,-4.6795,-4.7571,-4.654,-4.7301,-4.7301,-4.6524,-4.7301,-4.8952,-5.1257,-5.2104,-5.4134,-5.696,-5.3892,-5.4218,-5.6935,-5.4581,-5.4508,-5.6355,-6.1136,-6.1752,-6.0738,-6.9394,-7.0842,-6.8054,-6.6496,-6.5844,-6.5482,-6.3889,-6.3265,-6.2476,-5.9289,-5.5595,-5.248,-5.248,-5.248,-5.248,0.0,0.0,0.0,0.0,0.0,0.0,-7.0589,0.0,-7.2255,-7.5478,-7.6167,-7.6167,-7.6275,-7.6927,-7.747,-7.747,-7.8159,-7.8955,-7.9752,-7.9861,-8.0151,-8.0947,-8.1056,-8.102,-8.102,-8.0332,-7.9861,-7.9825,-7.9861,-7.9897,-7.9897,-8.0658,-8.1128,-8.1128,-8.1128,-8.1128,-8.1128,-8.1128,-8.1128,-8.1128,-8.1128,-8.1128,-8.1128,-8.1128,-8.1128,-8.1128,-8.1128,-8.1599,-8.2396,-8.3157,-8.3953,-8.4786,-8.5583,-8.5909,-8.5909,-8.5909,-8.5909,-8.6018,0.0,0.0,0.0,0.0,0.0,-5.1502,-5.2082,-5.1647,-5.1542,0.0,0.0,0.0,-5.1997,-5.1928,-5.1658,-5.0946,-4.9634,-4.8439,-4.7441,-4.548,-4.4911,-4.6175,-4.6673,-4.7093,-4.7373,-4.7591,-4.7404,-4.6791,-4.7611,-4.8753,0.0,0.0,-5.2718,-5.4141,-5.3611,-5.3856,-5.4508,-5.2118,-5.2697,-5.5486,-5.8492,-6.1426,-6.4504,-6.9828,-7.2726,-7.3957,-7.3486,-7.1132,-6.8156,-6.7685,-6.4033,-5.918,-5.5993,-5.3856,-5.248,-5.248,-5.248,-5.248,-5.248,0.0,0.0,0.0,0.0,0.0,-6.3345,0.0,-6.8307,-7.2038,-7.2834,-7.3523,-7.5877,-7.6456,-7.6637,-7.6637,-7.7796,-7.8774,-7.8992,-7.9028,-7.91,-7.9354,-7.9354,-7.9136,-7.8557,-7.881,-7.8774,0.0,-7.9245,-7.9897,-7.9897,-8.0658,-8.1128,-8.1128,-8.1128,-8.1128,-8.1128,-8.1128,-8.1128,-8.1128,-8.1128,-8.1128,-8.1128,-8.1128,-8.1128,-8.1128,-8.1708,-8.2396,-8.3193,-8.341,-8.3953,-8.4786,-8.5583,-8.5909,-8.5909,-8.5909,-8.6235,-8.667,0.0,0.0,-5.248,-5.248,-5.2371,-5.2404,-5.2672,-5.2563,-5.266,0.0,0.0,0.0,-5.3239,-5.3833,-5.3967,-5.3309,-5.1396,-4.9936,-4.9311,-4.6792,-4.5915,-4.7222,-4.7794,-4.8063,-4.8092,-4.8729,-4.8427,-4.7114,-4.7903,-4.8603,-4.9119,-4.9841,-5.0775,-5.1777,-5.1737,-5.1933,-5.2263,-5.0736,-5.2118,-5.5728,-5.9906,-6.2613,-6.4685,-6.9973,-7.2364,-7.3016,-7.4319,-7.2581,-6.9968,-7.1635,-6.7366,-6.1027,-5.8854,-5.6029,-5.3385,-5.2697,-5.2987,-5.3422,-5.3096,-5.3241,-5.3675,-5.4472,0.0,0.0,-6.2404,0.0,0.0,0.0,-7.3486,-7.4066,-7.5949,-7.6275,-7.6275,-7.6275,-7.7072,-7.7833,-7.8159,-7.8195,-7.8303,-7.8666,-7.8702,-7.8521,-7.805,-7.8122,-7.8014,-7.7543,-7.8376,-7.9209,-7.9861,-8.0658,-8.1128,-8.1128,-8.1128,-8.1128,-8.1128,-8.1128,-8.1128,-8.1128,-8.1128,-8.1128,-8.1128,-8.1128,-8.1273,-8.1635,-8.207,-8.2939,-8.399,-8.399,-8.446,-8.5257,-8.5728,-8.5909,-8.5945,-8.6271,-8.6452,-8.6561,0.0,0.0,-5.2585,-5.2704,-5.3321,-5.375,-5.35,-5.3924,-5.4252,0.0,-5.3987,-5.4303,-5.5229,-5.6376,-5.6908,-5.6498,-5.3423,-5.1611,-5.1764,-4.8805,-4.7333,-4.8054,-4.9403,-4.9801,-4.9011,-5.0378,-4.9991,-4.7716,-4.8383,-4.8569,-4.8212,-4.8207,-4.8867,-4.9974,-4.9336,-4.9559,-5.0378,-5.0547,-5.2813,-5.6853,-6.2844,-6.4194,-6.339,-7.0046,-7.1096,-6.943,-7.2219,-7.24,-7.1784,-7.4863,-7.1603,-6.5989,-6.4468,-6.0303,-5.5522,-5.3385,-5.411,-5.5341,-5.4255,-5.4544,-5.5269,-5.574,-5.5993,0.0,-6.4033,0.0,0.0,0.0,-7.4718,-7.4826,-7.5189,-7.5225,-7.5225,-7.5225,-7.5551,-7.613,-7.7217,-7.7362,-7.7615,-7.834,-7.8448,-7.8448,-7.8448,-7.7796,-7.7362,-7.7362,-7.7543,-7.8303,-7.9825,-8.0658,-8.1128,-8.1128,-8.1128,-8.1128,-8.1128,-8.1128,-8.1128,-8.1128,-8.1128,-8.1128,-8.1128,-8.1201,-8.1635,-8.2324,-8.2468,-8.3374,-8.4714,-8.4786,-8.5257,-8.5909,-8.5909,-8.5909,-8.5982,-8.6634,-8.6525,-8.6199,-5.1969,-5.2501,-5.32,-5.4102,-5.4402,-5.4923,-5.6113,-5.5855,-5.6092,-5.7627,-5.7453,-5.7773,-5.927,-5.796,-5.6892,-5.6815,-5.4128,-5.2019,-5.0976,-4.8671,-4.8056,-4.966,-4.9822,-5.038,-5.1469,-5.1801,-5.1213,-4.9648,-4.9584,-4.9325,-4.8838,-4.8988,-4.9245,-4.9569,-4.9987,-4.9935,-4.9724,-5.2532,-5.5507,-5.8422,-5.9496,-6.2676,-6.7184,-7.048,-7.3378,-7.5732,-7.6348,-7.6782,-7.671,-7.4247,-7.2038,-6.9321,-6.3382,-6.1969,-6.1462,-5.6029,-5.6899,-5.9072,-5.6283,-5.6138,-5.65,-5.5377,-5.6066,0.0,-5.7188,-5.8166,-6.0158,0.0,-6.4794,-6.5591,-6.8199,-6.8633,-6.8633,-6.8633,-7.077,-7.3414,-7.613,-7.6529,-7.6565,-7.6746,-7.6746,0.0,-7.6746,-7.6637,-7.6529,-7.6529,-7.7724,-7.8883,-7.9861,-8.0658,-8.1128,-8.1128,-8.1128,-8.1128,-8.1128,-8.1128,-8.1128,-8.1128,-8.1128,-8.1128,-8.1128,-8.178,-8.2143,-8.236,-8.3664,-8.4388,-8.475,-8.5402,-8.5764,-8.5909,-8.5909,-8.5909,-8.5909,-8.6054,-8.6416,-8.6742,-5.2759,-5.3027,-5.3518,-5.4531,-5.5364,-5.6351,-5.7782,-5.7988,-5.8537,-6.0128,-6.0471,-6.0604,-6.0604,-5.9721,-5.8821,-5.8145,-5.5884,-5.411,-5.3191,-5.0949,-5.0162,-5.1374,-5.1039,-5.1154,-5.1788,-5.1972,-5.1262,-4.9606,-4.9485,-4.8898,-4.7978,-4.8623,-4.9894,-5.1479,-4.9971,-5.0415,-5.2242,-5.148,-5.2995,-5.6291,-6.097,-6.5836,-7.0661,-7.345,-7.5985,-7.8086,-7.8086,-7.8376,-7.8267,-7.5442,-7.2653,-6.9865,-6.704,-6.5048,-6.2947,-5.8528,-5.9216,-6.0701,-5.7478,-5.6899,-5.7116,-5.6754,-5.6609,0.0,0.0,-5.8456,-6.0013,-6.3671,-6.4396,-6.5011,-6.704,-6.7076,-6.6931,-6.7329,-6.972,-7.1639,-7.211,-7.4537,-7.6275,0.0,0.0,0.0,-7.6275,-7.6275,-7.6275,-7.6275,-7.7434,-7.8448,-7.9245,-8.0078,-8.0694,-8.1092,-8.1128,-8.1128,-8.1128,-8.1128,-8.1128,-8.1128,-8.1128,-8.1309,-8.1708,-8.2106,-8.2722,-8.3519,-8.4352,-8.4931,-8.533,-8.5728,-8.5909,-8.5909,-8.5909,-8.5909,-8.5945,-8.6308,-8.6452,-8.6452,-5.3585,-5.3546,-5.3785,-5.4697,-5.6216,-5.7691,-5.8793,-5.9634,-6.0536,-6.1655,-6.282,-6.312,-6.1919,-6.218,-6.2023,-6.0957,-5.9057,-5.7356,-5.6031,-5.417,-5.3294,-5.3719,-5.2715,-5.2394,-5.2899,-5.2265,-5.0879,-4.8833,-4.8783,-4.8007,-4.6599,-4.7794,-4.9791,-5.2282,-5.0556,-5.1501,-5.4172,-5.1122,-5.2003,-5.6095,-6.3846,-6.8429,-7.1096,-7.5044,-7.7072,-7.7905,-7.8847,-7.9173,-7.8847,-7.6782,-7.3486,-7.0263,-6.9973,-6.7764,-6.4432,-6.0339,-6.1281,-6.2766,-5.8746,-5.7985,-5.8311,-5.8202,-5.755,-5.7369,0.0,0.0,0.0,-6.3889,0.0,0.0,0.0,0.0,0.0,0.0,0.0,0.0,0.0,-7.1168,0.0,0.0,0.0,0.0,-7.5442,-7.537,-7.5623,-7.6239,-7.6601,-7.7362,-7.8629,-7.9607,-8.044,-8.1092,-8.1128,-8.1128,-8.1128,-8.1128,-8.1128,-8.1128,-8.1128,-8.1527,-8.2324,-8.2432,-8.3301,-8.4714,-8.4859,-8.5293,-8.5909,-8.5909,-8.5909,-8.5909,-8.5909,-8.5909,-8.5982,-8.6561,-8.6416,-8.5982,-5.4285,-5.4035,-5.4205,-5.5301,-5.6891,-5.8259,-5.9122,-5.9985,-6.0829,-6.1693,-6.3796,-6.5448,-6.6032,-6.6418,-6.6565,-6.6402,-6.483,-6.1921,-5.7496,-5.7323,-5.7432,-5.7471,-5.4617,-5.4747,-5.8315,-5.4129,-5.0713,-4.828,-4.8061,-4.7078,-4.5509,-4.6829,-4.7518,-4.7909,-5.345,-5.409,-5.1328,-5.5756,-6.0295,-6.4575,-6.5464,-6.475,-6.3933,-7.0698,-7.374,-7.5008,-7.9318,-8.0839,-8.0259,-7.6529,-7.4899,-7.3233,-6.6315,-6.8054,-7.0698,-6.0484,-6.3164,-6.7945,-6.1172,-6.0883,-6.1679,-5.8202,-5.8818,-5.9253,-5.5377,0.0,-5.7333,-5.6428,0.0,-5.8094,-5.7478,0.0,0.0,0.0,0.0,0.0,-6.1788,-6.5229,-6.7873,0.0,0.0,0.0,0.0,-7.2038,-7.3233,-7.6094,-7.508,-7.5587,-7.8557,-8.0151,-8.102,-8.1128,-8.1128,-8.1128,-8.1128,-8.1128,-8.1128,-8.1128,-8.1128,-8.1527,-8.2287,-8.3012,-8.3845,-8.475,-8.5438,-8.5801,-8.5909,-8.5909,-8.5909,-8.5909,-8.5909,-8.5909,-8.5909,-8.5982,-8.5982,-8.5909,-5.4409,-5.4285,-5.4495,-5.5425,-5.6194,-5.7245,-5.9027,-6.1656,-6.3571,-6.3909,-6.5298,-6.6199,-6.6049,-6.5753,-6.5945,-6.694,-6.6378,-6.4486,-6.095,-6.0434,-5.929,-5.7211,-5.5035,-5.4378,-5.5453,-5.3123,-5.0836,-4.8653,-4.8555,0.0,0.0,0.0,-4.9787,-5.2608,-5.5566,-5.7794,-5.9241,-5.8805,-5.975,-6.165,-6.2495,-6.2223,-6.2412,-7.2907,-7.7398,-7.834,-8.0368,-8.1128,-8.0839,-7.9173,-7.6094,-7.3016,-7.2907,-7.1132,-6.8343,-6.4577,-6.512,-6.5844,-6.0919,-6.1716,-6.3019,-5.947,-5.9724,-5.9687,-5.5377,-5.4798,-5.5233,-5.5486,0.0,0.0,0.0,0.0,0.0,0.0,-5.9977,0.0,0.0,0.0,-6.6279,0.0,0.0,0.0,0.0,0.0,0.0,0.0,-7.4392,-7.4826,-7.8484,-7.9788,-8.0621,-8.1092,-8.1128,-8.1128,-8.1128,-8.1128,-8.1128,-8.1128,-8.1563,-8.2215,-8.3012,-8.3809,-8.4388,-8.4714,-8.504,-8.5185,-8.5185,-8.5185,-8.5475,-8.5909,-8.5909,-8.5909,-8.5909,-8.5909,-8.5909,-8.5909,-5.4409,-5.4409,-5.4597,-5.518,-5.563,-5.6812,-5.929,-6.1994,-6.4059,-6.4735,-6.5974,-6.6725,-6.6537,-6.6882,-6.7738,-6.9162,-6.9724,-6.8638,-6.5469,-6.4149,-6.2628,-6.0686,-5.7041,-5.5335,-5.5884,-5.3256,-5.0895,-4.8791,-4.8567,-4.7988,0.0,0.0,-5.0527,-5.3975,-5.6728,-6.003,-6.3526,-6.1887,-6.186,-6.3056,-6.378,-6.5011,-6.7257,-7.5478,-7.9643,-8.1128,-8.1128,-8.1128,-8.0984,-8.0078,-7.6674,-7.3342,-7.6348,-7.3269,-6.8525,-6.838,-6.8017,-6.6714,-6.2404,-6.3273,-6.4359,-6.0013,-5.9542,-5.9108,-5.516,-5.4472,-5.4798,-5.5269,-5.5812,0.0,0.0,0.0,-5.6645,0.0,0.0,-5.9796,0.0,0.0,0.0,0.0,0.0,0.0,0.0,0.0,0.0,0.0,0.0,-7.3776,-7.8448,-7.968,-8.0513,-8.1092,-8.1128,-8.1128,-8.1128,-8.1128,-8.1128,-8.1128,-8.1925,-8.2722,-8.3519,-8.4098,-8.4497,-8.4678,-8.446,-8.4497,-8.4678,-8.4678,-8.5149,-8.5909,-8.5909,-8.5909,-8.5909,-8.5909,-8.5909,-8.5909,-5.4409,-5.4409,-5.4409,-5.4446,-5.5761,-5.7676,-6.0191,-5.9966,-6.0379,-6.2857,-6.5298,-6.7363,-6.8919,-7.2246,-7.4707,-7.5552,-7.7106,-7.5962,-7.107,-6.8908,-6.8828,-7.1096,-6.1994,-5.9065,-6.3834,-5.6023,-5.0691,-4.8251,-4.7447,-4.6862,0.0,0.0,0.0,0.0,-5.6515,-5.9785,-5.9061,-6.546,-7.0629,-7.4431,-7.2943,-7.5587,-8.0078,-7.6567,-7.7688,-8.1128,-8.1128,-8.1128,-8.0621,-7.7507,-7.6311,0.0,-7.182,-7.3124,-7.5044,-7.0511,-7.2364,-7.4356,-6.7329,-6.6641,-6.617,-5.9035,-5.7876,-5.7442,-5.3494,-5.4907,-5.6464,-5.4218,-5.679,-5.8746,-5.65,-5.6681,-5.6899,-5.6174,0.0,0.0,0.0,0.0,0.0,0.0,0.0,0.0,0.0,0.0,0.0,0.0,0.0,0.0,-7.8376,-8.0223,-8.1092,-8.1128,-8.1128,-8.1128,-8.1128,-8.1128,-8.1128,-8.1128,-8.1925,-8.2722,-8.3483,-8.3519,-8.3953,-8.4642,-8.3881,-8.3953,-8.4678,-8.4678,-8.5149,-8.5909,-8.5909,-8.5909,-8.5909,-8.5909,-8.5909,-8.5909,-5.518,-5.5648,-5.5685,-5.4597,-5.531,-5.7263,-6.0867,-6.1618,-6.312,-6.6687,-6.7889,-6.9241,-7.1419,-7.3269,-7.5145,-7.7042,-7.8241,-7.7679,-7.4883,-7.2004,-7.0818,-7.1681,-6.3759,-6.0642,-6.3458,-5.8051,-5.3695,-5.0654,-5.0391,-4.9631,0.0,0.0,0.0,0.0,-5.6749,-6.1496,-6.4646,-6.8255,-7.1572,-7.4456,-7.3905,-7.5904,-7.9281,-7.9464,-8.0174,-8.1128,-8.1441,-8.1374,0.0,-7.9861,-7.805,-7.642,-7.7217,-7.5478,-7.3124,-7.3124,-7.3124,-7.2472,-6.9575,-7.106,-7.1639,-6.3889,-6.2983,-6.2223,-5.5595,-5.5305,-5.6029,-5.4762,-5.6355,-5.7768,-5.6935,-5.6573,-5.6319,0.0,0.0,0.0,0.0,0.0,0.0,0.0,0.0,0.0,0.0,0.0,0.0,0.0,0.0,0.0,0.0,-8.0223,-8.1128,-8.1128,-8.1128,-8.1128,-8.1128,-8.1128,-8.1382,-8.1889,-8.2686,-8.3229,-8.3519,-8.4026,-8.3845,-8.312,-8.3374,-8.3627,-8.3953,-8.446,-8.5149,-8.5909,-8.5909,-8.5909,-8.5909,-8.5909,-8.5909,-8.5909,-5.6118,-5.6512,-5.6549,-5.546,-5.6211,-5.8126,-6.1693,-6.3458,-6.5561,-6.8769,-7.0233,-7.1719,-7.3559,-7.5098,-7.6713,-7.859,-7.9529,-7.9041,-7.6788,-7.4648,-7.3484,-7.3484,-6.7739,-6.5336,-6.7025,-6.2106,-5.8051,-5.501,-5.3508,-5.2032,0.0,0.0,0.0,0.0,0.0,-6.1952,-6.7453,-7.0079,-7.3425,-7.6877,-7.6734,-7.7704,0.0,0.0,-8.0964,-7.9968,0.0,-8.1555,-8.1527,-8.1527,-8.0332,-7.9209,-8.1309,-7.91,-7.6022,-7.7289,-7.6565,-7.4899,-7.3016,-7.4356,-7.4645,-6.78,-6.6895,-6.5772,-5.8637,-5.8021,-5.8673,-5.7659,-5.7768,-5.8746,-6.1027,-5.8456,0.0,0.0,0.0,0.0,0.0,-5.5377,0.0,0.0,0.0,0.0,0.0,0.0,0.0,0.0,0.0,0.0,0.0,0.0,-8.1128,-8.1128,-8.1128,-8.1128,-8.1128,-8.1382,-8.178,-8.2324,-8.312,-8.3483,-8.3483,-8.3736,-8.341,-8.2722,-8.2939,-8.3374,-8.3953,-8.4497,-8.5149,-8.5909,-8.5909,-8.5909,-8.5909,-8.5909,-8.5909,-8.5909,-5.7112,-5.7075,-5.715,-5.7263,-5.8427,-6.0229,-6.282,-6.5261,-6.7476,-6.9257,-7.2357,-7.4723,-7.5587,-7.7839,-7.9604,-8.0455,-8.1256,-8.0393,-7.7276,-7.6901,-7.6901,-7.7051,-7.3709,-7.262,-7.4347,-6.7851,-6.3233,-6.0792,-5.6549,-5.3876,0.0,0.0,0.0,0.0,-5.56,0.0,-6.7012,-7.1018,-7.622,-8.1812,-8.1374,-8.1091,-8.1018,-8.1574,-8.0016,-7.7796,-8.0331,-8.1708,-8.2324,-8.2287,-8.2831,-8.3483,-8.3446,-8.3446,-8.3338,-8.2577,-8.236,-8.1491,-7.7651,-7.6601,-7.5442,-7.0729,-6.9497,-6.7981,-6.2476,-6.3019,-6.4251,-6.2657,-6.1172,-6.1969,-6.7764,-6.1969,0.0,0.0,0.0,0.0,0.0,0.0,0.0,0.0,0.0,0.0,0.0,0.0,0.0,0.0,0.0,0.0,0.0,0.0,-8.0911,-8.1092,-8.1128,-8.1128,-8.1128,-8.1889,-8.2287,-8.2324,-8.312,-8.3483,-8.341,-8.265,-8.2686,-8.3374,-8.265,-8.3229,-8.4678,-8.475,-8.5221,-8.5909,-8.5909,-8.5909,-8.5909,-8.5909,-8.5909,-8.5909,-5.7938,-5.929,-6.0942,-6.2181,-6.1205,-6.1506,-6.5261,-6.6875,-6.9166,-7.3258,-7.5624,-7.7727,-7.9792,-8.1106,-8.197,-8.2158,-8.2984,-8.3096,-8.227,-7.9867,-7.9604,-8.2083,-7.6638,-7.461,-7.6901,-6.9863,-6.5223,-6.3345,-5.7938,-5.4525,-5.3048,0.0,0.0,0.0,0.0,-6.0336,-6.6677,-7.066,-7.6226,-8.2429,-8.2647,-8.1234,-7.9234,0.0,-8.0016,-7.7937,-8.1294,-8.2827,-8.3084,-8.2468,-8.2831,-8.3374,-8.2794,-8.3012,-8.3446,-8.3229,-8.3193,-8.2831,-8.1201,-8.073,-7.9752,-7.5515,-7.3595,-7.1712,-6.7909,-6.7981,-6.838,-6.6786,-6.751,-6.751,-6.4432,-6.2005,-5.9434,0.0,0.0,0.0,0.0,0.0,0.0,-5.7876,0.0,0.0,0.0,0.0,0.0,0.0,0.0,0.0,0.0,0.0,0.0,-8.102,-8.1128,-8.1128,-8.1128,-8.1889,-8.2287,-8.2324,-8.312,-8.3193,-8.2577,-8.236,-8.2396,-8.2613,-8.3012,-8.3772,-8.475,-8.533,-8.5692,-8.5909,-8.5909,-8.5909,-8.5909,-8.5909,-8.5909,-8.5909,-5.9891,-6.1693,-6.3834,-6.5168,-6.5411,-6.6237,-6.8565,-6.9316,-7.1006,-7.4873,-7.7164,-7.8966,-8.0355,-8.2233,-8.3359,-8.3359,-8.381,-8.3472,-8.2007,-8.1519,-8.1482,-8.1895,-7.9754,-7.9191,-8.0581,-7.5061,-7.063,-6.7513,-6.2069,-5.7826,-5.4784,0.0,0.0,0.0,0.0,-6.0354,-6.5309,-7.18,-7.6618,-7.9998,-8.1686,-8.124,0.0,-8.0966,-8.0721,-7.986,-8.1954,-8.2829,-8.2903,-8.2432,-8.2831,-8.3483,-8.3374,-8.3664,-8.4026,-8.4026,-8.4026,-8.3845,-8.3012,-8.2541,-8.178,-7.9462,-7.7977,-7.613,-7.2581,-7.2146,-7.2219,-7.1313,-7.077,-7.0444,-7.0372,-6.5518,-5.9796,0.0,0.0,0.0,0.0,0.0,0.0,0.0,0.0,0.0,0.0,0.0,0.0,0.0,0.0,0.0,0.0,0.0,0.0,-8.0984,-8.044,-8.0549,-8.1599,-8.1382,-8.178,-8.2831,-8.2903,-8.2722,-8.2287,-8.1925,-8.2143,-8.2831,-8.3301,-8.4135,-8.5257,-8.5692,-8.5909,-8.5909,-8.5909,-8.5909,-8.5911,-8.6136,-8.6062,-8.5909,-6.2257,-6.4134,-6.6049,-6.6708,-6.9616,-7.1982,-7.232,-7.2545,-7.3484,-7.5737,-7.8215,-7.9754,-7.9754,-8.2458,-8.426,-8.426,-8.4335,-8.3171,-8.028,-8.2796,-8.3059,-8.0055,-8.2683,-8.4223,-8.411,-8.0693,-7.6638,-7.1869,-6.6687,-6.1581,0.0,0.0,0.0,0.0,0.0,0.0,0.0,-7.3791,-7.7364,-7.7181,-8.0148,-8.1272,-8.1128,-8.1237,-8.1671,-8.2178,-8.2178,-8.2287,-8.2432,-8.236,-8.2831,-8.3591,-8.4207,-8.446,-8.4569,-8.4715,-8.4715,-8.4533,-8.3882,-8.3157,-8.2541,-8.2324,-8.178,-8.0332,-7.671,-7.588,-7.588,-7.588,-7.316,-7.2653,-7.8992,0.0,0.0,0.0,0.0,-5.5196,-5.7261,0.0,0.0,0.0,0.0,0.0,0.0,0.0,0.0,0.0,0.0,0.0,0.0,0.0,0.0,-8.0984,-7.9752,-7.9969,-8.1961,0.0,-8.1165,-8.3012,-8.2505,-8.2215,-8.2106,-8.1527,-8.207,-8.3483,-8.3591,-8.4534,-8.5986,-8.5877,-8.5768,-8.5696,-8.5696,-8.5732,-8.5916,-8.6318,-8.6392,-8.6243,-6.3871,-6.5861,-6.7401,-6.6896,-7.0067,-7.3409,-7.5511,-7.6938,-7.8215,-7.9341,-8.167,-8.3209,-8.3209,-8.4335,-8.5086,-8.5086,-8.5687,-8.5837,-8.5237,-8.5762,-8.5537,-8.4298,-8.4786,-8.4786,-8.411,-8.0168,-7.6338,-7.2695,-6.6387,-6.0755,0.0,0.0,0.0,0.0,0.0,0.0,-7.0375,-7.555,0.0,-8.0403,-8.202,-8.2025,-8.1165,-8.1817,-8.1852,-8.1558,-8.1558,-8.2287,-8.3193,-8.2505,-8.2831,-8.341,-8.2867,-8.3157,-8.3882,-8.4682,-8.4826,-8.4715,-8.4718,-8.4499,-8.3953,-8.2613,-8.2179,-8.1708,-8.0368,-8.0078,-8.0078,-8.0078,-7.9499,-7.8231,-7.5659,0.0,0.0,-5.9361,-5.8565,-6.0303,-6.5229,0.0,0.0,0.0,0.0,0.0,0.0,0.0,0.0,0.0,0.0,0.0,0.0,0.0,0.0,0.0,-8.0839,0.0,0.0,0.0,-8.1418,-8.0549,-8.1708,-8.1925,-8.1346,-8.1853,-8.2613,-8.3519,-8.4207,-8.5264,-8.6427,-8.5734,-8.5113,-8.4492,-8.4492,-8.493,-8.5585,-8.5656,-8.674,-8.8157,-6.7438,-6.8114,-6.9053,-7.0405,-7.3334,-7.6338,-7.8853,-8.0994,-8.2007,-8.1144,-8.2045,-8.2946,-8.3397,-8.4936,-8.5913,-8.5913,-8.6288,-8.6701,-8.7152,-8.6739,-8.6513,-8.6588,-8.6175,-8.5762,-8.5349,-8.3359,-7.9454,-7.3559,-6.9541,-6.3683,-5.6249,0.0,0.0,0.0,0.0,-6.4812,0.0,0.0,0.0,-8.0886,-8.317,-8.3724,-8.3231,-8.3728,-8.3554,-8.3025,-8.2715,-8.281,-8.301,-8.221,-8.221,-8.2502,-8.2538,-8.2829,-8.3337,-8.4209,-8.4428,-8.4464,-8.4937,-8.4719,-8.421,-8.381,-8.3048,-8.2323,-8.1853,-8.1418,-8.1128,-8.1128,-8.1128,-7.9643,-7.479,-7.0009,0.0,-6.3708,-6.1245,-6.1571,-6.7221,0.0,-6.512,0.0,0.0,0.0,0.0,0.0,0.0,0.0,0.0,0.0,0.0,0.0,0.0,0.0,0.0,0.0,0.0,0.0,0.0,-8.1128,-8.1491,-8.1672,-8.1744,-8.2106,-8.2939,-8.4172,-8.4828,-8.5444,-8.5947,-8.5107,-8.4558,-8.4229,-8.4703,-8.5142,-8.5685,-8.7037,-8.8047,-8.8646,-7.078,-7.063,-7.1246,-7.4423,-7.6901,-7.9191,-8.1519,-8.381,-8.4673,-8.2871,-8.2496,-8.2683,-8.3509,-8.55,-8.6776,-8.6776,-8.6926,-8.7302,-8.8015,-8.7415,-8.7264,-8.779,-8.7152,-8.6701,-8.6513,-8.6513,-8.2909,-7.5511,-7.3146,-6.7251,-5.8164,-5.6757,0.0,0.0,0.0,0.0,0.0,0.0,-8.0939,-8.1562,-8.4236,-8.5234,-8.5118,-8.5442,-8.516,-8.4595,-8.4083,-8.3496,-8.2813,-8.2192,-8.1793,-8.1688,-8.2345,-8.2527,-8.2709,-8.3546,-8.3767,-8.3949,-8.475,-8.4641,-8.4351,-8.4682,-8.3846,-8.2828,-8.2432,-8.1743,-8.1128,-8.1128,-8.1128,-7.9643,-7.479,-7.1675,0.0,0.0,-6.4577,-6.4251,0.0,0.0,0.0,0.0,0.0,0.0,0.0,0.0,0.0,0.0,0.0,0.0,0.0,0.0,0.0,0.0,0.0,-7.9933,-8.0984,0.0,-8.0694,-8.178,-8.1491,-8.1672,-8.2324,-8.265,-8.3556,-8.49,-8.5296,-8.539,-8.5156,-8.4665,-8.4264,-8.4092,-8.497,-8.5518,-8.6096,-8.8387,-8.9399,-8.9618,-7.2207,-7.3258,-7.4535,-7.7089,-7.9004,-8.0731,-8.2458,-8.4185,-8.55,-8.5988,-8.5424,-8.5274,-8.6063,-8.7077,-8.7677,-8.7677,-8.8353,-8.8804,-8.8879,-8.8804,-8.8466,-8.7828,-8.7715,-8.7302,-8.6513,-8.6513,-8.4298,-7.9817,-7.5098,-6.9241,-6.2369,-5.9309,0.0,0.0,0.0,0.0,0.0,-7.9879,-8.2036,-8.4754,-8.572,-8.5683,-8.5197,-8.5862,-8.5586,-8.4764,-8.4723,-8.4081,-8.3331,-8.3258,-8.2507,-8.1615,-8.1688,-8.1688,-8.1905,-8.2915,-8.3066,-8.3145,-8.4122,-8.4746,-8.4934,-8.4242,-8.3987,-8.366,-8.2792,-8.1957,-8.1305,-8.1164,-8.1128,-7.9643,-7.479,-7.7108,-7.7181,0.0,0.0,0.0,0.0,0.0,-7.0444,-7.4138,0.0,0.0,0.0,0.0,0.0,0.0,0.0,0.0,0.0,0.0,0.0,-7.7688,0.0,-7.7434,-7.6855,-7.9607,-8.0694,-8.0151,-8.1527,-8.2215,-8.2324,-8.3809,-8.4791,-8.5401,-8.54,-8.5099,-8.4607,-8.5003,-8.4461,-8.3454,-8.4339,-8.5567,-8.6973,-8.8032,-9.0226,-9.2682,-7.7915,-7.7577,-7.8102,-8.1106,-8.1745,-8.2758,-8.5424,-8.6363,-8.7077,-8.7903,-8.7302,-8.7114,-8.7903,-8.8316,-8.8503,-8.8503,-8.8804,-8.9179,-8.9705,-8.9254,-8.9067,-8.9254,-8.8766,-8.8353,-8.8015,-8.7978,-8.5988,-8.1857,-7.6826,-7.1531,-6.5974,-6.4172,-6.5974,-7.0871,0.0,-7.8328,-8.1709,-8.4377,-8.6263,-8.7466,-8.7764,-8.7777,-8.7717,-8.8185,-8.7989,-8.7482,-8.7154,-8.6325,-8.5224,-8.4262,-8.3065,-8.1952,-8.1952,-8.1952,-8.2025,-8.2421,-8.2498,-8.2648,-8.3521,-8.3927,-8.4227,-8.4604,-8.4387,-8.3843,-8.3266,-8.254,-8.1779,-8.1201,-8.1128,-8.0513,-7.8593,-7.7434,-7.6601,-7.5985,0.0,0.0,0.0,0.0,0.0,-7.8521,0.0,-7.3993,0.0,0.0,0.0,0.0,0.0,0.0,0.0,0.0,0.0,-7.3812,0.0,-7.9788,-7.7036,-8.0187,-8.1635,-8.1346,-8.1961,-8.2794,-8.3736,-8.4388,-8.5154,-8.5876,-8.5175,-8.4889,-8.4937,-8.433,-8.3807,-8.345,-8.4791,-8.6013,-8.7265,-8.9601,-9.1582,-9.3213,-8.2158,-8.1181,-8.1332,-8.4899,-8.4636,-8.4861,-8.7715,-8.794,-8.809,-8.8879,-8.8503,-8.8353,-8.8917,-8.8992,-8.8992,-8.8992,-8.8992,-8.9254,-8.9818,-8.933,-8.9254,-8.9818,-8.9292,-8.8992,-8.8992,-8.8992,-8.7565,-8.4636,-7.9905,-7.5549,-7.1606,-6.9804,-7.1757,0.0,-8.0393,-8.2946,-8.4824,-8.7834,-8.9129,-8.9129,-8.9211,-8.9371,-8.9553,-8.9716,-8.9579,-8.9261,-8.886,-8.798,-8.6758,-8.5455,-8.4022,-8.2734,-8.2325,-8.2186,-8.2186,-8.2186,-8.2186,-8.2333,-8.2884,-8.3214,-8.3628,-8.4708,-8.4494,-8.406,-8.3956,-8.3157,-8.2142,-8.1273,-8.1128,-8.1128,-8.1128,-7.834,-7.6746,-7.8992,0.0,0.0,0.0,-7.9535,0.0,-7.968,-7.7833,-7.6275,-7.5551,0.0,0.0,0.0,0.0,0.0,0.0,0.0,0.0,0.0,0.0,0.0,-7.7543,-8.0658,-8.2287,-8.2324,-8.2758,-8.3591,-8.4715,-8.501,-8.5353,-8.5688,-8.5023,-8.4825,-8.4872,-8.3937,-8.3536,-8.3723,-8.5628,-8.6947,-8.8025,-9.0857,-9.2662,-9.378,-8.3434,-8.3359,-8.4073,-8.8203,-8.7565,-8.7039,-8.8729,-8.8316,-8.809,-8.8879,-8.8992,-8.8992,-8.8992,-8.8992,-8.8992,-8.8992,-8.8992,-8.8992,-8.8992,-8.8992,-8.8992,-8.8992,-8.8992,-8.8992,-8.8992,-8.8992,-8.8992,-8.8917,-8.4749,-8.1857,-8.0155,-7.6037,-7.7201,-8.2695,-8.2732,-8.5086,-8.8944,-8.9254,-8.9397,-8.9423,-8.9667,-8.979,-8.979,-8.979,-8.9579,-8.931,-8.9272,-8.8549,-8.7482,-8.6877,-8.5588,-8.4049,-8.2633,-8.2186,-8.2186,-8.2186,-8.2186,-8.2186,-8.2186,-8.281,-8.3551,-8.4152,-8.43,-8.4416,-8.4864,-8.3737,-8.2321,-8.1309,-8.1128,-8.1128,-8.1128,-8.1056,-7.9752,-7.5807,0.0,-7.968,-7.5698,-7.5877,0.0,-7.6348,-7.0082,-6.8561,-7.5587,0.0,0.0,0.0,0.0,0.0,0.0,0.0,0.0,-7.8448,-7.7941,0.0,-7.7507,-8.0658,-8.2287,-8.2287,-8.3881,-8.4678,-8.4715,-8.571,-8.5577,-8.4539,-8.5058,-8.4861,-8.411,-8.411,-8.411,-8.4335,-8.6814,-8.8404,-8.9574,-9.1245,-9.3276,-9.4963,-8.7227,-8.7227,-8.7452,-8.8766,-8.8541,-8.8391,-8.8917,-8.8766,-8.8691,-8.8954,-8.8992,-8.8992,-8.8992,-8.8992,-8.8992,-8.8992,-8.8992,-8.8992,-8.8992,-8.8992,-8.8992,-8.8992,-8.8992,-8.8992,-8.8992,-8.8992,-8.8992,-8.8992,0.0,0.0,-8.2007,-8.1294,-8.3134,-8.7039,-8.7039,-8.7752,-8.9019,-8.9291,-8.9423,-8.9423,-8.9692,-8.9887,-9.0052,-9.0052,-9.0098,-9.019,-9.019,-8.9683,-8.8935,-8.8345,-8.7175,-8.5689,-8.4289,-8.3067,-8.2186,-8.2186,-8.2186,-8.2186,-8.2186,-8.237,-8.2741,-8.331,-8.3795,-8.4095,-8.4101,-8.3629,-8.294,-8.2106,-8.1925,-8.1744,-8.1201,-8.1128,-8.0694,-7.9426,-8.0259,-8.0658,-7.939,-7.9426,-7.9571,-7.9571,-7.7579,-7.7289,0.0,-7.537,0.0,0.0,0.0,0.0,0.0,0.0,0.0,0.0,-7.834,0.0,-7.834,-8.0947,-8.2831,-8.3917,-8.446,-8.4864,-8.5188,-8.5831,-8.5645,-8.4769,-8.4883,-8.4816,-8.4589,-8.4589,-8.5232,-8.6428,-8.7802,-8.9251,-9.0789,-9.2657,-9.3753,-9.4263,-8.8992,-8.8992,-8.8992,-8.8992,-8.8992,-8.8992,-8.8992,-8.8992,-8.8992,-8.8992,-8.8992,-8.8992,-8.8992,-8.8992,-8.8992,-8.8992,-8.8992,-8.8992,-8.8992,-8.8992,-8.8992,-8.8992,-8.8992,-8.8992,-8.8992,-8.8992,0.0,-8.8992,-8.6401,-8.5124,-8.5162,-8.5687,-8.7039,-8.8992,-8.9102,-8.9157,-8.9184,-8.9541,-8.9692,-8.9716,-8.9996,-9.0205,-9.034,-9.034,-9.0465,-9.0593,-9.0593,-9.0362,-8.9944,-8.935,-8.8185,-8.6795,-8.5377,-8.4105,-8.2994,-8.237,-8.2186,-8.2186,-8.2186,-8.2186,-8.2337,-8.2944,-8.3393,-8.3692,-8.3808,-8.3956,-8.3847,-8.3121,-8.2831,-8.2613,-8.2214,-8.1816,-8.1635,-8.1961,-8.1491,-8.1237,-8.1527,-8.1563,-8.1092,-7.9897,0.0,0.0,0.0,-7.8666,-7.7289,0.0,0.0,0.0,0.0,0.0,0.0,-7.5551,-7.9933,-8.1563,-8.0078,-8.2143,-8.37,-8.4714,-8.5154,-8.5474,-8.5687,-8.596,-8.5644,-8.4856,-8.4812,-8.4787,-8.4787,-8.4787,-8.5796,-8.7388,-8.8236,-8.9673,-9.1439,-9.2937,-9.3549,-9.3602,-8.8992,-8.8992,-8.8992,-8.8992,-8.8992,-8.8992,-8.8992,-8.8992,-8.8992,-8.8992,-8.8992,-8.8992,-8.8992,-8.8992,-8.8992,-8.8992,-8.8992,-8.8992,-8.8992,-8.8992,-8.8992,-8.8992,-8.8992,-8.8992,-8.8992,-8.8992,-8.8992,-8.8992,-8.8992,-8.8992,-8.8992,-8.9019,-8.9019,-8.9047,-8.9318,-8.9449,-8.9475,-8.9958,-9.0205,-9.0228,-9.0487,-9.0593,-9.0593,-9.0593,-9.0593,-9.0593,-9.0593,-9.0593,-9.0508,-8.9958,-8.8859,-8.75,-8.6095,-8.5266,-8.4419,-8.2696,-8.2223,-8.226,-8.2223,-8.2186,-8.2337,-8.2904,-8.3056,-8.3281,-8.3948,-8.4572,-8.4864,-8.4314,-8.3846,-8.3628,-8.3774,-8.3012,-8.2613,-8.3374,-8.2251,-8.1527,-8.2251,-8.2396,-8.1237,-7.8267,0.0,0.0,-7.9028,-7.9028,-8.0151,0.0,0.0,0.0,0.0,0.0,-7.5152,-8.1998,-8.2251,-8.236,-8.2396,-8.3917,-8.4751,-8.4861,-8.6061,-8.6426,-8.6078,-8.6124,-8.5661,-8.4833,-8.4833,-8.4894,-8.4932,-8.5007,-8.5994,-8.7511,-8.8398,-8.9892,-9.1621,-9.2436,-9.2916,-9.3077,-8.8992,-8.8992,-8.8992,-8.8992,-8.8992,-8.8992,-8.8992,-8.8992,-8.8992,-8.8992,-8.8992,-8.8992,-8.8992,-8.8992,-8.8992,-8.8992,-8.8992,-8.8992,-8.8992,-8.8992,-8.8992,-8.8992,-8.8992,-8.8992,-8.8992,-8.8992,-8.8992,-8.8992,-8.8992,-8.8992,-8.8992,-8.9211,-8.9318,-8.9318,-8.9566,-8.9692,-8.9716,-9.0052,-9.0205,-9.0228,-9.0487,-9.0593,-9.0593,-9.0593,-9.0593,-9.0593,-9.0593,-9.0593,-9.0585,-9.0618,-8.9994,-8.8985,-8.7742,-8.6802,-8.5694,-8.2973,-8.2627,-8.2994,-8.237,-8.2186,-8.2223,-8.2378,-8.2755,-8.339,-8.4641,-8.5044,-8.5117,-8.497,-8.4791,-8.4464,-8.3919,-8.3484,-8.3265,-8.3446,-8.3157,-8.2976,-8.3193,-8.3193,-8.2903,-8.2143,-8.2251,-8.236,-8.236,-8.236,-8.1418,0.0,0.0,0.0,-7.7796,-7.7253,-7.834,-8.1309,-8.1961,-8.2577,-8.3193,-8.4207,-8.519,-8.6172,-8.6873,-8.6802,-8.6106,-8.6265,-8.5873,-8.5116,-8.5287,-8.5693,-8.6379,-8.7048,-8.7926,-8.8994,-9.0443,-9.1304,-9.1828,-9.2684,-9.3492,-9.3994,-8.8992,-8.8992,-8.8992,-8.8992,-8.8992,-8.8992,-8.8992,-8.8992,-8.8992,-8.8992,-8.8992,-8.8992,-8.8992,-8.8992,-8.8992,-8.8992,-8.8992,-8.8992,-8.8992,-8.8992,-8.8992,-8.8992,-8.8992,-8.8992,-8.8992,-8.8992,-8.9075,-8.9184,-8.9184,-8.9265,-8.9359,-8.9489,-8.9566,-8.9591,-8.9839,-8.9958,-8.9982,-9.0273,-9.0362,-9.0422,-9.053,-9.0593,-9.0593,-9.0593,-9.0593,-9.0593,-9.0593,-9.0593,-9.0627,-9.0745,-9.0262,-8.954,-8.849,-8.7748,-8.6722,-8.3972,-8.3254,-8.3251,-8.2406,-8.2186,-8.2186,-8.2186,-8.2744,-8.3451,-8.4227,-8.4562,-8.4893,-8.5258,-8.5118,-8.4937,-8.4864,-8.4427,-8.4171,-8.4533,-8.3953,-8.3627,-8.399,-8.4026,-8.4026,-8.4026,-8.4026,-8.4026,-8.4026,-8.37,-8.2432,-7.9897,-8.0078,0.0,-7.9064,-7.9861,-8.073,-8.1635,-8.2794,-8.3591,-8.4026,-8.5046,-8.6132,-8.7147,-8.7287,-8.7189,-8.6833,-8.6518,-8.6023,-8.5329,-8.5451,-8.6237,-8.7422,-8.788,-8.9027,-9.0517,-9.1052,-9.1739,-9.2389,-9.2465,-9.3077,-9.3726,-8.8992,-8.8992,-8.8992,-8.8992,-8.8992,-8.8992,-8.8992,-8.8992,-8.8992,-8.8992,-8.8992,-8.8992,-8.8992,-8.8992,-8.8992,-8.8992,-8.8992,-8.8992,-8.8992,-8.8992,-8.8992,-8.8992,-8.8992,-8.8992,-8.8992,-8.9047,-8.9211,-8.9475,-8.9475,-8.9566,-8.979,-8.9839,-8.9839,-8.9863,-9.0159,-9.0273,-9.0273,-9.0508,-9.0593,-9.0593,-9.0593,-9.0593,-9.0593,-9.0593,-9.0593,-9.0593,-9.0593,-9.0593,-9.0593,-9.0593,-9.0257,-8.9697,-8.8929,-8.8377,-8.7576,-8.5172,-8.402,-8.3398,-8.2443,-8.2186,-8.2186,-8.2186,-8.27,-8.3251,-8.3398,-8.3777,-8.4337,-8.5213,-8.5116,-8.5155,-8.5883,-8.5408,-8.497,-8.5005,-8.4426,-8.3882,-8.3809,-8.4353,-8.4679,-8.4533,-8.4497,-8.446,-8.4352,-8.37,-8.2976,-8.2179,-8.2323,-8.2396,-8.2324,-8.2613,-8.2758,-8.2722,-8.4027,-8.4862,-8.5045,-8.6206,-8.711,-8.7762,-8.7548,-8.7461,-8.7503,-8.6649,-8.5977,-8.5511,-8.5664,-8.6696,-8.8301,-8.853,-8.9829,-9.1586,-9.1281,-9.1816,-9.2656,-9.2198,-9.2542,-9.3306,-8.8992,-8.8992,-8.8992,-8.8992,-8.8992,-8.8992,-8.8992,-8.8992,-8.8992,-8.8992,-8.8992,-8.8992,-8.8992,-8.8992,-8.8992,-8.8992,-8.8992,-8.8992,-8.8992,-8.8992,-8.8992,-8.8992,-8.8992,-8.8992,-8.8992,-8.9238,-8.9464,-8.9716,-8.9716,-8.9741,-8.979,-9.0006,-9.0159,-9.0159,-9.0443,-9.053,-9.053,-9.0572,-9.0593,-9.0593,-9.0593,-9.0593,-9.0593,-9.0593,-9.0593,-9.0593,-9.0593,-9.0593,-9.0593,-9.0593,-9.053,-9.0345,-8.9707,-8.9133,-8.8213,-8.5961,-8.487,-8.4095,-8.259,-8.2186,-8.2186,-8.2186,-8.2296,-8.2553,-8.3251,-8.3341,-8.3566,-8.4541,-8.4963,-8.5225,-8.5514,-8.5881,-8.5046,-8.1629,-8.3808,-8.4464,-8.0222,-8.2686,-8.4645,-8.3809,-8.3664,-8.341,-8.2722,-8.2541,-8.2143,-8.1346,-8.235,-8.2784,-8.2324,-8.4024,-8.4896,-8.4573,-8.4828,-8.5446,-8.6528,-8.7276,-8.7551,-8.7453,-8.7575,-8.7293,-8.6589,-8.5942,-8.5586,-8.555,-8.6275,-8.7575,-8.9218,-9.0631,-9.1052,-9.1013,-9.3038,-9.2656,-9.1166,-9.2427,-9.3459,-9.4223,-8.8992,-8.8992,-8.8992,-8.8992,-8.8992,-8.8992,-8.8992,-8.8992,-8.8992,-8.8992,-8.8992,-8.8992,-8.8992,-8.8992,-8.8992,-8.8992,-8.8992,-8.9075,-8.9211,-8.9075,-8.8992,-8.8992,-8.9157,-8.9291,-8.9412,-8.9541,-8.9741,-9.0043,-9.0043,-9.0113,-9.0228,-9.034,-9.0443,-9.0443,-9.053,-9.0593,-9.0593,-9.0593,-9.0593,-9.0593,-9.0593,-9.0593,-9.0593,-9.0593,-9.0593,-9.0593,-9.0593,-9.0593,-9.0593,-9.0593,-9.0593,-9.0551,-9.0257,-8.9763,-8.893,-8.7155,-8.5071,-8.3141,-8.2406,-8.2186,-8.2186,-8.2186,-8.2186,-8.2296,-8.2663,-8.2671,-8.2825,-8.3631,-8.3971,-8.4345,-8.5185,-8.5188,-8.4607,-8.3115,-8.4063,-8.41,-8.1742,-8.3012,-8.4028,-8.3556,-8.323,-8.3048,-8.3121,-8.2933,-8.2888,-8.2997,-8.3464,-8.3864,-8.4129,-8.4824,-8.5373,-8.5737,-8.6058,-8.6515,-8.7084,-8.7525,-8.7754,-8.7769,-8.7245,-8.6861,-8.657,-8.5833,-8.5511,-8.5588,-8.6925,-8.8453,-9.0096,-9.1319,-9.1854,-9.2007,-9.2733,-9.2274,-9.1357,-9.2121,-9.3268,-9.4414,-8.8992,-8.8992,-8.8992,-8.8992,-8.8992,-8.8992,-8.8992,-8.8992,-8.8992,-8.8992,-8.8992,-8.8992,-8.8992,-8.8992,-8.8992,-8.8992,-8.9047,-8.9184,-8.9397,-8.9291,-8.9211,-8.9211,-8.9359,-8.9591,-8.9863,-8.9887,-9.0006,-9.0295,-9.0295,-9.0422,-9.0593,-9.0593,-9.0593,-9.0593,-9.0593,-9.0593,-9.0593,-9.0593,-9.0593,-9.0593,-9.0593,-9.0593,-9.0593,-9.0593,-9.0593,-9.0593,-9.0593,-9.0593,-9.0593,-9.0593,-9.0593,-9.0593,-9.0593,-9.019,-8.9451,-8.8176,-8.54,-8.2633,-8.2288,-8.2186,-8.2186,-8.2186,-8.2186,-8.2186,-8.2186,-8.2154,-8.2271,-8.2794,-8.3017,-8.3461,-8.4564,-8.4419,-8.4018,-8.3654,-8.3768,-8.3515,-8.2281,-8.2829,-8.3447,-8.3554,-8.3148,-8.3249,-8.4188,-8.3878,-8.3999,-8.482,-8.4716,-8.4948,-8.5738,-8.5619,-8.5844,-8.6641,-8.7084,-8.7443,-8.7793,-8.7792,-8.7864,-8.7974,-8.6996,-8.6494,-8.6505,-8.5817,-8.5741,-8.6199,-8.7727,-8.9332,-9.0937,-9.1778,-9.2389,-9.2733,-9.2274,-9.1969,-9.1854,-9.2274,-9.3268,-9.4452,-8.8992,-8.8992,-8.8992,-8.8992,-8.8992,-8.8992,-8.8992,-8.8992,-8.8992,-8.8992,-8.8992,-8.8992,-8.8992,-8.8992,-8.8992,-8.8992,-8.9238,-8.9397,-8.9423,-8.9591,-8.9741,-8.9741,-8.9741,-8.9887,-9.0182,-9.0182,-9.0295,-9.0551,-9.0551,-9.0572,-9.0593,-9.0593,-9.0593,-9.0593,-9.0593,-9.0593,-9.0593,-9.0593,-9.0593,-9.0593,-9.0593,-9.0593,-9.0593,-9.0593,-9.0593,-9.0593,-9.0593,-9.0593,-9.0593,-9.0593,-9.0593,-9.0593,-9.0593,-9.019,-8.9525,-8.8667,-8.639,-8.3847,-8.2564,-8.2186,-8.2186,-8.2186,-8.2186,-8.2186,-8.2186,-8.2055,-8.1989,-8.2227,-8.2681,-8.32,-8.3478,-8.4098,-8.3294,-7.9425,-8.2018,-8.2864,-7.807,-8.0728,-8.3264,-8.364,-8.3667,-8.4139,-8.5512,-8.5021,-8.4896,-8.5682,-8.5646,-8.5735,-8.6061,-8.6675,-8.7188,-8.7512,-8.7378,-8.7917,-8.9141,-8.8444,-8.7961,-8.7725,-8.7087,-8.637,-8.5588,-8.555,-8.639,-8.7957,-8.8835,-9.0173,-9.1778,-9.2656,-9.258,-9.1969,-9.2695,-9.2504,-9.2007,-9.3612,-9.4299,-9.4529,-8.8992,-8.8992,-8.8992,-8.8992,-8.8992,-8.8992,-8.8992,-8.8992,-8.8992,-8.8992,-8.8992,-8.8992,-8.8992,-8.9157,-8.9265,-8.9265,-8.9489,-8.9716,-8.9863,-8.9982,-9.0067,-9.0067,-9.0067,-9.0182,-9.0465,-9.0465,-9.0508,-9.0593,-9.0593,-9.0593,-9.0593,-9.0593,-9.0593,-9.0593,-9.0593,-9.0593,-9.0593,-9.0593,-9.0593,-9.0593,-9.0593,-9.0593,-9.0593,-9.0593,-9.0593,-9.0593,-9.0593,-9.0593,-9.0593,-9.0593,-9.0593,-9.0593,-9.0593,-9.0427,-9.0037,-8.8848,-8.7497,-8.6144,-8.5094,-8.3516,-8.2284,-8.2585,-8.2471,-8.2186,-8.2186,-8.2154,-8.2182,-8.2616,-8.2869,-8.3331,-8.4265,-8.3989,-8.3232,-8.2129,-8.277,-8.2929,-8.1507,-8.2887,-8.4272,-8.4927,-8.5118,-8.5512,-8.6399,-8.6685,-8.7052,-8.7689,-8.7732,-8.786,-8.8091,-8.813,-8.8405,-8.8877,-8.8822,-8.9012,-8.9566,-8.86,-8.8047,-8.7947,-8.6617,-8.5817,-8.555,-8.6619,-8.746,-8.8186,-9.0058,-9.1204,-9.1854,-9.2733,-9.258,-9.1816,-9.216,-9.2083,-9.193,-9.3153,-9.3955,-9.4529,-8.8992,-8.8992,-8.8992,-8.8992,-8.8992,-8.8992,-8.8992,-8.8992,-8.8992,-8.8992,-8.9075,-8.9129,-8.9129,-8.9333,-8.9553,-8.9553,-8.9766,-8.9982,-9.0205,-9.0273,-9.0317,-9.0317,-9.0317,-9.0422,-9.061,-9.0593,-9.0593,-9.0593,-9.0593,-9.0593,-9.0593,-9.0593,-9.0593,-9.0593,-9.0593,-9.0593,-9.0593,-9.0593,-9.0593,-9.0593,-9.0593,-9.0593,-9.0593,-9.0593,-9.0593,-9.0593,-9.0593,-9.0593,-9.0593,-9.0593,-9.0593,-9.0593,-9.0593,-9.0593,-9.0415,-8.9421,-8.8556,-8.7799,-8.7412,-8.5452,-8.3564,-8.3645,-8.3039,-8.2497,-8.2678,-8.2961,-8.3157,-8.3272,-8.347,-8.3873,-8.4594,-8.4124,-8.3843,-8.4402,-8.4129,-8.4071,-8.4658,-8.4984,-8.5535,-8.654,-8.6771,-8.7163,-8.8001,-8.8327,-8.8772,-8.9376,-8.905,-8.8941,-8.9141,-8.9076,-8.9272,-8.969,-8.9859,-8.9991,-8.9991,-8.8972,-8.8339,-8.8071,-8.6619,-8.5779,-8.555,-8.7307,-8.8377,-8.9027,-9.1243,-9.2198,-9.2236,-9.2847,-9.2427,-9.1434,-9.1434,-9.1739,-9.2274,-9.2886,-9.3803,-9.4872,-8.8992,-8.8992,-8.8992,-8.8992,-8.8992,-8.8992,-8.8992,-8.8992,-8.8992,-8.8992,-8.9238,-8.9423,-8.9423,-8.9616,-8.979,-8.979,-9.0067,-9.0205,-9.0205,-9.0465,-9.0593,-9.0593,-9.0593,-9.0593,-9.0593,-9.0593,-9.0593,-9.0593,-9.0593,-9.0593,-9.0593,-9.0593,-9.0593,-9.0593,-9.0593,-9.0593,-9.0593,-9.0593,-9.0593,-9.0593,-9.0593,-9.0593,-9.0593,-9.0593,-9.0593,-9.0593,-9.0593,-9.0593,-9.0593,-9.0593,-9.0593,-9.0593,-9.0593,-9.0593,-9.0593,-9.0593,-8.9603,-8.8606,-8.9168,-8.7905,-8.6229,-8.5338,-8.4078,-8.3206,-8.3779,-8.455,-8.4888,-8.4099,-8.455,-8.485,-8.4061,-8.4587,-8.5113,-8.5113,-8.5853,-8.6417,-8.6417,-8.6417,-8.6929,-8.8326,-8.8511,-8.9079,-9.0474,-8.9868,-8.9749,-9.0551,-8.93,-8.8589,-8.8804,-8.9376,-8.9714,-8.9714,-9.0295,-9.0593,-9.0593,-8.9752,-8.8874,-8.8071,-8.7231,-8.6352,-8.5588,-8.7307,-8.9027,-9.0708,-9.2389,-9.3115,-9.3115,-9.3115,-9.2121,-9.0593,-9.0631,-9.1663,-9.3115,-9.3115,-9.4185,-9.5598,-8.8992,-8.8992,-8.8992,-8.8992,-8.8992,-8.8992,-8.8992,-8.9157,-8.9291,-8.9291,-8.9489,-8.9667,-8.9667,-8.9911,-9.009,-9.009,-9.0317,-9.0487,-9.0487,-9.0551,-9.0593,-9.0593,-9.0593,-9.0593,-9.0593,-9.0593,-9.0593,-9.0593,-9.0593,-9.0593,-9.0593,-9.0593,-9.0593,-9.0593,-9.0593,-9.0593,-9.0593,-9.0593,-9.0593,-9.0593,-9.0593,-9.0593,-9.0593,-9.0593,-9.0593,-9.0593,-9.0593,-9.0593,-9.0593,-9.0593,-9.0593,-9.0593,-9.0593,-9.0593,-9.0593,-9.0593,-9.0296,-9.0002,-9.0169,-8.9072,-8.7663,-8.6793,-8.5974,-8.5422,-8.5612,-8.5827,-8.6072,-8.6203,-8.639,-8.6625,-8.6821,-8.6706,-8.6579,-8.6566,-8.6768,-8.7146,-8.7776,-8.8203,-8.8835,-8.9844,-8.998,-9.0073,-9.0317,-9.0257,-9.0257,-9.0317,-9.0083,-9.0014,-9.0037,-9.0235,-9.034,-9.034,-9.0508,-9.0593,-9.0593,-8.9179,-8.8339,-8.8071,-8.6619,-8.639,-8.7384,-8.9065,-9.0784,-9.2427,-9.3535,-9.3688,-9.3115,-9.3115,-9.2121,-9.0746,-9.1892,-9.2656,-9.3191,-9.3803,-9.4681,-9.5598,-8.8992,-8.8992,-8.8992,-8.8992,-8.8992,-8.9047,-8.9157,-8.9318,-8.9449,-8.9515,-8.979,-8.9935,-8.9935,-9.0205,-9.034,-9.034,-9.0508,-9.0593,-9.0593,-9.0593,-9.0593,-9.0593,-9.0593,-9.0593,-9.0593,-9.0593,-9.0593,-9.0593,-9.0593,-9.0593,-9.0593,-9.0593,-9.0593,-9.0593,-9.0593,-9.0593,-9.0593,-9.0593,-9.0593,-9.0593,-9.0593,-9.0593,-9.0593,-9.0593,-9.0593,-9.0593,-9.0593,-9.0593,-9.0593,-9.0593,-9.0593,-9.0593,-9.0593,-9.0593,-9.0593,-9.0593,-9.0593,-9.0593,-9.0593,-8.998,-8.9208,-8.8676,-8.762,-8.6782,-8.7044,-8.7296,-8.7544,-8.7521,-8.7817,-8.8058,-8.8107,-8.8052,-8.8045,-8.8007,-8.8311,-8.8729,-8.9285,-8.9621,-9.002,-9.0555,-9.0593,-9.053,-9.0362,-9.0508,-9.053,-9.0362,-9.0508,-9.0593,-9.0593,-9.0593,-9.0593,-9.0593,-9.0593,-9.0593,-9.0593,-8.9256,-8.8568,-8.8568,-8.7498,-8.7536,-8.8644,-9.0669,-9.216,-9.3153,-9.4032,-9.3917,-9.3077,-9.2733,-9.1816,-9.0746,-9.2083,-9.2809,-9.3229,-9.407,-9.4911,-9.5598,-8.8992,-8.8992,-8.8992,-8.8992,-8.9019,-8.9129,-8.9371,-8.9449,-8.9541,-8.979,-9.009,-9.025,-9.025,-9.0465,-9.0593,-9.0593,-9.0593,-9.0593,-9.0593,-9.0593,-9.0593,-9.0593,-9.0593,-9.0593,-9.0593,-9.0593,-9.0593,-9.0593,-9.0593,-9.0593,-9.0593,-9.0593,-9.0593,-9.0593,-9.0593,-9.0593,-9.0593,-9.0593,-9.0593,-9.0593,-9.0593,-9.0593,-9.0593,-9.0593,-9.0593,-9.0593,-9.0593,-9.0593,-9.0593,-9.0593,-9.0593,-9.0593,-9.0593,-9.0593,-9.0593,-9.0593,-9.0593,-9.0593,-9.0593,-9.0593,-9.0593,-9.0593,-8.9032,-8.7627,-8.8218,-8.8874,-8.9218,-8.8453,-8.8912,-8.9179,-8.8453,-8.8912,-8.9409,-8.9409,-9.0096,-9.0593,-9.0593,-9.0593,-9.0593,-9.0593,-9.0593,-9.0593,-9.0593,-9.0593,-9.0593,-9.0593,-9.0593,-9.0593,-9.0593,-9.0593,-9.0593,-9.0593,-9.0517,-9.0478,-9.0478,-8.9561,-8.9179,-8.9409,-8.9256,-8.9332,-8.96,-9.193,-9.3077,-9.3268,-9.407,-9.3917,-9.3038,-9.216,-9.1319,-9.0708,-9.1586,-9.2389,-9.3229,-9.4146,-9.4987,-9.5598,-8.8992,-8.8992,-8.8992,-8.8992,-8.9184,-8.9345,-8.9397,-8.9741,-9.0067,-9.0113,-9.034,-9.0508,-9.0508,-9.0551,-9.0593,-9.0593,-9.0593,-9.0593,-9.0593,-9.0593,-9.0593,-9.0593,-9.0593,-9.0593,-9.0593,-9.0593,-9.0593,-9.0593,-9.0593,-9.0593,-9.0593,-9.0593,-9.0593,-9.0593,-9.0593,-9.0593,-9.0593,-9.0593,-9.0593,-9.0593,-9.0593,-9.0593,-9.0593,-9.0593,-9.0593,-9.0593,-9.0593,-9.0593,-9.0593,-9.0593,-9.0593,-9.0593,-9.0593,-9.0593,-9.0593,-9.0593,-9.0593,-9.0593,-9.0593,-9.0593,-9.0593,-9.0593,-9.0241,-8.9893,-9.0037,-9.0211,-9.0287,-9.0096,-9.0211,-9.0249,-9.0096,-9.0211,-9.0326,-9.0326,-9.0478,-9.0593,-9.0593,-9.0593,-9.0593,-9.0593,-9.0593,-9.0593,-9.0593,-9.0593,-9.0593,-9.0593,-9.0593,-9.0593,-9.0593,-9.0593,-9.0593,-9.0593,-8.9944,-8.96,-8.96,-8.811,-8.8339,-9.0326,-8.8988,-8.937,-9.1281,-9.1816,-9.2847,-9.4146,-9.4338,-9.3917,-9.3038,-9.216,-9.1319,-9.0746,-9.2236,-9.2924,-9.3268,-9.4796,-9.5446,-9.5598,-8.8992,-8.8992,-8.9047,-8.9184,-8.9318,-8.9501,-8.9741,-9.0006,-9.025,-9.0362,-9.0508,-9.0593,-9.0593,-9.0593,-9.0593,-9.0593,-9.0593,-9.0593,-9.0593,-9.0593,-9.0593,-9.0593,-9.0593,-9.0593,-9.0593,-9.0593,-9.0593,-9.0593,-9.0593,-9.0593,-9.0593,-9.0593,-9.0593,-9.0593,-9.0593,-9.0593,-9.0593,-9.0593,-9.0593,-9.0593,-9.0593,-9.0593,-9.0593,-9.0593,-9.0593,-9.0593,-9.0593,-9.0593,-9.0593,-9.0593,-9.0593,-9.0593,-9.0593,-9.0593,-9.0593,-9.0593,-9.0593,-9.0593,-9.0593,-9.0593,-9.0593,-9.0593,-9.0593,-9.0593,-9.0593,-9.0593,-9.0593,-9.0593,-9.0593,-9.0593,-9.0593,-9.0593,-9.0593,-9.0593,-9.0593,-9.0593,-9.0593,-9.0593,-9.0593,-9.0593,-9.0593,-9.0593,-9.0593,-9.0593,-9.0593,-9.0593,-9.0593,-9.0593,-9.0593,-9.0211,-8.9982,-8.9982,-8.9179,-8.8912,-8.9294,-8.8453,-8.9065,-9.1166,-8.9485,-8.9752,-9.1816,-9.2236,-9.3153,-9.4376,-9.3535,-9.3153,-9.3,-9.1739,-9.1204,-9.1319,-9.2618,-9.3344,-9.3879,-9.514,-9.5598,-9.5598,-8.8992,-8.9047,-8.9157,-8.9371,-8.9501,-8.9667,-9.0137,-9.025,-9.034,-9.0551,-9.0593,-9.0593,-9.0593,-9.0593,-9.0593,-9.0593,-9.0593,-9.0593,-9.0593,-9.0593,-9.0593,-9.0593,-9.0593,-9.0593,-9.0593,-9.0593,-9.0593,-9.0593,-9.0593,-9.0593,-9.0593,-9.0593,-9.0593,-9.0593,-9.0593,-9.0593,-9.0593,-9.0593,-9.0593,-9.0593,-9.0593,-9.0593,-9.0593,-9.0593,-9.0593,-9.0593,-9.0593,-9.0593,-9.0593,-9.0593,-9.0593,-9.0593,-9.0593,-9.0593,-9.0593,-9.0593,-9.0593,-9.0593,-9.0593,-9.0593,-9.0593,-9.0593,-9.0593,-9.0593,-9.0593,-9.0593,-9.0593,-9.0593,-9.0593,-9.0593,-9.0593,-9.0593,-9.0593,-9.0593,-9.0593,-9.0593,-9.0593,-9.0593,-9.0593,-9.0593,-9.0593,-9.0593,-9.0593,-9.0593,-9.0593,-9.0593,-9.0593,-9.0555,-9.0402,-8.9676,-8.9256,-8.9103,-8.8453,-8.8415,-8.9103,-8.9103,-8.9867,-9.1357,-8.9944,-9.0173,-9.1816,-9.2695,-9.3497,-9.4108,-9.2656,-9.2427,-9.2962,-9.1281,-9.109,-9.1892,-9.2771,-9.365,-9.449,-9.5293,-9.5598,-9.5598,-8.8992,-8.9184,-8.9371,-8.9397,-8.9766,-9.0137,-9.0205,-9.0422,-9.0551,-9.061,-9.0593,-9.0593,-9.0593,-9.0593,-9.0593,-9.0593,-9.0593,-9.0593,-9.0593,-9.0593,-9.0593,-9.0593,-9.0593,-9.0593,-9.0593,-9.0593,-9.0593,-9.0593,-9.0593,-9.0593,-9.0593,-9.0593,-9.0593,-9.0593,-9.0593,-9.0593,-9.0593,-9.0593,-9.0593,-9.0593,-9.0593,-9.0593,-9.0593,-9.0593,-9.0593,-9.0593,-9.0593,-9.0593,-9.0593,-9.0593,-9.0593,-9.0593,-9.0593,-9.0593,-9.0593,-9.0593,-9.0593,-9.0593,-9.0593,-9.0593,-9.0593,-9.0593,-9.0593,-9.0593,-9.0593,-9.0593,-9.0593,-9.0593,-9.0593,-9.0593,-9.0593,-9.0593,-9.0593,-9.0593,-9.0593,-9.0593,-9.0593,-9.0593,-9.0593,-9.0593,-9.0593,-9.0593,-9.0593,-9.0593,-9.0593,-9.0593,-9.0593,-9.0287,-8.9523,-8.937,-8.8988,-8.8262,-8.8148,-8.8148,-8.8262,-8.8262,-8.8721,-8.9638,-8.9409,-9.0173,-9.1816,-9.2695,-9.3153,-9.3268,-9.3038,-9.3,-9.2962,-9.1281,-9.109,-9.1892,-9.2771,-9.365,-9.449,-9.5293,-9.5598,-9.5598,-8.9211,-8.9318,-8.9464,-8.979,-9.0029,-9.025,-9.0383,-9.053,-9.0593,-9.0593,-9.0593,-9.0593,-9.0593,-9.0593,-9.0593,-9.0593,-9.0593,-9.0593,-9.0593,-9.0593,-9.0593,-9.0593,-9.0593,-9.0593,-9.0593,-9.0593,-9.0593,-9.0593,-9.0593,-9.0593,-9.0593,-9.0593,-9.0593,-9.0593,-9.0593,-9.0593,-9.0593,-9.0593,-9.0593,-9.0593,-9.0593,-9.0593,-9.0593,-9.0593,-9.0593,-9.0593,-9.0593,-9.0593,-9.0593,-9.0593,-9.0593,-9.0593,-9.0593,-9.0593,-9.0593,-9.0593,-9.0593,-9.0593,-9.0593,-9.0593,-9.0593,-9.0593,-9.0593,-9.0593,-9.0593,-9.0593,-9.0593,-9.0593,-9.0593,-9.0593,-9.0593,-9.0593,-9.0593,-9.0593,-9.0593,-9.0593,-9.0593,-9.0593,-9.0593,-9.0593,-9.0593,-9.0593,-9.0593,-9.0593,-9.0593,-9.0593,-9.0593,-9.044,-9.0058,-8.9141,-8.8683,-8.8759,-8.788,-8.7804,-8.8759,-8.8759,-8.9179,-9.002,-9.0478,-9.109,-9.1816,-9.2198,-9.2924,-9.3764,-9.2809,-9.2924,-9.3688,-9.1969,-9.2045,-9.3306,-9.3688,-9.4338,-9.5102,-9.5484,-9.5598,-9.5598]},{"header":{"parameterUnit":"m.s-1","parameterCategory":1,"la1":30.6,"la2":28.766,"lo1":-90.7593,"lo2":-88.6598,"dx":0.0162,"dy":0.0183,"nx":116,"ny":114,"refTime":"2023-01-10T06:00:00:Z","depth":0,"parameterNumber":3,"parameterNumberName":"V-component_of_WINDS"},"data":[0.0,0.0,0.0,0.0,0.0,0.0,0.0,0.0,0.0,0.0,0.0,0.0,0.0,0.0,0.0,0.0,0.0,0.0,0.0,0.0,0.0,0.0,0.0,0.0,0.0,0.0,0.0,0.0,0.0,0.0,0.0,0.0,0.0,0.0,0.0,0.0,0.0,0.0,0.0,0.0,0.0,0.0,0.0,0.0,0.0,0.0,0.0,0.0,0.0,0.0,0.0,0.0,0.0,0.0,0.0,0.0,0.0,0.0,0.0,0.0,0.0,0.0,0.0,0.0,0.0,0.0,0.0,0.0,0.0,0.0,0.0,0.0,0.0,0.0,0.0,0.0,0.0,0.0,0.0,0.0,0.0,0.0,0.0,0.0,0.0,0.0,0.0,0.0,0.0,0.0,0.0,0.0,0.0,0.0,0.0,0.0,0.0,0.0,0.0,0.0,0.0,0.0,0.0,0.0,0.0,0.0,0.0,0.0,0.0,0.0,0.0,0.0,0.0,0.0,0.0,0.0,0.0,0.0,0.0,0.0,0.0,0.0,0.0,0.0,0.0,0.0,0.0,0.0,0.0,0.0,0.0,0.0,0.0,0.0,0.0,0.0,0.0,0.0,0.0,0.0,0.0,0.0,0.0,0.0,0.0,0.0,0.0,0.0,0.0,0.0,0.0,0.0,0.0,0.0,0.0,0.0,0.0,0.0,0.0,0.0,0.0,0.0,0.0,0.0,0.0,0.0,0.0,0.0,0.0,0.0,0.0,0.0,0.0,0.0,0.0,0.0,0.0,0.0,0.0,0.0,0.0,0.0,0.0,0.0,0.0,0.0,0.0,0.0,0.0,0.0,0.0,0.0,0.0,0.0,0.0,0.0,0.0,0.0,0.0,0.0,0.0,0.0,0.0,0.0,0.0,0.0,0.0,0.0,0.0,0.0,0.0,0.0,0.0,0.0,0.0,0.0,0.0,0.0,0.0,0.0,0.0,0.0,0.0,0.0,0.0,0.0,0.0,0.0,0.0,0.0,0.0,0.0,0.0,0.0,0.0,0.0,0.0,0.0,0.0,0.0,0.0,0.0,0.0,0.0,0.0,0.0,0.0,0.0,0.0,0.0,0.0,0.0,0.0,0.0,0.0,0.0,0.0,0.0,0.0,0.0,0.0,0.0,0.0,0.0,0.0,0.0,0.0,0.0,0.0,0.0,0.0,0.0,0.0,0.0,0.0,0.0,0.0,0.0,0.0,0.0,0.0,0.0,0.0,0.0,0.0,0.0,0.0,0.0,0.0,0.0,0.0,0.0,0.0,0.0,0.0,0.0,0.0,0.0,0.0,0.0,0.0,0.0,0.0,0.0,0.0,0.0,0.0,0.0,0.0,0.0,0.0,0.0,0.0,0.0,0.0,0.0,0.0,0.0,0.0,0.0,0.0,0.0,0.0,0.0,0.0,0.0,0.0,0.0,0.0,0.0,0.0,0.0,0.0,0.0,0.0,0.0,0.0,0.0,0.0,0.0,0.0,0.0,0.0,0.0,0.0,0.0,0.0,0.0,0.0,0.0,0.0,0.0,0.0,0.0,0.0,0.0,0.0,0.0,0.0,0.0,0.0,0.0,0.0,0.0,0.0,0.0,0.0,0.0,0.0,0.0,0.0,0.0,0.0,0.0,0.0,0.0,0.0,0.0,0.0,0.0,0.0,0.0,0.0,0.0,0.0,0.0,0.0,0.0,0.0,0.0,0.0,0.0,0.0,0.0,0.0,0.0,0.0,0.0,0.0,0.0,0.0,0.0,0.0,0.0,0.0,0.0,0.0,0.0,0.0,0.0,0.0,0.0,0.0,0.0,0.0,0.0,0.0,0.0,0.0,0.0,0.0,0.0,0.0,0.0,0.0,0.0,0.0,0.0,0.0,0.0,0.0,0.0,0.0,0.0,0.0,0.0,0.0,0.0,0.0,0.0,0.0,0.0,0.0,0.0,0.0,0.0,0.0,0.0,0.0,0.0,0.0,0.0,0.0,0.0,0.0,0.0,0.0,0.0,0.0,0.0,0.0,0.0,0.0,0.0,0.0,0.0,0.0,0.0,0.0,0.0,0.0,0.0,0.0,0.0,0.0,0.0,0.0,0.0,0.0,0.0,0.0,0.0,0.0,0.0,0.0,0.0,0.0,0.0,0.0,0.0,0.0,0.0,0.0,0.0,0.0,0.0,0.0,0.0,0.0,0.0,0.0,0.0,0.0,0.0,0.0,0.0,0.0,0.0,0.0,0.0,0.0,0.0,0.0,0.0,0.0,0.0,0.0,0.0,0.0,0.0,0.0,0.0,0.0,0.0,0.0,0.0,0.0,0.0,0.0,0.0,0.0,0.0,0.0,0.0,0.0,0.0,0.0,0.0,0.0,0.0,0.0,0.0,0.0,0.0,0.0,0.0,0.0,0.0,0.0,0.0,0.0,0.0,0.0,0.0,0.0,0.0,0.0,0.0,0.0,0.0,0.0,0.0,0.0,0.0,0.0,0.0,0.0,0.0,0.0,0.0,0.0,0.0,0.0,0.0,0.0,0.0,0.0,0.0,0.0,0.0,0.0,0.0,0.0,0.0,0.0,0.0,0.0,0.0,0.0,0.0,0.0,0.0,0.0,0.0,0.0,0.0,0.0,0.0,0.0,0.0,0.0,0.0,0.0,0.0,0.0,0.0,0.0,0.0,0.0,0.0,0.0,0.0,0.0,0.0,0.0,0.0,0.0,0.0,0.0,0.0,0.0,0.0,0.0,0.0,0.0,0.0,0.0,0.0,0.0,0.0,0.0,0.0,0.0,0.0,0.0,0.0,0.0,0.0,0.0,0.0,0.0,0.0,0.0,0.0,0.0,0.0,0.0,0.0,0.0,0.0,0.0,0.0,0.0,0.0,0.0,0.0,0.0,0.0,0.0,0.0,0.0,0.0,0.0,0.0,0.0,0.0,0.0,0.0,0.0,0.0,0.0,0.0,0.0,0.0,0.0,0.0,0.0,0.0,0.0,0.0,0.0,0.0,0.0,0.0,0.0,0.0,0.0,0.0,0.0,0.0,0.0,0.0,0.0,0.0,0.0,0.0,0.0,0.0,0.0,0.0,0.0,0.0,0.0,0.0,0.0,0.0,0.0,0.0,0.0,0.0,0.0,0.0,0.0,0.0,0.0,0.0,0.0,0.0,0.0,0.0,0.0,0.0,0.0,0.0,0.0,0.0,0.0,0.0,0.0,0.0,0.0,0.0,0.0,0.0,0.0,0.0,0.0,0.0,0.0,0.0,0.0,0.0,0.0,0.0,0.0,0.0,0.0,0.0,0.0,0.0,0.0,0.0,0.0,0.0,0.0,0.0,0.0,0.0,0.0,0.0,0.0,0.0,0.0,0.0,0.0,0.0,0.0,0.0,0.0,0.0,0.0,0.0,0.0,0.0,0.0,0.0,0.0,0.0,0.0,0.0,0.0,0.0,0.0,0.0,0.0,0.0,0.0,0.0,0.0,0.0,0.0,0.0,0.0,0.0,0.0,0.0,0.0,0.0,0.0,0.0,0.0,0.0,0.0,0.0,0.0,0.0,0.0,0.0,0.0,0.0,0.0,0.0,0.0,0.0,0.0,0.0,0.0,0.0,0.0,0.0,0.0,0.0,0.0,0.0,0.0,0.0,0.0,0.0,0.0,0.0,0.0,0.0,0.0,0.0,0.0,0.0,0.0,0.0,0.0,0.0,0.0,0.0,0.0,0.0,0.0,0.0,0.0,0.0,0.0,0.0,0.0,0.0,0.0,0.0,0.0,0.0,0.0,0.0,0.0,0.0,0.0,0.0,0.0,0.0,0.0,0.0,0.0,0.0,0.0,0.0,0.0,0.0,0.0,0.0,0.0,0.0,0.0,0.0,0.0,0.0,0.0,0.0,0.0,0.0,0.0,0.0,0.0,0.0,0.0,0.0,0.0,0.0,0.0,0.0,0.0,0.0,0.0,0.0,0.0,0.0,0.0,0.0,0.0,0.0,0.0,0.0,0.0,0.0,0.0,0.0,0.0,0.0,0.0,0.0,0.0,0.0,0.0,0.0,0.0,0.0,0.0,0.0,0.0,0.0,0.0,0.0,0.0,0.0,0.0,0.0,0.0,0.0,0.0,0.0,0.0,0.0,0.0,0.0,0.0,0.0,0.0,0.0,0.0,0.0,0.0,0.0,0.0,0.0,0.0,0.0,0.0,0.0,0.0,0.0,0.0,0.0,0.0,0.0,0.0,0.0,0.0,0.0,0.0,0.0,0.0,0.0,0.0,0.0,0.0,0.0,0.0,0.0,0.0,0.0,0.0,0.0,0.0,0.0,0.0,0.0,0.0,0.0,0.0,0.0,0.0,0.0,0.0,0.0,0.0,0.0,0.0,0.0,0.0,0.0,0.0,0.0,0.0,0.0,0.0,0.0,0.0,0.0,0.0,0.0,0.0,0.0,0.0,0.0,0.0,0.0,0.0,0.0,0.0,0.0,0.0,0.0,0.0,0.0,0.0,0.0,0.0,0.0,0.0,0.0,0.0,0.0,0.0,0.0,0.0,0.0,0.0,0.0,0.0,0.0,0.0,0.0,0.0,0.0,0.0,0.0,0.0,0.0,0.0,0.0,0.0,0.0,0.0,0.0,0.0,0.0,0.0,0.0,0.0,0.0,0.0,0.0,0.0,0.0,0.0,0.0,0.0,0.0,0.0,0.0,0.0,0.0,0.0,0.0,0.0,0.0,0.0,0.0,0.0,0.0,0.0,0.0,0.0,0.0,0.0,0.0,0.0,0.0,0.0,0.0,0.0,0.0,0.0,0.0,0.0,0.0,0.0,0.0,0.0,0.0,0.0,0.0,0.0,0.0,0.0,0.0,0.0,0.0,0.0,0.0,0.0,0.0,0.0,0.0,0.0,0.0,0.0,0.0,0.0,0.0,0.0,0.0,0.0,0.0,0.0,0.0,0.0,0.0,0.0,0.0,0.0,0.0,0.0,0.0,0.0,0.0,0.0,0.0,0.0,0.0,0.0,0.0,0.0,0.0,0.0,0.0,0.0,0.0,0.0,0.0,0.0,0.0,0.0,0.0,0.0,0.0,0.0,0.0,0.0,0.0,0.0,0.0,0.0,0.0,0.0,0.0,0.0,0.0,0.0,0.0,0.0,0.0,0.0,0.0,0.0,0.0,0.0,0.0,0.0,0.0,0.0,0.0,0.0,0.0,0.0,0.0,0.0,0.0,0.0,0.0,0.0,0.0,0.0,0.0,0.0,0.0,0.0,0.0,0.0,0.0,0.0,0.0,0.0,0.0,0.0,0.0,0.0,0.0,0.0,0.0,0.0,0.0,0.0,0.0,0.0,0.0,0.0,0.0,0.0,0.0,0.0,0.0,0.0,0.0,0.0,0.0,0.0,0.0,0.0,0.0,0.0,0.0,0.0,0.0,0.0,0.0,0.0,0.0,0.0,0.0,0.0,0.0,0.0,0.0,0.0,0.0,0.0,0.0,0.0,0.0,0.0,0.0,0.0,0.0,0.0,0.0,0.0,0.0,0.0,0.0,0.0,0.0,0.0,0.0,0.0,0.0,0.0,0.0,0.0,0.0,0.0,0.0,0.0,0.0,0.0,0.0,0.0,0.0,0.0,0.0,0.0,0.0,0.0,0.0,0.0,0.0,0.0,0.0,0.0,0.0,0.0,0.0,0.0,0.0,0.0,0.0,0.0,0.0,0.0,0.0,0.0,0.0,0.0,0.0,0.0,0.0,0.0,0.0,0.0,0.0,0.0,0.0,0.0,0.0,0.0,0.0,0.0,0.0,0.0,0.0,0.0,0.0,0.0,0.0,0.0,0.0,0.0,0.0,0.0,0.0,0.0,0.0,0.0,0.0,0.0,0.0,0.0,0.0,0.0,0.0,0.0,0.0,0.0,0.0,0.0,0.0,0.0,0.0,0.0,0.0,0.0,0.0,0.0,0.0,0.0,0.0,0.0,0.0,0.0,0.0,0.0,0.0,0.0,0.0,0.0,0.0,0.0,0.0,0.0,0.0,0.0,0.0,0.0,0.0,0.0,0.0,0.0,0.0,0.0,0.0,0.0,0.0,0.0,0.0,0.0,0.0,-2.075,-1.9789,0.0,0.0,0.0,0.0,0.0,0.0,0.0,0.0,0.0,0.0,0.0,0.0,0.0,0.0,0.0,0.0,0.0,0.0,0.0,0.0,0.0,0.0,0.0,0.0,0.0,0.0,0.0,0.0,0.0,0.0,0.0,0.0,0.0,0.0,0.0,0.0,-1.2998,-1.3652,-1.3836,-1.4433,-1.5342,-1.4393,-1.3838,-1.3638,0.0,0.0,0.0,0.0,0.0,0.0,0.0,0.0,0.0,0.0,0.0,0.0,0.0,0.0,0.0,0.0,0.0,0.0,0.0,0.0,0.0,0.0,0.0,0.0,0.0,0.0,0.0,0.0,0.0,0.0,0.0,0.0,0.0,0.0,0.0,0.0,0.0,0.0,0.0,0.0,0.0,0.0,0.0,0.0,0.0,0.0,0.0,0.0,0.0,0.0,0.0,0.0,0.0,0.0,0.0,0.0,0.0,0.0,0.0,0.0,0.0,0.0,0.0,0.0,0.0,0.0,0.0,0.0,0.0,0.0,-2.192,-2.1203,0.0,0.0,0.0,0.0,0.0,0.0,0.0,0.0,0.0,0.0,0.0,0.0,0.0,0.0,0.0,0.0,0.0,0.0,0.0,0.0,0.0,0.0,0.0,-1.2102,-1.2273,-1.2332,-1.258,-1.2706,0.0,0.0,0.0,0.0,0.0,0.0,0.0,0.0,-1.3761,-1.4699,-1.4929,-1.5536,-1.6559,-1.6419,-1.6232,-1.5993,-1.5329,0.0,0.0,0.0,0.0,0.0,0.0,0.0,0.0,0.0,0.0,0.0,0.0,0.0,0.0,0.0,0.0,0.0,0.0,0.0,0.0,0.0,0.0,0.0,0.0,0.0,0.0,0.0,0.0,0.0,0.0,0.0,0.0,0.0,0.0,0.0,0.0,0.0,0.0,0.0,0.0,0.0,0.0,0.0,0.0,0.0,0.0,0.0,0.0,0.0,0.0,0.0,0.0,0.0,0.0,0.0,0.0,0.0,0.0,0.0,0.0,0.0,0.0,0.0,-2.331,-2.3618,-2.3618,-2.3896,-2.4305,-2.473,-2.3135,-2.2828,-2.334,-2.1964,0.0,0.0,0.0,0.0,0.0,0.0,0.0,0.0,0.0,0.0,0.0,0.0,0.0,0.0,0.0,0.0,0.0,0.0,0.0,0.0,0.0,-1.3111,-1.3418,-1.3697,-1.377,-1.3784,-1.3747,0.0,0.0,0.0,0.0,0.0,0.0,-1.3435,-1.4041,-1.4699,-1.6546,-1.7795,-1.8418,-1.8481,-1.8711,-1.9117,-1.6898,-1.5891,-1.58,0.0,0.0,0.0,0.0,0.0,0.0,0.0,0.0,0.0,0.0,0.0,0.0,0.0,0.0,0.0,0.0,0.0,0.0,0.0,0.0,0.0,0.0,0.0,0.0,0.0,0.0,0.0,0.0,0.0,0.0,0.0,0.0,0.0,0.0,0.0,0.0,0.0,0.0,0.0,0.0,0.0,-2.0281,-2.0442,0.0,0.0,0.0,0.0,0.0,0.0,0.0,0.0,0.0,0.0,0.0,0.0,0.0,-2.2345,-2.3208,-2.3632,-2.4115,-2.4753,-2.533,-2.5637,-2.5637,-2.5681,-2.574,-2.5813,-2.5549,0.0,-2.4826,-2.4262,0.0,0.0,0.0,0.0,0.0,0.0,0.0,0.0,0.0,0.0,0.0,0.0,0.0,0.0,0.0,0.0,0.0,0.0,0.0,0.0,0.0,-1.4374,-1.4839,-1.5555,-1.5632,-1.5431,-1.4938,-1.4605,0.0,0.0,0.0,0.0,-1.3107,-1.3889,-1.5017,-1.6525,-1.8021,-1.8874,-1.9122,-1.9201,-1.9312,-1.9511,-1.8442,-1.7718,-1.7281,-1.6661,0.0,0.0,0.0,0.0,0.0,0.0,0.0,0.0,0.0,0.0,0.0,0.0,0.0,0.0,0.0,0.0,0.0,0.0,0.0,0.0,0.0,0.0,0.0,0.0,0.0,0.0,0.0,0.0,0.0,0.0,0.0,0.0,0.0,0.0,0.0,0.0,0.0,0.0,0.0,-1.9842,-2.0794,-2.0969,-2.0706,-2.0457,0.0,0.0,0.0,0.0,0.0,0.0,0.0,0.0,0.0,-2.3501,-2.3706,-2.4174,-2.4949,-2.5461,-2.5857,-2.6149,-2.6793,-2.71,-2.71,-2.71,-2.71,-2.71,-2.71,-2.6837,-2.6339,-2.5271,-2.4232,-2.3252,0.0,0.0,0.0,0.0,-2.2125,-2.2286,0.0,0.0,0.0,0.0,0.0,0.0,0.0,0.0,0.0,0.0,0.0,0.0,-1.5321,-1.585,-1.6454,-1.7296,-1.7384,-1.7041,-1.6221,-1.5562,0.0,0.0,0.0,-1.3112,-1.3428,-1.4643,-1.6223,-1.8036,-1.8978,-1.943,-1.9475,-1.9417,-1.9475,-1.9591,-1.9488,-1.9095,-1.8534,-1.7867,-1.6993,-1.6049,0.0,0.0,0.0,0.0,0.0,0.0,0.0,0.0,0.0,0.0,0.0,0.0,0.0,0.0,0.0,0.0,0.0,0.0,0.0,0.0,0.0,0.0,0.0,0.0,0.0,0.0,0.0,0.0,0.0,0.0,0.0,0.0,0.0,0.0,0.0,0.0,0.0,-2.0516,-2.1364,-2.1452,-2.1379,-2.1233,0.0,0.0,0.0,0.0,0.0,0.0,-2.3032,-2.3779,-2.4554,-2.5286,-2.5549,-2.5944,-2.65,-2.6998,-2.7232,-2.7247,-2.773,-2.7874,-2.7874,-2.7874,-2.7874,-2.7874,-2.7874,-2.7817,-2.7495,-2.6208,-2.533,-2.4774,-2.4276,-2.3793,-2.3413,-2.391,-2.4086,-2.4232,0.0,0.0,0.0,0.0,0.0,0.0,0.0,0.0,0.0,0.0,0.0,-1.535,-1.6668,-1.7604,-1.8321,-1.8657,-1.8701,-1.8419,-1.7711,-1.6378,-1.5291,-1.4685,-1.369,-1.3374,-1.3775,-1.5819,-1.74,-1.845,-1.9065,-1.9533,-1.9751,-1.9533,-1.9707,-2.0213,-1.9649,-1.939,-1.9256,-1.8372,-1.7809,-1.7353,-1.5651,0.0,0.0,0.0,0.0,0.0,0.0,0.0,0.0,0.0,0.0,0.0,0.0,0.0,0.0,0.0,0.0,0.0,0.0,0.0,0.0,0.0,0.0,0.0,0.0,0.0,0.0,0.0,0.0,0.0,0.0,0.0,0.0,0.0,0.0,0.0,0.0,0.0,0.0,-2.2198,-2.2637,0.0,0.0,0.0,0.0,-2.252,-2.3427,-2.4393,-2.5315,-2.5696,-2.6339,-2.7305,-2.7349,-2.751,-2.7771,-2.7815,-2.783,-2.783,-2.7859,-2.7874,-2.7874,-2.7874,-2.7874,-2.7874,-2.7874,-2.7874,-2.7815,-2.751,-2.6617,-2.5476,-2.5447,-2.4862,-2.4145,-2.5081,-2.5432,-2.5579,0.0,0.0,0.0,-1.2775,-1.2833,-1.2936,-1.3272,-1.3404,-1.3697,-1.4423,-1.5467,-1.6579,-1.7662,-1.8695,-1.9502,-2.0007,-1.983,-1.9368,-1.8489,-1.7049,-1.6324,-1.6409,-1.5021,-1.4937,-1.6518,-1.7289,-1.8104,-1.9052,-1.9265,-1.943,-1.9533,-1.943,-1.9533,-1.9707,-1.9488,-1.943,-1.9403,-1.9025,-1.8504,-1.7809,-1.6981,-1.5845,0.0,0.0,0.0,0.0,0.0,0.0,0.0,0.0,0.0,0.0,0.0,0.0,0.0,0.0,0.0,0.0,0.0,0.0,0.0,0.0,0.0,0.0,0.0,0.0,0.0,0.0,0.0,0.0,0.0,0.0,0.0,0.0,0.0,0.0,0.0,0.0,0.0,-2.2813,-2.334,0.0,-2.2974,-2.3881,-2.4496,-2.4496,-2.5593,-2.6413,-2.6764,-2.7086,-2.7422,-2.7773,-2.7788,-2.7832,-2.7874,-2.8078,-2.818,-2.8195,-2.8461,-2.8549,-2.8549,-2.8549,-2.8549,-2.8549,-2.8549,-2.8447,-2.818,-2.8139,-2.7583,-2.6764,-2.6559,-2.6252,-2.6003,-2.6339,-2.6471,-2.6515,0.0,0.0,0.0,-1.295,-1.3097,-1.3243,-1.3462,-1.3857,-1.4423,-1.5069,-1.6463,-1.775,-1.8695,-1.9593,-2.023,-2.0515,-2.0385,-1.9947,-1.9168,-1.7853,-1.7197,-1.7457,-1.6183,0.0,-1.7975,-1.8144,-1.8571,-1.943,-1.943,-1.943,-1.943,-1.943,-1.943,-1.943,-1.943,-1.943,-1.943,-1.943,-1.9025,-1.845,-1.7943,-1.6981,-1.5812,0.0,0.0,0.0,0.0,0.0,0.0,0.0,0.0,0.0,0.0,0.0,0.0,0.0,0.0,0.0,0.0,0.0,0.0,0.0,0.0,0.0,0.0,0.0,0.0,0.0,0.0,0.0,0.0,0.0,0.0,0.0,0.0,0.0,0.0,-2.2637,-2.3398,-2.3281,-2.4042,-2.4481,-2.4262,-2.533,-2.6061,-2.6179,-2.7188,-2.7803,-2.7803,-2.8095,-2.8271,-2.8271,-2.8271,-2.8271,-2.8271,-2.8593,-2.8754,-2.8754,-2.9076,-2.9222,-2.9222,-2.9222,-2.9222,-2.9222,-2.9222,-2.9047,-2.8739,-2.8637,-2.8286,-2.7759,-2.732,-2.7086,-2.6983,-2.6983,-2.7275,-2.7583,0.0,0.0,-1.2628,-1.295,-1.3272,-1.3477,-1.3492,-1.41,-1.4981,-1.6228,-1.7501,-1.8702,-1.9711,-2.0344,-2.0601,-2.0328,-2.0328,-2.0155,-1.9809,-1.8654,-1.7858,-1.7616,0.0,0.0,-1.7939,-1.8332,-1.8798,-1.9386,-1.9386,-1.9444,-1.9399,-1.9399,-1.9399,-1.9399,-1.9399,-1.9444,-1.9386,-1.9386,-1.943,-1.9292,-1.8437,-1.7889,-1.7475,0.0,0.0,0.0,0.0,0.0,0.0,0.0,0.0,0.0,0.0,0.0,0.0,0.0,0.0,0.0,0.0,0.0,0.0,0.0,0.0,0.0,0.0,0.0,0.0,0.0,0.0,0.0,0.0,0.0,0.0,0.0,0.0,0.0,-2.2359,-2.3354,-2.4027,-2.3735,-2.4818,-2.5593,-2.5593,-2.6471,-2.7174,-2.7481,-2.8095,-2.8447,-2.8447,-2.8725,-2.8886,-2.8886,-2.89,-2.89,-2.89,-2.9237,-2.9398,-2.9398,-2.972,-2.9866,-2.9866,-2.9866,-2.9866,-2.9866,-2.9866,-2.969,-2.9369,-2.9047,-2.8739,-2.8403,-2.773,-2.7276,-2.6998,-2.6998,-2.7686,-2.875,-1.2113,-1.2332,-1.2628,-1.295,-1.3082,-1.3228,-1.3462,-1.4238,-1.5101,-1.5906,-1.756,-1.8979,-1.9706,-2.0565,-2.0902,-2.0615,-2.0601,-2.05,-2.0155,-1.8618,-1.7688,-1.7588,0.0,0.0,-1.926,-1.9209,-1.9305,-1.9679,-1.9679,-1.9786,-2.0,-2.0,-2.0,-2.0,-2.0,-1.988,-1.9679,-1.9679,-1.9559,-1.9403,-1.9105,-1.8571,-1.7809,0.0,0.0,0.0,0.0,0.0,0.0,0.0,0.0,0.0,0.0,0.0,0.0,0.0,0.0,0.0,0.0,0.0,0.0,0.0,0.0,0.0,0.0,0.0,0.0,0.0,0.0,0.0,0.0,0.0,0.0,0.0,-2.3866,-2.473,-2.432,-2.4964,-2.5622,-2.6018,-2.6588,-2.6939,-2.6939,-2.7613,-2.8081,-2.8169,-2.8549,-2.8769,-2.8769,-2.8842,-2.8886,-2.8886,-2.912,-2.9237,-2.9237,-2.9573,-2.9734,-2.9734,-2.9903,-2.9866,-2.9866,-2.9866,-2.9866,-2.9866,-2.9866,-2.9807,-2.972,-2.9632,-2.9412,-2.9017,-2.7905,-2.7422,-2.732,-2.7086,-2.7552,-2.8313,-1.2375,-1.2448,-1.2628,-1.295,-1.3126,-1.3316,-1.3653,-1.4516,-1.5469,-1.6565,-1.8028,-1.9293,-2.0088,-2.0683,-2.0845,-2.0558,-2.0544,-2.0386,-2.0088,-1.8954,-1.839,-1.8517,0.0,-1.98,-1.9809,-1.9771,-1.9802,-1.98,-1.992,-2.0067,-2.0167,-2.0167,-2.0167,-2.0167,-2.0167,-2.0134,-1.9987,-1.9987,-1.988,-1.972,-1.9599,-1.9172,-1.8571,-1.8263,-1.7822,-1.7328,-1.6863,-1.6823,-1.6927,-1.6869,0.0,0.0,0.0,0.0,0.0,0.0,0.0,0.0,0.0,0.0,0.0,0.0,0.0,0.0,0.0,0.0,0.0,0.0,0.0,0.0,0.0,0.0,0.0,0.0,-2.5257,-2.6164,-2.6252,-2.6354,-2.6617,-2.713,-2.7364,-2.7583,-2.7847,-2.8212,-2.8491,-2.8622,-2.8798,-2.8886,-2.8886,-2.9017,-2.909,-2.909,-2.9412,-2.9573,-2.9573,-2.991,-3.0152,-3.0071,-3.0203,-3.0261,-3.0261,-3.0261,-3.0261,-3.0261,-3.0261,-3.0188,-3.0152,-3.0152,-2.9881,-2.95,0.0,0.0,0.0,0.0,-2.9148,-2.9392,-1.2848,-1.2701,-1.2628,-1.295,-1.3243,-1.3565,-1.3931,-1.4809,-1.5965,-1.7604,-1.8672,-1.9662,-2.0644,-2.0773,-2.0673,-2.0443,-2.0385,-2.0245,-1.9836,-1.9501,0.0,-1.9696,-1.9709,-1.9777,-1.9805,-2.0078,-2.0137,-1.9947,-2.0201,-2.0347,-2.0388,-2.0388,-2.0361,-2.0273,-2.0273,-2.0247,-2.0281,-2.0281,-2.0207,-2.0153,-1.9947,-1.9679,-1.9386,-1.9092,-1.8971,-1.8905,-1.8424,-1.8293,-1.8249,-1.7833,0.0,0.0,0.0,0.0,0.0,0.0,0.0,0.0,0.0,0.0,0.0,0.0,0.0,0.0,0.0,0.0,0.0,0.0,0.0,0.0,0.0,0.0,0.0,0.0,-2.6486,-2.7349,-2.7844,-2.7539,-2.7305,-2.7598,-2.7642,-2.7861,-2.8432,-2.8491,-2.8608,-2.8871,-2.893,-2.8944,-2.8944,-2.9251,0.0,0.0,0.0,-2.9925,-2.9925,-3.0246,-3.049,-3.049,-3.0685,-3.0817,-3.0817,-3.0817,-3.0817,-3.0817,-3.0817,-3.0656,-3.049,-3.049,-3.0232,-2.9925,-2.9529,-2.9228,-2.9182,-3.1074,-3.1411,-3.1205,-1.2171,-1.2346,-1.2628,-1.295,-1.3067,-1.3301,-1.3887,-1.4809,-1.5965,-1.7604,-1.8672,-1.9769,-2.0943,-2.1089,-2.1089,-2.1031,-2.1031,-2.0671,-1.9818,-1.9737,-1.951,-1.9071,-1.931,-1.9587,-1.9824,-1.9891,-2.0207,-2.0855,-2.0909,-2.1069,-2.136,-2.136,-2.1176,-2.0935,-2.0935,-2.0815,-2.0588,-2.0588,-2.0454,-2.0227,-2.0113,-1.9973,-1.9679,-1.9386,-1.9279,-1.935,-1.9703,-1.9716,-1.9614,-2.0506,-2.0178,-1.947,-2.0045,-1.9779,0.0,0.0,0.0,0.0,0.0,0.0,0.0,0.0,0.0,0.0,0.0,0.0,0.0,0.0,0.0,0.0,0.0,0.0,0.0,-2.6222,-2.7349,-2.8198,-2.833,-2.8447,-2.8549,-2.8608,-2.8622,-2.8666,-2.8798,-2.8798,-2.8827,-2.8886,-2.9134,-2.9281,-2.9281,-2.9588,-2.9764,-2.9764,-3.0167,-3.0343,-3.0343,-3.0568,-3.0729,-3.0729,-3.0803,0.0,-3.0817,-3.0817,-3.0817,-3.0817,-3.0817,-3.0788,-3.0729,-3.0729,-3.07,-3.0554,-2.9705,-2.9487,-2.9625,-3.0268,-3.1051,-3.1992,-1.2492,-1.2492,-1.2672,-1.317,-1.3389,-1.3711,-1.437,-1.4973,-1.5965,-1.7604,-1.8525,-1.9462,-2.0603,-2.072,-2.0589,-2.0267,-2.0073,-1.98,-1.936,-1.9513,-1.9464,-1.9371,-1.9486,-1.9726,-2.0023,-2.0172,-2.049,-2.0895,-2.1042,-2.1189,-2.1336,-2.1514,-2.1447,-2.1109,-2.1299,-2.1155,-2.0895,-2.0895,-2.0802,-2.0655,-2.0508,-2.0374,-2.0201,-1.992,-1.98,-1.9813,-2.0139,-2.0253,-2.0294,-2.0774,-2.0739,-2.0607,-2.1031,-2.0879,-2.0412,0.0,0.0,0.0,0.0,0.0,0.0,0.0,0.0,0.0,0.0,0.0,0.0,0.0,0.0,-2.3896,-2.4876,0.0,-2.672,-2.7364,-2.8139,-2.8666,-2.8666,-2.8798,-2.8886,-2.8886,-2.8886,-2.8886,-2.8886,-2.8886,-2.8959,-2.912,-2.9281,-2.9442,-2.9617,-3.0005,-3.0181,-3.0181,-3.0422,-3.0583,-3.0583,-3.0744,-3.0817,-3.0817,-3.0817,-3.0817,-3.0817,-3.0817,-3.0817,-3.0817,-3.0817,-3.0817,-3.0817,-3.0817,-3.0729,-3.0554,-3.0232,-3.0152,-3.035,-3.0915,-3.1478,-3.2029,-1.2921,-1.276,-1.2819,-1.3477,-1.3755,-1.4121,-1.4798,-1.5119,-1.5849,-1.7428,-1.8189,-1.8921,-1.9716,-1.9862,-1.974,-1.9228,-1.8988,-1.8865,0.0,-1.9192,-1.9448,-1.9693,-1.9707,-1.9928,-2.0283,-2.0468,-2.0672,-2.0842,-2.1082,-2.1189,-2.1189,-2.1443,-2.1416,-2.1109,-2.1362,-2.1362,-2.1109,-2.1109,-2.1109,-2.1082,-2.0855,-2.0762,-2.0735,-2.0561,-2.0414,-2.0321,-2.0382,-2.053,-2.0781,-2.0713,-2.095,-2.1382,-2.1809,-2.1845,-2.1617,-2.1509,-2.1489,0.0,0.0,0.0,0.0,0.0,0.0,0.0,0.0,-2.195,-2.2491,-2.4027,-2.4657,-2.533,-2.6647,-2.7144,-2.7613,-2.8403,-2.8725,-2.8886,-2.8886,-2.8886,-2.8886,-2.8886,-2.8886,-2.8915,-2.8973,-2.8988,-2.912,-2.9442,-2.9529,-2.9676,-2.9939,-3.0261,-3.0437,-3.0437,-3.0685,-3.0817,-3.0817,-3.0817,-3.0817,-3.0817,-3.0817,-3.0817,-3.0817,-3.0817,-3.0817,-3.0817,-3.0759,-3.0773,-3.0817,-3.0685,-3.0568,-3.0548,-3.0822,-3.1022,-3.115,-3.2046,-3.2258,-3.2305,-1.257,-1.2775,-1.3155,-1.3814,-1.3726,-1.3872,-1.4754,-1.4929,-1.5467,-1.6829,-1.753,-1.8072,-1.8482,-1.8774,-1.8921,-1.8847,-1.8836,0.0,-1.9263,-1.9339,-1.939,-1.9417,-1.943,-1.9685,-2.0174,-2.0214,-2.0628,-2.1521,-2.1547,-2.1574,-2.1574,-2.1561,-2.1427,-2.1109,-2.1172,-2.1109,-2.1109,-2.1109,-2.1109,-2.1109,-2.1069,-2.1069,-2.1082,-2.1323,-2.1082,-2.069,-2.0999,-2.11,-2.1182,-2.201,-2.2185,-2.2139,-2.3026,-2.3477,-2.3571,-2.3034,-2.2883,-2.2547,-2.0985,-2.0691,-2.1028,-2.2096,-2.2389,-2.3018,0.0,-2.5432,-2.5432,-2.6764,-2.7525,-2.8008,-2.8183,-2.8476,-2.871,-2.8827,-2.8871,-2.8886,-2.8886,-2.8886,-2.8886,-2.8886,-2.8886,-2.9003,-2.9295,-2.9325,-2.9456,-2.9793,-3.0167,-3.0343,-3.0372,-3.0598,-3.0773,-3.0773,-3.0803,-3.0817,-3.0817,-3.0817,-3.0817,-3.0817,-3.0817,-3.0817,-3.0817,-3.0817,-3.0817,-3.0803,-3.0525,-3.0568,-3.0773,-3.0203,-3.029,-3.0827,-3.1384,-3.1705,-3.2046,-3.3034,-3.3547,-3.4111,-1.3126,-1.3199,-1.3492,-1.415,-1.4188,-1.4253,-1.4812,-1.5061,-1.5555,-1.6492,-1.702,-1.7384,-1.7706,-1.753,-1.729,-1.6947,-1.7576,-1.8088,-1.8291,-1.9007,-1.943,-1.943,-1.943,-1.9559,-1.9973,-2.0147,-2.0494,-2.1105,-2.1216,-2.1296,-2.1296,-2.1487,-2.142,-2.1109,-2.1299,-2.1299,-2.1109,-2.1109,-2.1109,-2.1109,-2.1109,-2.1109,-2.1149,-2.1443,-2.1574,-2.1454,-2.1245,-2.102,0.0,-2.1506,-2.1915,-2.2212,-2.2956,-2.3332,-2.3403,-2.3343,-2.3212,-2.3116,-2.3204,-2.3106,-2.3179,-2.4086,-2.4452,-2.4935,-2.6208,-2.6296,-2.6471,-2.7773,-2.8242,-2.8491,-2.8666,-2.8798,-2.8886,-2.8886,-2.8886,-2.8886,-2.8886,-2.8886,-2.8959,-2.9149,-2.9178,-2.9222,-2.9369,-2.9544,-2.9793,-3.0211,-3.0357,-3.0437,-3.0612,-3.0759,-3.0817,-3.0817,-3.0817,-3.092,-3.111,-3.111,-3.1198,-3.1388,-3.1388,-3.1388,-3.1388,-3.1388,-3.1285,-3.111,-3.1168,-3.1051,-3.0817,-3.0744,-3.0759,-3.09,-3.1647,-3.1677,-3.1565,-3.2952,-3.3594,-3.3904,-1.3653,-1.355,-1.3667,-1.4276,-1.4452,-1.4604,-1.4973,-1.509,-1.5394,-1.6023,-1.6433,-1.6682,-1.687,-1.6448,-1.6009,-1.5739,-1.6681,-1.7392,-1.7699,-1.868,-1.9279,-1.9417,-1.943,-1.9506,-1.9786,-2.0,-2.0294,-2.0681,-2.0882,-2.1029,-2.1109,-2.1362,-2.1362,-2.1109,-2.1362,-2.1362,-2.1109,-2.1109,-2.1109,-2.1109,-2.1109,-2.1109,-2.1149,-2.1443,-2.1601,-2.1598,-2.133,-2.1101,-2.0913,-2.0948,-2.1325,-2.1905,-2.2461,-2.2753,-2.2984,-2.3393,-2.3263,-2.3197,-2.4342,-2.4613,-2.4774,-2.5593,-2.6179,-2.6617,-2.6852,-2.6969,-2.7305,-2.8242,-2.8505,-2.8637,-2.8856,-2.8886,-2.8886,-2.8886,-2.8886,-2.8886,-2.8886,-2.8973,-2.912,-2.9354,-2.9529,-2.9647,-2.9647,-2.9866,-3.0129,-3.0451,-3.0481,-3.0583,-3.0817,-3.0817,-3.0817,-3.0817,-3.092,-3.1066,-3.13,-3.1402,-3.1563,-3.1798,-3.1798,-3.1798,-3.1798,-3.1798,-3.1666,-3.1446,-3.1593,-3.1402,-3.0964,-3.1022,-3.1007,-3.1032,-3.1843,-3.1836,-3.1569,-3.3042,-3.336,-3.3116,-1.3901,-1.3711,-1.3594,-1.3931,-1.4291,-1.4677,-1.5279,-1.4896,-1.4735,-1.5338,-1.5703,-1.595,-1.595,-1.5657,-1.5574,-1.5977,-1.6579,-1.7208,-1.7962,-1.8547,-1.9065,-1.9417,-1.943,-1.9506,-1.9786,-1.9813,-2.0094,-2.0681,-2.0681,-2.0842,-2.1109,-2.1109,-2.1109,-2.1109,-2.1109,-2.1109,-2.1109,-2.1109,-2.1109,-2.1109,-2.1109,-2.1109,-2.1149,-2.1443,-2.1218,-2.0835,-2.1409,-2.1538,-2.1388,-2.0782,-2.0819,-2.119,-2.152,-2.21,-2.2769,-2.3388,-2.3149,-2.2798,-2.3457,-2.4101,-2.4876,-2.6164,-2.7188,-2.7815,-2.783,-2.8078,-2.8311,-2.8355,-2.8666,-2.8871,-2.8886,-2.8886,-2.8886,-2.8886,-2.8886,-2.8886,-2.8886,-2.9164,-2.9369,-2.9383,-2.9939,-3.0401,-3.0401,-3.0416,-3.0466,-3.0788,-3.0803,-3.0817,-3.0817,-3.0817,-3.0817,-3.0817,-3.1139,-3.13,-3.1315,-3.1622,-3.1783,-3.1798,-3.1798,-3.1798,-3.1798,-3.1798,-3.1798,-3.1768,-3.1461,-3.1315,-3.1242,-3.0627,-3.0744,-3.1355,-3.1934,-3.2442,-3.3075,-3.3646,-3.3151,-3.2293,-1.3726,-1.3579,-1.3594,-1.3931,-1.4077,-1.437,-1.4973,-1.5061,-1.5189,-1.5352,-1.5484,0.0,0.0,0.0,0.0,0.0,-1.6053,-1.6773,-1.7106,-1.809,-1.8771,-1.9065,-1.9265,-1.9412,-1.9506,-1.9706,-1.9893,-2.0094,-2.0481,-2.0722,-2.0828,-2.1015,-2.1109,-2.1109,-2.1109,-2.1109,-2.1109,-2.1109,-2.1109,-2.1109,-2.1109,-2.1109,-2.1162,-2.1916,-2.1543,-2.0725,0.0,-2.0924,-2.004,-2.0,-2.0272,-2.07,-2.137,-2.1809,-2.2108,-2.2564,-2.3106,-2.3779,-2.4642,-2.5359,-2.6164,-2.7466,-2.8037,-2.833,-2.852,-2.8666,-2.8739,-2.8739,-2.8651,-2.8593,-2.8593,-2.8593,-2.8593,-2.8593,-2.8754,-2.8886,-2.8886,-2.9164,-2.9456,-2.9676,-3.0167,-3.0437,-3.0642,-3.0671,-3.0715,-3.0817,-3.0817,-3.0817,-3.0817,-3.1037,-3.1154,-3.1154,-3.1461,-3.1739,-3.1959,-3.2061,-3.2222,-3.2441,-3.2441,-3.2441,-3.2441,-3.2441,-3.2324,-3.212,-3.2237,-3.2163,-3.1944,-3.1724,-3.1754,-3.2001,-3.2514,-3.2529,-3.2282,-3.3098,-3.2738,-3.1995,0.0,-1.3653,-1.3638,-1.4115,-1.4188,0.0,0.0,0.0,0.0,0.0,0.0,0.0,0.0,0.0,0.0,0.0,0.0,-1.6197,-1.6563,-1.7368,-1.8076,-1.8528,-1.8691,-1.8784,-1.8891,-1.8971,-1.9158,-1.9492,-1.9867,-2.0214,-2.0521,-2.0708,-2.0855,-2.0949,-2.0949,-2.0949,-2.0962,-2.1069,-2.1109,-2.1096,-2.1115,-2.1074,-2.115,-2.1642,-2.1196,0.0,-2.0656,-2.0074,-1.9152,-1.9184,-1.9531,-2.0051,-2.06,-2.1307,-2.195,-2.2389,-2.3252,-2.4379,-2.5696,-2.6354,-2.6983,-2.8286,-2.8593,-2.8651,-2.8842,-2.8886,-2.8886,-2.8886,-2.8549,-2.818,-2.818,-2.818,-2.8227,-2.811,-2.8534,-2.8886,-2.8886,-2.9266,-2.9676,-3.0079,-3.032,-3.0598,-3.0803,-3.0817,-3.0817,-3.0817,-3.0817,-3.0876,-3.0993,-3.1198,-3.1359,-3.1476,-3.1798,-3.2076,-3.228,-3.2398,-3.2559,-3.2778,-3.2778,-3.2778,-3.2778,-3.2778,-3.2661,-3.2471,-3.2676,-3.2588,-3.228,-3.228,-3.228,-3.2353,-3.2651,-3.255,-3.2221,-3.2692,-3.2476,-3.1957,0.0,0.0,-1.3711,0.0,0.0,0.0,0.0,0.0,0.0,0.0,0.0,0.0,0.0,0.0,0.0,0.0,0.0,0.0,-1.6201,-1.6486,0.0,-1.7889,-1.7716,-1.7702,-1.7955,-1.7729,-1.8009,-1.8878,-1.8891,-1.9332,-2.01,-2.0127,-2.0334,-2.0615,-2.0628,-2.0628,-2.0655,-2.0935,-2.1056,-2.1078,-2.1045,-2.1094,-2.1026,-2.0823,0.0,-1.9633,-1.9402,-1.9098,-1.8745,-1.8452,-1.8818,-1.9403,-1.9462,-2.0764,-2.2403,-2.3018,-2.3691,-2.4642,-2.6515,-2.7056,-2.7378,-2.8593,-2.8886,-2.8886,-2.8886,-2.8886,-2.8886,-2.8856,-2.8344,-2.7815,-2.7786,-2.7801,-2.7803,-2.7525,-2.8286,-2.8915,-2.8944,-2.9486,-2.9998,-3.0401,-3.0627,-3.0817,-3.0817,-3.0803,-3.0817,-3.0846,-3.0846,-3.0978,-3.13,-3.1344,-3.1505,-3.1812,-3.2134,-3.231,-3.231,-3.2617,-3.2778,-3.2778,-3.2778,-3.2778,-3.2778,-3.2778,-3.2778,-3.2778,-3.2778,-3.2602,-3.231,-3.231,-3.231,-3.231,-3.231,-3.25,-3.2734,-3.2427,-3.231,-3.2222,0.0,0.0,0.0,0.0,0.0,0.0,0.0,0.0,0.0,0.0,0.0,0.0,0.0,0.0,0.0,0.0,0.0,0.0,-1.5316,-1.5765,0.0,0.0,0.0,0.0,0.0,0.0,0.0,-1.825,-1.849,-1.8824,-1.9265,-1.9479,-1.9626,-1.9765,-1.992,-2.0027,-2.004,-2.0578,-2.0686,-2.0482,0.0,-2.0652,-2.0472,0.0,0.0,-1.947,-1.9845,-1.9497,-1.8818,-1.8979,-1.9945,-2.1203,-2.1906,-2.2813,-2.372,-2.4379,-2.5359,-2.6413,-2.7159,-2.7861,-2.8476,-2.8812,-2.8886,-2.8886,-2.8886,-2.8886,-2.8754,-2.8286,-2.7686,-2.7086,-2.6603,-2.691,-2.7291,-2.7452,-2.8476,-2.9339,-2.9573,-3.0049,-3.0343,-3.0431,-3.0627,-3.0817,-3.0817,-3.0612,-3.0671,-3.1154,-3.1183,-3.1227,-3.13,-3.1768,-3.2076,-3.2163,-3.2471,-3.2646,-3.2646,-3.2734,-3.2778,-3.2778,-3.2778,-3.2778,-3.2778,-3.2778,-3.2778,-3.2778,-3.2778,-3.2719,-3.2646,-3.2646,-3.2646,-3.2646,-3.2646,-3.269,-3.2763,-3.2676,-3.2646,-3.2588,0.0,0.0,0.0,0.0,0.0,0.0,0.0,0.0,0.0,0.0,0.0,0.0,0.0,0.0,0.0,0.0,0.0,0.0,0.0,-1.507,0.0,0.0,0.0,0.0,0.0,0.0,0.0,0.0,0.0,0.0,-1.8488,-1.8571,-1.8651,-1.8784,-1.8958,-1.9082,-1.9209,-1.9679,0.0,0.0,0.0,0.0,0.0,0.0,0.0,-1.9179,-1.9803,-2.0047,-2.0164,-2.075,-2.1467,-2.2213,-2.2901,-2.3749,-2.4671,-2.5461,-2.6413,-2.7335,-2.7934,-2.8491,-2.8886,-2.8886,-2.8886,-2.8812,-2.8534,-2.8373,-2.8052,-2.7261,-2.6588,-2.5988,-2.5476,-2.6266,-2.6998,-2.7042,-2.8476,-2.9647,-2.9837,-3.0225,-3.0407,-3.0539,-3.0715,-3.0817,-3.0817,-3.0656,-3.0773,-3.1271,-3.1183,-3.1285,-3.171,-3.209,-3.2354,-3.25,-3.2676,-3.2778,-3.2778,-3.2778,-3.2778,-3.2778,-3.2778,-3.2778,-3.2778,-3.2778,-3.2778,-3.2778,-3.2778,-3.2778,-3.2778,-3.2778,-3.2778,-3.2778,-3.2778,-3.2778,-3.2778,-3.2778,-3.2778,-3.2749,0.0,0.0,0.0,0.0,0.0,0.0,0.0,0.0,0.0,0.0,-1.5101,-1.5323,-1.5323,-1.5019,0.0,0.0,0.0,0.0,0.0,0.0,0.0,0.0,0.0,0.0,0.0,0.0,0.0,0.0,0.0,0.0,0.0,0.0,0.0,0.0,0.0,0.0,0.0,0.0,0.0,0.0,0.0,0.0,0.0,0.0,0.0,-1.9008,-1.9652,-2.0676,-2.1847,-2.2842,-2.3076,-2.3018,-2.3486,-2.4466,-2.5622,-2.65,-2.7188,-2.7847,-2.8666,-2.8886,-2.8886,-2.8886,-2.8886,-2.871,-2.8037,-2.7642,-2.7115,-2.6047,-2.5344,-2.4832,-2.4496,-2.5696,-2.6705,-2.6647,-2.8373,-2.9793,-2.9968,-3.0232,-3.051,-3.0788,-3.0817,-3.0817,-3.0817,-3.0817,-3.0978,-3.1344,-3.111,-3.1344,-3.2237,-3.2324,-3.2485,-3.2763,-3.2778,-3.2778,-3.2778,-3.2778,-3.2778,-3.2778,-3.2778,-3.2778,-3.2778,-3.2778,-3.2778,-3.2778,-3.2778,-3.2778,-3.2778,-3.2778,-3.2778,-3.2778,-3.2778,-3.2778,-3.2778,-3.2778,-3.2778,-3.2778,0.0,0.0,0.0,0.0,0.0,0.0,0.0,0.0,0.0,0.0,-1.5452,-1.4988,0.0,0.0,0.0,0.0,0.0,0.0,0.0,0.0,0.0,0.0,0.0,0.0,0.0,0.0,-1.5899,-1.6353,-1.6299,0.0,0.0,0.0,0.0,0.0,0.0,0.0,0.0,0.0,0.0,0.0,0.0,0.0,0.0,0.0,0.0,0.0,-2.0325,-2.1042,-2.1876,-2.3106,-2.4013,-2.4832,-2.5959,-2.6837,-2.7539,-2.7978,-2.8359,-2.8681,-2.8842,-2.8886,-2.8886,-2.8886,-2.8886,-2.8651,-2.7759,-2.7305,-2.6647,-2.514,-2.451,-2.4145,-2.3823,-2.4657,-2.5882,-2.71,-2.8286,-2.9427,-3.051,-3.07,-3.0759,-3.0817,-3.0817,-3.0817,-3.0817,-3.0817,-3.1066,-3.1666,-3.1666,-3.1827,-3.2266,-3.2544,-3.2719,-3.2778,-3.2778,-3.2778,-3.2778,-3.2778,-3.2778,-3.2778,-3.2778,-3.2778,-3.2778,-3.2778,-3.2778,-3.2778,-3.2778,-3.2778,-3.2778,-3.2778,-3.2778,-3.2778,-3.2778,-3.2778,-3.2778,-3.2778,-3.2778,-3.2778,0.0,0.0,0.0,0.0,0.0,0.0,0.0,-1.5731,-1.6272,-1.7252,-1.6828,-1.6316,-1.5979,-1.5501,-1.5147,0.0,0.0,0.0,0.0,0.0,0.0,0.0,0.0,0.0,0.0,-1.5311,-1.5591,-1.6046,0.0,-1.6046,-1.6473,-1.6326,-1.6295,-1.6454,-1.6701,-1.7048,-1.7498,-1.7903,-1.8175,-1.8325,-1.8651,-1.8672,0.0,0.0,0.0,0.0,0.0,-2.135,-2.2271,-2.2886,-2.4188,-2.5725,-2.6691,-2.7437,-2.7947,-2.8268,-2.8651,-2.8886,-2.8886,-2.8886,-2.8886,-2.8886,-2.8886,-2.8549,-2.7261,-2.6588,-2.5769,-2.4145,-2.3691,-2.3471,-2.3149,-2.4305,-2.5564,-2.6339,-2.7832,-2.9164,-2.9954,-3.051,-3.0817,-3.0817,-3.0978,-3.1081,-3.1081,-3.1227,-3.1534,-3.2017,-3.2046,-3.2193,-3.2515,-3.269,-3.2778,-3.2778,-3.2778,-3.2778,-3.2778,-3.2778,-3.2778,-3.2778,-3.2778,-3.2778,-3.2778,-3.2778,-3.2778,-3.2778,-3.2778,-3.2778,-3.2778,-3.2778,-3.2778,-3.2778,-3.2778,-3.2778,-3.2778,-3.2778,-3.2778,-3.2778,0.0,0.0,0.0,0.0,0.0,0.0,0.0,-1.6756,-1.7165,-1.854,-1.8379,-1.7911,-1.7387,-1.6213,-1.5462,0.0,0.0,0.0,0.0,0.0,0.0,0.0,0.0,0.0,0.0,0.0,0.0,-1.5879,-1.5765,0.0,0.0,0.0,0.0,0.0,-1.6435,-1.6826,-1.7403,-1.7557,-1.7732,0.0,0.0,-1.8321,0.0,0.0,0.0,0.0,0.0,-2.1467,-2.2345,-2.255,-2.3852,-2.5535,-2.6325,-2.7261,-2.802,-2.8209,-2.8593,-2.8886,-2.8886,-2.8886,-2.8886,-2.8886,-2.8886,-2.8447,-2.6778,-2.59,-2.4964,-2.334,-2.2959,-2.2871,-2.2754,-2.4042,-2.5227,-2.5579,-2.7174,-2.8608,-2.9281,-3.01,-3.0671,-3.0803,-3.111,-3.1315,-3.1315,-3.1666,-3.2002,-3.2266,-3.2354,-3.25,-3.2763,-3.2778,-3.2778,-3.2778,-3.2778,-3.2778,-3.2778,-3.2778,-3.2778,-3.2778,-3.2778,-3.2778,-3.2778,-3.2778,-3.2778,-3.2778,-3.2778,-3.2778,-3.2778,-3.2778,-3.2778,-3.2778,-3.2778,-3.2778,-3.2778,-3.2778,-3.2778,-3.2778,0.0,0.0,0.0,0.0,0.0,0.0,0.0,-1.7135,-1.8262,-1.9789,-1.952,-1.9008,-1.8642,-1.7486,-1.6533,0.0,0.0,0.0,0.0,0.0,0.0,0.0,0.0,0.0,0.0,0.0,0.0,-1.6177,-1.6423,0.0,0.0,0.0,0.0,0.0,0.0,-1.7327,-1.7466,-1.7983,0.0,0.0,0.0,0.0,0.0,0.0,0.0,0.0,0.0,-2.1247,-2.1467,-2.233,-2.2959,-2.3588,-2.4847,-2.6691,-2.8268,-2.799,-2.8417,-2.8886,-2.8886,-2.8886,-2.8886,-2.8886,-2.8886,-2.8388,-2.65,-2.5564,-2.4642,-2.3003,-2.2462,-2.2432,-2.2974,-2.3457,-2.4262,-2.574,-2.6398,-2.7349,-2.912,-2.9705,-3.0173,-3.0759,-3.111,-3.1315,-3.1315,-3.1871,-3.2251,-3.228,-3.2559,-3.2734,-3.2778,-3.2778,-3.2778,-3.2778,-3.2778,-3.2778,-3.2778,-3.2778,-3.2778,-3.2778,-3.2778,-3.2778,-3.2778,-3.2778,-3.2778,-3.2778,-3.2778,-3.2778,-3.2778,-3.2778,-3.2778,-3.2778,-3.2778,-3.2778,-3.2778,-3.2778,-3.2778,-3.2778,0.0,0.0,0.0,0.0,0.0,0.0,-1.7282,-1.7691,-1.854,-2.0559,-2.0252,-1.9798,-1.9667,-1.8396,-1.7001,-1.5658,0.0,0.0,0.0,0.0,0.0,0.0,0.0,0.0,0.0,0.0,-1.6703,-1.6498,-1.6801,0.0,0.0,0.0,0.0,0.0,0.0,-1.7361,-1.763,-1.7906,0.0,0.0,0.0,0.0,0.0,0.0,0.0,0.0,0.0,0.0,-2.1262,-2.1642,-2.2506,-2.3398,-2.334,-2.4876,-2.6822,-2.7466,-2.7978,-2.8403,-2.8783,-2.8886,-2.8886,-2.8886,-2.8754,-2.8154,-2.6413,-2.5374,-2.4408,-2.3164,-2.2667,-2.2579,-2.3032,-2.3369,-2.3866,-2.4715,-2.5447,-2.6325,-2.7481,-2.8432,-2.9237,-2.9881,-3.0583,-3.1168,-3.1563,-3.2193,-3.2573,-3.2573,-3.269,-3.2778,-3.2778,-3.2778,-3.2778,-3.2778,-3.2778,-3.2778,-3.2778,-3.2778,-3.2778,-3.2778,-3.2778,-3.2778,-3.2778,-3.2778,-3.2778,-3.2778,-3.2778,-3.2778,-3.2778,-3.2778,-3.2778,-3.2778,-3.2778,-3.2778,-3.2778,-3.2778,-3.2778,-3.2778,0.0,0.0,0.0,0.0,0.0,-1.5863,-1.7735,-1.7984,-1.8672,-2.0662,-2.046,-2.0139,-2.0106,-1.8644,-1.7137,-1.5713,-1.5251,0.0,0.0,0.0,0.0,0.0,0.0,0.0,0.0,0.0,-1.7021,-1.6919,-1.738,-1.7464,0.0,0.0,-1.7512,-1.7539,0.0,0.0,0.0,0.0,0.0,0.0,0.0,0.0,0.0,0.0,0.0,0.0,0.0,0.0,0.0,0.0,0.0,-2.2915,-2.2257,-2.3252,-2.4949,-2.6354,-2.7261,-2.792,-2.8461,-2.8754,-2.8886,-2.8886,-2.8593,-2.7891,-2.6369,-2.5271,-2.4291,-2.331,-2.2842,-2.2725,-2.3047,-2.3296,-2.3588,0.0,-2.4744,-2.5579,-2.6515,-2.751,-2.8417,-2.9149,-2.9925,-3.0685,-3.1432,-3.228,-3.2778,-3.2778,-3.2778,-3.2778,-3.2778,-3.2778,-3.2778,-3.2778,-3.2778,-3.2778,-3.2778,-3.2778,-3.2778,-3.2778,-3.2778,-3.2778,-3.2778,-3.2778,-3.2778,-3.2778,-3.2778,-3.2778,-3.2778,-3.2778,-3.2778,-3.2778,-3.2778,-3.2778,-3.2778,-3.2778,-3.2778,-3.2778,0.0,0.0,0.0,0.0,0.0,0.0,-1.7045,-1.7882,-1.876,-2.0022,-2.0183,-2.012,-1.9852,-1.8137,-1.685,-1.6521,-1.5186,0.0,0.0,0.0,0.0,0.0,0.0,0.0,0.0,0.0,-1.7998,-1.7389,-1.8368,-1.872,-1.8382,-1.8382,-1.8535,-1.876,0.0,0.0,0.0,0.0,0.0,0.0,0.0,0.0,0.0,0.0,0.0,0.0,0.0,0.0,0.0,0.0,0.0,0.0,0.0,-2.214,-2.2974,-2.4598,-2.6222,-2.7554,-2.7876,-2.8417,-2.8886,-2.8886,-2.8417,-2.7538,-2.631,-2.5271,-2.4291,-2.331,-2.2842,-2.2725,-2.3047,-2.3106,-2.3325,-2.3984,-2.4364,0.0,-2.6764,-2.7276,-2.7832,-2.8783,-2.9193,-2.9764,-3.0744,-3.2002,-3.2778,-3.2778,-3.2778,-3.2778,-3.2778,-3.2778,-3.2778,-3.2778,-3.2778,-3.2778,-3.2778,-3.2778,-3.2778,-3.2778,-3.2778,-3.2778,-3.2778,-3.2778,-3.2778,-3.2778,-3.2778,-3.2778,-3.2778,-3.2778,-3.2778,-3.2778,-3.2778,-3.2778,-3.2778,-3.2778,-3.2778,-3.2778,0.0,0.0,0.0,0.0,0.0,0.0,0.0,-1.7033,-1.7706,-1.8774,-1.8716,-1.8716,-1.9067,-1.7659,-1.6699,-1.6781,-1.5527,0.0,0.0,0.0,0.0,0.0,0.0,0.0,0.0,-1.8038,-1.8332,-1.8425,-1.9136,-1.9338,-1.9041,-1.902,-1.8957,-1.8774,-1.8452,-1.8423,0.0,0.0,0.0,0.0,0.0,0.0,0.0,0.0,0.0,0.0,0.0,0.0,0.0,0.0,0.0,0.0,0.0,0.0,0.0,-2.2871,-2.4393,-2.5886,-2.6208,-2.6764,-2.7203,-2.6983,-2.6778,-2.6354,-2.5271,-2.4613,-2.4027,-2.3267,-2.2842,-2.2725,-2.3047,-2.3106,-2.3398,-2.4276,-2.4496,0.0,-2.6164,-2.6983,-2.7832,-2.8783,-3.0349,-3.1578,-3.2105,-3.2324,-3.2529,-3.2749,-3.2559,-3.2529,-3.2763,-3.2778,-3.2778,-3.2778,-3.2778,-3.2778,-3.2778,-3.2778,-3.2778,-3.2778,-3.2778,-3.2778,-3.2778,-3.2778,-3.2778,-3.2778,-3.2778,-3.2778,-3.2778,-3.2778,-3.2778,-3.2778,-3.2778,-3.2778,-3.2778,-3.2778,-3.2778,-3.2778,0.0,0.0,0.0,0.0,0.0,0.0,0.0,-1.6507,-1.6976,-1.7662,-1.7574,-1.7706,-1.835,-1.7142,-1.6429,-1.6888,-1.5732,0.0,0.0,0.0,0.0,0.0,0.0,0.0,-1.7808,-1.813,-1.8585,-1.9252,-1.9979,-2.0201,-2.0036,-2.0168,-1.9886,-1.9316,-1.8994,-1.8891,0.0,0.0,0.0,0.0,0.0,0.0,-1.9901,0.0,0.0,0.0,0.0,0.0,0.0,0.0,0.0,0.0,0.0,0.0,0.0,0.0,-2.2842,-2.4145,-2.4949,-2.5637,-2.612,-2.6032,-2.5827,-2.5461,-2.473,-2.4218,-2.3749,-2.3223,-2.2945,-2.2871,-2.3076,-2.3106,-2.3354,-2.4086,-2.4305,-2.4818,-2.6032,-2.6837,-2.773,-2.893,-3.0759,-3.2002,-3.2193,-3.2368,-3.25,-3.2588,-3.2398,-3.2368,-3.2573,-3.2588,-3.2646,-3.2763,-3.2778,-3.2778,-3.2778,-3.2778,-3.2778,-3.2778,-3.2778,-3.2778,-3.2778,-3.2778,-3.2778,-3.2778,-3.2778,-3.2778,0.0,-3.2778,-3.2778,-3.2778,-3.2778,-3.2778,-3.2778,-3.2778,-3.2778,-3.2778,0.0,0.0,0.0,0.0,0.0,0.0,0.0,-1.614,-1.6492,-1.68,-1.6829,-1.7018,-1.7618,-1.6608,-1.6126,-1.6785,0.0,0.0,0.0,0.0,0.0,0.0,0.0,0.0,-1.7838,-1.8189,-1.8847,-1.9852,-2.0794,-2.1291,-2.132,-2.1642,-2.1276,-2.027,-2.0003,-1.972,-1.9345,0.0,0.0,0.0,-2.0062,-2.0124,0.0,0.0,0.0,0.0,0.0,0.0,0.0,0.0,0.0,0.0,0.0,0.0,0.0,0.0,0.0,0.0,0.0,-2.4847,-2.5432,-2.574,-2.5374,-2.4929,-2.454,-2.4013,0.0,-2.3179,-2.3106,-2.312,-2.3164,-2.3135,-2.3252,-2.3662,-2.3969,-2.4715,-2.6339,-2.6969,-2.7832,-2.9369,-3.0627,-3.1373,-3.1373,-3.2178,-3.2602,-3.2339,-3.2295,-3.2295,-3.231,-3.2324,-3.2456,-3.2763,-3.2778,-3.2778,-3.2778,-3.2778,-3.2778,-3.2778,-3.2778,-3.2778,-3.2778,-3.2778,-3.2778,-3.2778,-3.2778,-3.2778,-3.2778,-3.2778,-3.2778,-3.2778,-3.2778,-3.2778,-3.2778,-3.2778,-3.2778,-3.2778,0.0,0.0,0.0,0.0,0.0,0.0,0.0,0.0,0.0,0.0,-1.614,-1.6199,-1.6345,-1.5877,-1.5659,0.0,0.0,0.0,0.0,0.0,0.0,0.0,0.0,0.0,-1.8174,-1.8745,-1.9403,-2.012,-2.135,-2.2067,-2.2301,-2.2623,-2.2271,-2.1335,-2.1013,-2.0413,-1.9705,-1.9813,0.0,0.0,-1.9579,-1.9652,0.0,0.0,0.0,0.0,-2.0603,-2.0881,0.0,0.0,0.0,0.0,0.0,0.0,0.0,0.0,-2.132,-2.1569,-2.2198,0.0,-2.3691,-2.3764,-2.3866,-2.3852,0.0,-2.353,-2.3501,-2.3179,-2.3106,-2.3267,-2.3764,-2.3442,-2.3545,-2.4862,-2.4935,-2.5457,-2.7027,-2.8798,-3.0246,-3.1124,-3.1724,-3.2061,-3.2061,-3.2032,-3.2207,-3.2632,-3.2427,-3.2398,-3.2646,-3.2661,-3.269,-3.2763,-3.2778,-3.2778,-3.2778,-3.2778,-3.2778,-3.2778,-3.2778,-3.2778,-3.2778,-3.2778,-3.2778,-3.2778,-3.2778,-3.2778,-3.2778,-3.2778,-3.2778,-3.2778,-3.2778,-3.2778,-3.2778,-3.2778,-3.2778,-3.2778,0.0,0.0,0.0,0.0,0.0,0.0,0.0,0.0,0.0,0.0,0.0,-1.5644,-1.5644,-1.5498,0.0,0.0,0.0,0.0,0.0,0.0,0.0,0.0,0.0,-1.7457,-1.8291,-1.8789,-1.9594,-2.0676,-2.1818,-2.2623,-2.3076,-2.3398,-2.2974,-2.1891,-2.1262,-2.0691,-2.0208,-2.0208,-2.0033,-1.9793,-1.9617,0.0,0.0,0.0,0.0,0.0,-2.0881,-2.1057,0.0,-2.1554,-2.1789,-2.192,0.0,0.0,0.0,0.0,-2.1101,-2.1057,-2.1379,-2.2169,-2.2915,-2.3076,-2.3354,-2.3545,-2.3369,-2.3354,-2.3325,-2.3149,-2.3106,-2.3267,-2.3764,-2.394,-2.4232,-2.4964,-2.5696,-2.6676,-2.8139,-2.9778,-3.1007,-3.152,-3.1856,-3.2061,-3.2061,-3.19,-3.1944,-3.2295,-3.2163,-3.2207,-3.2529,-3.2544,-3.2617,-3.2763,-3.2778,-3.2778,-3.2778,-3.2778,-3.2778,-3.2778,-3.2778,-3.2778,-3.2778,-3.2778,-3.2778,-3.2778,-3.2778,-3.2778,-3.2778,-3.2778,-3.2778,-3.2778,-3.2778,-3.2778,-3.2778,-3.2778,-3.2778,-3.2778,0.0,0.0,0.0,0.0,0.0,0.0,0.0,0.0,0.0,0.0,0.0,0.0,0.0,0.0,0.0,0.0,0.0,0.0,0.0,0.0,0.0,0.0,-1.734,-1.7633,-1.8438,-1.8716,-1.9608,-2.113,-2.2242,-2.3076,-2.3676,-2.4203,-2.372,-2.2345,-2.1218,-2.0662,-2.0574,-2.0516,-2.0179,-1.9749,-1.9749,0.0,0.0,0.0,0.0,0.0,0.0,0.0,0.0,-2.173,-2.1832,-2.1789,-2.1862,0.0,0.0,0.0,0.0,0.0,-2.1233,-2.2052,-2.2798,-2.293,-2.3281,-2.3588,-2.353,-2.331,-2.3106,-2.3106,-2.3149,-2.334,-2.3866,-2.4525,-2.5008,-2.5081,-2.6544,-2.8139,-2.9412,-3.0393,-3.1095,-3.1417,-3.171,-3.1871,-3.1871,-3.1827,-3.1841,-3.1944,-3.19,-3.2017,-3.2339,-3.2354,-3.2485,-3.2763,-3.2778,-3.2778,-3.2778,-3.2778,-3.2778,-3.2778,-3.2778,-3.2778,-3.2778,-3.2778,-3.2778,-3.2778,-3.2778,0.0,-3.2778,-3.2778,-3.2778,-3.2778,-3.2778,-3.2778,-3.2778,-3.2778,-3.2778,-3.2778,0.0,0.0,0.0,0.0,0.0,0.0,0.0,0.0,0.0,0.0,0.0,0.0,0.0,0.0,0.0,0.0,0.0,0.0,0.0,0.0,0.0,-1.813,-1.7416,-1.7666,-1.9096,-1.9169,-1.9725,-2.0794,-2.2579,-2.3632,-2.4042,-2.5461,-2.5154,-2.3296,-2.1511,-2.0413,-1.994,-1.9608,-1.9447,-1.9397,-1.9397,0.0,0.0,0.0,0.0,0.0,0.0,0.0,0.0,-2.0691,-2.1233,-2.192,-2.0867,0.0,0.0,0.0,0.0,0.0,-2.1715,-2.2725,-2.3267,-2.252,-2.2959,-2.353,-2.3252,-2.3149,-2.3106,0.0,-2.3325,-2.3954,-2.5388,-2.5096,-2.5257,-2.713,-2.8125,-2.912,-3.0422,-3.1212,-3.1768,-3.2105,-3.2178,-3.2207,-3.2207,-3.1959,-3.2032,-3.2573,-3.2368,-3.2354,-3.2676,-3.269,-3.2719,-3.2778,-3.2778,-3.2778,-3.2778,-3.2778,-3.2778,-3.2778,-3.2778,-3.2778,-3.2778,-3.2778,-3.2778,-3.2778,0.0,-3.2778,-3.2778,-3.2778,-3.2778,-3.2778,-3.2778,-3.2778,-3.2778,-3.2778,-3.2778,-3.2778,0.0,0.0,0.0,0.0,0.0,0.0,0.0,0.0,0.0,0.0,0.0,0.0,0.0,0.0,0.0,0.0,0.0,0.0,0.0,0.0,-1.7852,-1.9038,-1.8321,-1.8385,-1.9257,-2.0135,-2.0969,-2.1745,-2.3691,-2.4715,-2.4862,-2.4905,-2.4364,-2.3267,-2.1686,-2.0618,-2.0003,-1.9857,-1.9696,-1.9573,0.0,0.0,0.0,0.0,0.0,0.0,0.0,0.0,0.0,0.0,-2.113,-2.1789,-2.1013,0.0,0.0,0.0,0.0,0.0,-2.0925,-2.1832,-2.2637,-2.2886,-2.4203,-2.5388,-2.5242,-2.5213,-2.511,-2.4759,-2.4803,-2.5183,-2.6105,-2.6339,-2.7027,-2.893,-2.9339,-2.9749,-3.0685,-3.1227,-3.1651,-3.1988,-3.1871,-3.1827,-3.2002,-3.1724,-3.1812,-3.2456,-3.2368,-3.2427,-3.2749,-3.2778,-3.2778,-3.2778,-3.2778,-3.2778,-3.2778,-3.2778,-3.2778,-3.2778,-3.2778,-3.2778,-3.2778,-3.2778,-3.2778,-3.2778,0.0,-3.2778,-3.2778,-3.2778,-3.2778,-3.2778,-3.2778,-3.2778,-3.2778,-3.2778,-3.2778,-3.2778,0.0,0.0,0.0,0.0,0.0,0.0,0.0,0.0,0.0,0.0,0.0,0.0,0.0,0.0,0.0,0.0,0.0,0.0,0.0,-1.7428,-1.8218,-1.9749,-1.9433,-1.9462,-1.9945,-2.1028,-2.2037,-2.2959,-2.4613,-2.5535,-2.574,-2.451,-2.3676,-2.3164,-2.1891,-2.0955,-2.0285,-2.0212,-2.0062,-1.9793,0.0,0.0,0.0,0.0,0.0,0.0,0.0,0.0,0.0,0.0,0.0,0.0,0.0,0.0,0.0,-2.0896,-2.0267,-1.9955,-2.0516,-2.1291,-2.2242,-2.3603,-2.5081,-2.6339,-2.6866,-2.6764,-2.6486,-2.6281,-2.631,-2.6457,-2.6778,-2.7627,-2.8666,-2.9822,-3.0056,-3.032,-3.0964,-3.1271,-3.1578,-3.1973,-3.1666,-3.1578,-3.1988,-3.1666,-3.1695,-3.2354,-3.2324,-3.2427,-3.2749,-3.2778,-3.2778,-3.2778,-3.2778,-3.2778,-3.2778,-3.2778,-3.2778,-3.2778,-3.2778,-3.2778,-3.2778,-3.2778,-3.2778,-3.2778,-3.2778,-3.2778,-3.2778,-3.2778,-3.2778,-3.2778,-3.2778,-3.2778,-3.2778,-3.2778,-3.2778,-3.2778,0.0,0.0,0.0,0.0,0.0,0.0,0.0,0.0,0.0,0.0,0.0,0.0,0.0,0.0,0.0,0.0,0.0,0.0,0.0,-1.8218,-1.8686,-1.9764,-2.0296,-2.1013,-2.195,-2.1496,-2.214,-2.3984,-2.4797,-2.5549,-2.6413,-2.5418,-2.4452,-2.3501,-2.2228,-2.1306,-2.0662,-2.0314,-2.0062,-1.9837,-2.0062,0.0,0.0,0.0,0.0,0.0,0.0,0.0,0.0,0.0,0.0,0.0,0.0,0.0,-2.1174,-2.0823,-2.0267,-2.0145,-2.1628,-2.2301,-2.2945,-2.4554,-2.4393,-2.4393,-2.6515,-2.6061,-2.5589,-2.6676,-2.7159,-2.7466,-2.7788,-2.8622,-2.9208,-2.9017,-2.9983,-3.0978,-3.1637,-3.1754,-3.2002,-3.2632,-3.2149,-3.2002,-3.2646,-3.2134,-3.2032,-3.269,-3.2456,-3.2427,-3.2749,-3.2778,-3.2778,-3.2778,-3.2778,-3.2778,-3.2778,-3.2778,-3.2778,-3.2778,-3.2778,-3.2778,-3.2778,-3.2778,-3.2778,-3.2778,-3.2778,-3.2778,-3.2778,-3.2778,-3.2778,-3.2778,-3.2778,-3.2778,-3.2778,-3.2778,-3.2778,-3.2778,0.0,0.0,0.0,0.0,0.0,0.0,0.0,0.0,0.0,0.0,0.0,0.0,0.0,0.0,0.0,0.0,0.0,0.0,0.0,-1.8496,-1.9038,-2.0018,-2.0296,-2.0969,-2.2154,-2.2915,-2.3852,-2.4979,-2.5432,-2.5842,-2.6164,-2.4583,-2.3545,-2.2945,-2.1876,-2.1262,-2.0998,-2.0676,-2.0589,-2.0633,-2.0355,-2.0431,0.0,0.0,0.0,0.0,0.0,0.0,0.0,0.0,-2.0252,-2.094,-2.0457,-2.0998,-2.1672,-2.094,-2.0398,-2.0281,-2.1306,-2.2242,-2.3223,-2.4452,-2.4935,-2.5593,-2.7466,-2.7978,-2.8125,-2.8417,-2.8739,-2.8871,-2.8593,-2.9661,-3.0276,-2.9339,-3.0627,-3.1681,-3.152,-3.2017,-3.25,-3.2749,-3.2368,-3.228,-3.2734,-3.2368,-3.228,-3.2734,-3.2661,-3.2646,-3.2763,-3.2778,-3.2778,-3.2778,-3.2778,-3.2778,-3.2778,-3.2778,-3.2778,-3.2778,-3.2778,-3.2778,-3.2778,-3.2778,-3.2778,-3.2778,-3.2778,-3.2778,-3.2778,-3.2778,-3.2778,-3.2778,-3.2778,-3.2778,-3.2778,-3.2778,-3.2778,-3.2793,0.0,0.0,0.0,0.0,0.0,0.0,0.0,0.0,0.0,0.0,0.0,0.0,0.0,0.0,0.0,0.0,0.0,0.0,-1.8569,-1.8818,-1.9286,-2.0047,-2.0281,-2.0955,-2.2154,-2.3647,-2.4774,-2.5535,-2.6061,-2.612,-2.5681,-2.413,-2.3296,-2.3032,-2.1979,-2.1628,-2.1774,-2.1247,-2.1101,-2.1174,-2.072,-2.075,0.0,0.0,0.0,0.0,0.0,0.0,0.0,0.0,-2.0179,-2.072,-2.0574,-2.1145,-2.1759,-2.1203,-2.1159,-2.1379,-2.1715,-2.2667,-2.3837,-2.4905,-2.5681,-2.6588,-2.8212,-2.893,-2.9369,-2.9749,-2.969,-2.9486,-2.9237,-2.9851,-3.0246,-2.9764,-3.0978,-3.19,-3.1651,-3.2105,-3.2544,-3.2749,-3.2295,-3.2193,-3.2719,-3.2471,-3.2412,-3.2749,-3.2778,-3.2778,-3.2778,-3.2778,-3.2778,-3.2778,-3.2778,-3.2778,-3.2778,-3.2778,-3.2778,-3.2778,-3.2778,-3.2778,-3.2778,-3.2778,-3.2778,-3.2778,-3.2778,-3.2778,-3.2778,-3.2778,-3.2778,-3.2778,-3.2778,-3.2778,-3.2778,-3.2778,-3.2778,-3.2822,0.0,0.0,0.0,0.0,0.0,0.0,0.0,0.0,-1.7279,-1.7279,-1.7279,0.0,0.0,0.0,0.0,0.0,0.0,0.0,-1.9257,-1.9272,-1.947,-1.9808,-2.0369,-2.1174,-2.214,-2.3413,-2.4554,-2.552,-2.65,-2.631,-2.509,-2.4379,-2.4071,-2.4013,-2.2754,-2.252,-2.3047,-2.2096,-2.1511,-2.1218,-2.1218,-2.1013,-2.072,0.0,0.0,0.0,0.0,0.0,0.0,0.0,-2.0296,-2.0101,-2.1657,-2.173,-2.1291,-2.1598,-2.2593,-2.3515,-2.3193,-2.3823,-2.4891,-2.6164,-2.6515,-2.6954,-2.8534,-2.8417,-2.8443,-3.0422,-2.9793,-2.9105,-2.9749,-2.9105,-2.8886,-3.0225,-3.0905,-3.1549,-3.2193,-3.2002,-3.2046,-3.269,-3.1915,-3.171,-3.2676,-3.2485,-3.2427,-3.2749,-3.2778,-3.2778,-3.2778,-3.2778,-3.2778,-3.2778,-3.2778,-3.2778,-3.2778,-3.2778,-3.2778,-3.2778,-3.2778,-3.2778,-3.2778,-3.2778,-3.2778,-3.2778,-3.2778,-3.2778,-3.2778,-3.2778,-3.2778,-3.2778,-3.2778,-3.2778,-3.2778,-3.2778,-3.2778,-3.2822,0.0,0.0,0.0,0.0,0.0,0.0,0.0,0.0,-1.7279,-1.7279,-1.753,0.0,0.0,0.0,0.0,0.0,0.0,0.0,-1.9257,-1.9272,-1.947,-1.9808,-2.0164,-2.0633,-2.1145,-2.2403,-2.3764,-2.5198,-2.5491,-2.4964,-2.3676,-2.3486,-2.3164,-2.274,-2.2564,-2.2476,-2.2418,-2.192,-2.1774,-2.1876,-2.1642,-2.135,-2.1057,0.0,0.0,0.0,0.0,0.0,0.0,0.0,0.0,0.0,-2.0662,-2.1452,-2.214,-2.1803,-2.2271,-2.2842,-2.2535,-2.3998,-2.5564,-2.5505,-2.7188,-2.893,-2.9178,-2.9266,0.0,-3.0612,-3.0334,-2.991,-2.9866,-3.0378,-3.07,-3.0475,-3.1461,-3.2324,-3.2295,-3.2398,-3.2559,-3.2749,-3.2515,-3.2456,-3.2749,-3.2676,-3.2661,-3.2763,-3.2778,-3.2778,-3.2778,-3.2778,-3.2778,-3.2778,-3.2778,-3.2778,-3.2778,-3.2778,-3.2778,-3.2778,-3.2778,-3.2778,-3.2778,-3.2778,-3.2778,-3.2778,-3.2778,-3.2778,-3.2778,-3.2778,-3.2778,-3.2778,-3.2778,-3.2778,-3.2793,-3.3027,-3.31,-3.3188,0.0,0.0,0.0,0.0,0.0,0.0,-1.7279,-1.7395,-1.7516,-1.7516,-1.7808,-1.8013,0.0,0.0,0.0,-1.8774,-1.8906,-1.9067,-1.9257,-1.9403,-1.9603,-1.9808,-2.0194,-2.0706,-2.1291,-2.2169,-2.3047,-2.3975,-2.4291,-2.394,-2.2915,-2.331,-2.3296,-2.2959,-2.3398,-2.334,-2.2915,-2.2593,-2.2345,-2.2169,-2.1964,-2.1613,-2.1203,0.0,0.0,0.0,0.0,0.0,0.0,0.0,0.0,0.0,-2.0311,-2.1029,-2.195,-2.233,-2.3267,-2.4218,-2.4423,-2.5886,-2.7349,-2.7349,-2.852,-2.972,-2.991,-3.01,-3.0349,-3.0744,-3.0466,-3.0173,-3.0232,-3.0671,-3.1007,-3.0934,-3.1739,-3.2412,-3.2471,-3.2529,-3.2632,-3.2749,-3.2661,-3.2632,-3.2763,-3.2778,-3.2778,-3.2778,-3.2778,-3.2778,-3.2778,-3.2778,-3.2778,-3.2778,-3.2778,-3.2778,-3.2778,-3.2778,-3.2778,-3.2778,-3.2778,-3.2778,-3.2778,-3.2778,-3.2778,-3.2778,-3.2778,-3.2778,-3.2778,-3.2778,-3.2778,-3.2778,-3.2778,-3.2778,-3.2807,-3.3129,-3.3246,-3.3334,0.0,0.0,0.0,0.0,0.0,0.0,-1.7323,-1.7618,-1.7823,-1.7852,-1.8145,-1.835,0.0,0.0,0.0,-1.8833,-1.9111,-1.9272,-1.9272,-1.9632,-1.9823,-1.9867,-2.0428,-2.1203,-2.2125,-2.2374,-2.2374,-2.214,-2.3062,-2.3179,-2.2564,-2.3574,-2.4027,-2.4027,-2.4701,-2.4613,-2.3925,-2.3603,-2.293,-2.2096,-2.2154,-2.1759,-2.1101,-2.0852,0.0,0.0,0.0,0.0,0.0,0.0,0.0,0.0,-2.0413,-2.075,-2.1115,-2.2901,-2.4818,-2.6559,-2.7378,-2.8447,-2.9544,-3.0422,-3.0071,-2.9734,-3.0627,-3.0817,-3.0817,-3.0817,-3.0364,-3.0129,-3.0715,-3.0393,-3.0422,-3.1607,-3.1841,-3.209,-3.269,-3.2515,-3.2441,-3.2734,-3.2515,-3.2441,-3.2749,-3.2778,-3.2778,-3.2778,-3.2778,-3.2778,-3.2778,-3.2778,-3.2778,-3.2778,-3.2778,-3.2778,-3.2778,-3.2778,-3.2778,-3.2778,-3.2778,-3.2778,-3.2778,-3.2778,-3.2778,-3.2778,-3.2778,-3.2778,-3.2778,-3.2778,-3.2778,-3.2778,-3.2807,-3.2822,-3.2851,-3.3202,-3.3334,-3.3422,0.0,0.0,0.0,0.0,0.0,0.0,-1.7677,-1.7765,-1.7911,-1.816,-1.8482,-1.8686,-1.8686,-1.8979,0.0,-1.9169,-1.9242,-1.9272,-1.9272,-1.9632,-1.9872,-2.012,-2.075,-2.132,-2.1789,-2.1613,-2.1613,-2.1803,-2.2491,-2.2506,-2.192,-2.3135,-2.3559,-2.3354,-2.4276,-2.4027,-2.2915,-2.2608,-2.2067,-2.1467,-2.1979,-2.1481,-2.0446,-2.094,-2.0589,0.0,0.0,0.0,0.0,0.0,0.0,0.0,-2.0413,-2.0896,-2.1233,-2.1906,-2.3647,-2.5301,-2.4993,-2.691,0.0,-2.9251,-2.991,-3.0568,-3.0773,-3.0817,-3.0817,-3.0817,-3.0715,-3.0656,-3.0803,-3.1124,-3.1476,-3.1754,-3.2222,-3.2617,-3.2749,-3.2705,-3.269,-3.2763,-3.2705,-3.269,-3.2763,-3.2778,-3.2778,-3.2778,-3.2778,-3.2778,-3.2778,-3.2778,-3.2778,-3.2778,-3.2778,-3.2778,-3.2778,-3.2778,-3.2778,-3.2778,-3.2778,-3.2778,-3.2778,-3.2778,-3.2778,-3.2778,-3.2778,-3.2778,-3.2778,-3.2778,-3.2778,-3.2793,-3.3041,-3.3144,-3.3217,-3.3788,-3.4007,-3.4066,0.0,0.0,0.0,0.0,0.0,0.0,0.0,0.0,-1.816,-1.8496,-1.8818,-1.9023,-1.9023,-1.9169,0.0,0.0,-1.9272,-1.9272,-1.9272,-1.9725,-2.0208,-2.0676,-2.1028,-2.1291,-2.1467,-2.1145,-2.113,-2.1467,-2.1628,-2.1628,-2.1496,-2.2769,-2.3193,-2.293,-2.4057,-2.3837,-2.2623,-2.2623,-2.2257,-2.1686,-2.1876,-2.1452,-2.0706,-2.0735,-2.0237,-1.9558,-1.933,0.0,0.0,0.0,0.0,0.0,0.0,0.0,-2.0984,-2.2242,-2.3545,-2.4818,0.0,0.0,0.0,-2.9661,0.0,-3.0817,-3.0817,-3.0817,-3.0817,-3.0817,-3.0817,-3.0817,-3.0817,-3.1359,-3.1798,-3.1798,-3.2339,-3.2778,-3.2778,-3.2778,-3.2778,-3.2778,-3.2778,-3.2778,-3.2778,-3.2778,-3.2778,-3.2778,-3.2778,-3.2778,-3.2778,-3.2778,-3.2778,-3.2778,-3.2778,-3.2778,-3.2778,-3.2778,-3.2778,-3.2778,-3.2778,-3.2778,-3.2778,-3.2778,-3.2778,-3.2778,-3.2778,-3.2778,-3.2778,-3.2778,-3.2778,-3.2807,-3.3129,-3.3246,-3.3319,-3.3978,-3.4212,-3.4271,0.0,0.0,0.0,0.0,0.0,0.0,0.0,0.0,0.0,-1.8921,-1.9242,-1.9403,-1.9286,-1.933,-1.933,0.0,0.0,0.0,-1.9272,-1.9886,-2.0472,-2.1013,-2.1145,-2.1174,-2.113,-2.0808,-2.0823,-2.1203,-2.0823,-2.0896,-2.1408,-2.2564,-2.2988,-2.2842,-2.3925,-2.3735,-2.2637,-2.274,-2.2418,-2.1832,-2.1613,-2.1262,-2.0823,-2.0343,-1.9842,-1.9272,-1.9272,-1.9272,-1.9286,-1.9397,0.0,0.0,0.0,0.0,-2.0691,-2.2623,-2.3574,0.0,0.0,0.0,-2.9134,-3.0481,-3.0817,0.0,-3.0817,-3.0817,-3.0817,-3.0817,-3.0817,-3.0846,-3.089,-3.1402,-3.1812,-3.1871,-3.2383,-3.2778,-3.2778,-3.2778,-3.2778,-3.2778,-3.2778,-3.2778,-3.2778,-3.2778,-3.2778,-3.2778,-3.2778,-3.2778,-3.2778,-3.2778,-3.2778,-3.2778,-3.2778,-3.2778,-3.2778,-3.2778,-3.2778,-3.2778,-3.2778,-3.2778,-3.2778,-3.2778,-3.2778,-3.2778,-3.2778,-3.2778,-3.2778,-3.2778,-3.2807,-3.288,-3.3202,-3.3363,-3.348,-3.408,-3.43,-3.4344,0.0,0.0,0.0,0.0,0.0,0.0,0.0,0.0,0.0,0.0,-1.9916,-1.9901,-1.933,-1.9573,-1.9632,-1.9353,-1.9272,-1.9272,-1.9272,0.0,0.0,-2.03,-2.0911,-2.1072,-2.0794,-2.0472,-2.0548,-2.1203,-2.0548,-2.0896,-2.2067,-2.2784,-2.3237,-2.3471,-2.3647,-2.331,-2.2564,-2.1789,-2.1086,-2.0516,-2.075,-2.0325,-1.9579,-2.0062,-1.9842,-1.9272,-1.9272,-1.9272,-1.9316,-1.9661,-1.9749,0.0,0.0,0.0,-2.0764,-2.1364,-2.2535,0.0,0.0,0.0,-2.8871,0.0,-3.0817,-3.0817,0.0,0.0,-3.0817,-3.0817,-3.0817,-3.0905,-3.1198,-3.1549,-3.1885,-3.2178,-3.2529,-3.2778,-3.2778,-3.2778,-3.2778,-3.2778,-3.2778,-3.2778,-3.2778,-3.2778,-3.2778,-3.2778,-3.2778,-3.2778,-3.2778,-3.2778,-3.2778,-3.2778,-3.2778,-3.2778,-3.2778,-3.2778,-3.2778,-3.2778,-3.2778,-3.2778,-3.2778,-3.2778,-3.2778,-3.2778,-3.2778,-3.2778,-3.2778,-3.2778,-3.2939,-3.3217,-3.3539,-3.3846,-3.4139,-3.4505,-3.4636,-3.4651,0.0,0.0,0.0,0.0,0.0,0.0,0.0,0.0,0.0,0.0,0.0,-1.993,-1.9828,-1.9623,-1.9558,-1.9603,-1.9441,-1.9412,-1.9588,-1.9813,-2.0047,-2.0168,-2.046,-2.0603,-2.0402,-2.0135,-2.0296,-2.094,-2.0472,-2.0927,-2.2432,-2.271,-2.3018,-2.331,-2.3135,-2.2696,-2.2052,-2.1262,-2.0764,-2.0431,-2.0267,-2.0676,-2.1291,-2.0135,-2.0208,-2.0764,-1.9667,-1.9272,-1.933,-1.9705,-1.9823,-1.9925,-2.0516,0.0,0.0,0.0,-2.1832,-2.293,-2.473,-2.6793,-2.8827,0.0,-3.0817,-3.0817,-3.0817,-3.0817,-3.0817,-3.0817,-3.0817,-3.0876,-3.1007,-3.1446,-3.1841,-3.1988,-3.2441,-3.2778,-3.2778,-3.2778,-3.2778,-3.2778,-3.2778,-3.2778,-3.2778,-3.2778,-3.2778,-3.2778,-3.2778,-3.2778,-3.2778,-3.2778,-3.2778,-3.2778,-3.2778,-3.2778,-3.2778,-3.2778,-3.2778,-3.2778,-3.2778,-3.2778,-3.2778,-3.2778,-3.2778,-3.2778,-3.2778,-3.2778,-3.2778,-3.2968,-3.3115,-3.329,-3.3802,-3.4095,-3.4256,-3.4578,-3.471,-3.471,0.0,0.0,0.0,0.0,0.0,0.0,0.0,0.0,0.0,0.0,0.0,-2.012,-2.012,0.0,0.0,0.0,-1.9514,-1.9345,-1.9558,-1.9647,-1.9711,-1.9857,-2.0051,-2.011,-1.9989,-1.9681,-1.9828,-2.0472,-2.015,-2.0896,-2.2623,-2.271,-2.3003,-2.3457,-2.2959,-2.2447,-2.1876,-2.1072,-2.0764,-2.0823,-2.0501,-2.1379,-2.2725,-2.1291,-2.1642,-2.2652,-2.072,-2.0018,-2.0003,-1.9916,-1.9886,-2.0003,-2.0647,-2.0852,0.0,0.0,0.0,-2.2184,0.0,0.0,0.0,-2.9734,-3.0276,-3.0422,0.0,0.0,-3.0817,-3.0817,-3.0817,-3.0817,-3.0817,-3.1359,-3.1827,-3.19,-3.2398,-3.2778,-3.2778,-3.2778,-3.2778,-3.2778,-3.2778,-3.2778,-3.2778,-3.2778,-3.2778,-3.2778,-3.2778,-3.2778,-3.2778,-3.2778,-3.2778,-3.2778,-3.2778,-3.2778,-3.2778,-3.2778,-3.2778,-3.2778,-3.2778,-3.2778,-3.2778,-3.2778,-3.2778,-3.2778,-3.2778,-3.2778,-3.2793,-3.3115,-3.329,-3.3422,-3.3993,-3.4271,-3.4373,-3.4622,-3.471,-3.471,0.0,0.0,0.0,0.0,0.0,0.0,0.0,0.0,0.0,0.0,0.0,-2.0794,-1.994,-2.0033,-2.0077,-1.9837,-1.9514,-1.9155,-1.8862,-1.9125,-1.9169,-1.8877,-1.974,0.0,-1.9345,-1.9008,-1.9155,-1.9867,-1.9491,-2.0457,-2.2637,-2.2945,-2.3588,-2.4452,-2.3501,-2.2901,-2.2491,-2.1247,-2.0896,-2.1233,-2.1818,-2.2125,-2.2418,-2.418,-2.4885,-2.4723,-2.2725,-2.2037,-2.1847,-2.0618,-2.0154,-2.0325,-2.0984,-2.1189,-2.1189,0.0,0.0,0.0,0.0,0.0,0.0,0.0,0.0,0.0,0.0,0.0,-3.0817,-3.0817,-3.0817,-3.0817,-3.0817,-3.1359,-3.19,-3.2207,-3.2544,-3.2778,-3.2778,-3.2778,-3.2778,-3.2778,-3.2778,-3.2778,-3.2778,-3.2778,-3.2778,-3.2778,-3.2778,-3.2778,-3.2778,-3.2778,-3.2778,-3.2778,-3.2778,-3.2778,-3.2778,-3.2778,-3.2778,-3.2778,-3.2778,-3.2778,-3.2778,-3.2778,-3.2778,-3.2778,-3.2778,-3.2778,-3.2793,-3.3115,-3.3422,-3.3744,-3.408,-3.4402,-3.468,-3.4695,-3.471,-3.471,0.0,0.0,0.0,0.0,0.0,0.0,0.0,0.0,0.0,0.0,0.0,0.0,0.0,-2.0237,-1.9974,-2.0062,-1.9389,-1.8921,-1.8803,-1.8701,-1.8686,-1.8789,-1.9125,-1.9199,-1.8964,-1.8847,-1.8906,-1.914,-1.95,-2.0311,-2.173,-2.2271,-2.2798,-2.331,-2.2959,-2.2725,-2.2506,-2.0823,-2.0296,-2.0676,-2.1759,-2.293,-2.4166,-2.4855,-2.5827,-2.6661,-2.4715,-2.3237,-2.214,-2.1862,-2.1029,-2.0256,-2.0764,-2.1042,-2.1203,-2.1203,-2.1203,-2.1554,0.0,0.0,0.0,0.0,0.0,-2.8769,-2.9427,-3.0232,-3.0817,-3.0817,-3.0817,-3.0817,-3.0817,-3.1359,-3.1827,-3.1959,-3.2427,-3.2778,-3.2778,-3.2778,-3.2778,-3.2778,-3.2778,-3.269,-3.2485,-3.2646,-3.269,-3.2471,-3.2646,-3.2778,-3.2778,-3.2778,-3.2778,-3.2778,-3.2778,-3.2778,-3.2778,-3.2778,-3.2778,-3.2778,-3.2778,-3.2778,-3.2778,-3.2778,-3.2778,-3.2778,-3.2778,-3.2778,-3.2807,-3.3334,-3.3627,-3.3788,-3.4314,-3.4607,-3.471,-3.471,-3.471,-3.471,0.0,0.0,0.0,0.0,0.0,0.0,0.0,0.0,-2.0764,-2.0867,0.0,0.0,0.0,0.0,-2.0012,-1.973,-1.8597,-1.7909,-1.7909,-1.7568,-1.7577,-1.8053,-1.8419,-1.8636,-1.8789,-1.8891,-1.8891,-1.8789,-1.9382,-2.0091,-2.1057,-2.1598,-2.2184,-2.2769,-2.2345,-2.2389,-2.2681,-2.1086,-2.0662,-2.1117,-2.2696,-2.3881,-2.4862,-2.6117,-2.7042,-2.7598,-2.6076,-2.4715,-2.3632,-2.3603,-2.2824,-2.1919,-2.1759,-2.1467,-2.1203,-2.1203,-2.1203,-2.1437,-2.2506,0.0,0.0,0.0,0.0,-2.7481,-2.8754,-2.9632,-3.0305,-3.0729,-3.0817,-3.0817,-3.0817,-3.1271,-3.1637,-3.1637,-3.209,-3.2485,-3.2588,-3.2602,-3.2646,-3.2763,-3.2778,-3.269,-3.2471,-3.2544,-3.2515,-3.2295,-3.2485,0.0,-3.2602,-3.2705,-3.2778,-3.2778,-3.2778,-3.2778,-3.2778,-3.2778,-3.2778,-3.2778,-3.2778,-3.2778,-3.2778,-3.2778,-3.2778,-3.2778,-3.2778,-3.2837,-3.2968,-3.351,-3.3802,-3.3949,-3.449,-3.471,-3.471,-3.471,-3.471,-3.4724,0.0,0.0,0.0,0.0,0.0,0.0,0.0,0.0,-2.0562,-2.0241,0.0,0.0,0.0,0.0,0.0,-1.8878,-1.7238,-1.6226,-1.62,-1.5782,-1.5918,-1.6676,-1.7612,-1.832,-1.8803,-1.9111,-1.9111,-1.8738,-1.9111,-1.9716,-2.0579,-2.0985,-2.1803,-2.2941,-2.1774,-2.1906,-2.3003,-2.2052,-2.2023,-2.2769,-2.4701,-2.4949,-2.454,-2.8037,-2.8622,-2.7495,-2.6866,-2.6603,-2.6457,-2.5813,-2.548,-2.5242,-2.3954,-2.2462,-2.1203,-2.1203,-2.1203,-2.1203,0.0,0.0,0.0,0.0,0.0,0.0,-2.852,0.0,-2.9193,-3.0495,-3.0773,-3.0773,-3.0817,-3.1081,-3.13,-3.13,-3.1578,-3.19,-3.2222,-3.2266,-3.2383,-3.2705,-3.2749,-3.2734,-3.2734,-3.2456,-3.2266,-3.2251,-3.2266,-3.228,-3.228,-3.2588,-3.2778,-3.2778,-3.2778,-3.2778,-3.2778,-3.2778,-3.2778,-3.2778,-3.2778,-3.2778,-3.2778,-3.2778,-3.2778,-3.2778,-3.2778,-3.2968,-3.329,-3.3597,-3.3919,-3.4256,-3.4578,-3.471,-3.471,-3.471,-3.471,-3.4753,0.0,0.0,0.0,0.0,0.0,-2.0808,-2.1042,-2.0867,-2.0498,0.0,0.0,0.0,-1.8861,-1.8708,-1.842,-1.7854,-1.7698,-1.7213,-1.6277,-1.6779,-1.7183,-1.7264,-1.815,-1.8788,-1.914,-1.9228,-1.8852,-1.7844,-1.8216,-1.8289,0.0,0.0,-2.0171,-2.0715,-2.1321,-2.1759,-2.2023,-2.1057,-2.1291,-2.2418,-2.3632,-2.4818,-2.6061,-2.8212,-2.9383,-2.9881,-2.969,-2.8739,-2.745,-2.7261,-2.5871,-2.391,-2.2623,-2.1759,-2.1203,-2.1203,-2.1203,-2.1203,-2.1203,0.0,0.0,0.0,0.0,0.0,-2.5593,0.0,-2.7598,-2.9105,-2.9427,-2.9705,-3.0656,-3.089,-3.0964,-3.0964,-3.1432,-3.1827,-3.1915,-3.1929,-3.1959,-3.2061,-3.2061,-3.1973,-3.1739,-3.1841,-3.1827,0.0,-3.2017,-3.228,-3.228,-3.2588,-3.2778,-3.2778,-3.2778,-3.2778,-3.2778,-3.2778,-3.2778,-3.2778,-3.2778,-3.2778,-3.2778,-3.2778,-3.2778,-3.2778,-3.3012,-3.329,-3.3612,-3.37,-3.3919,-3.4256,-3.4578,-3.471,-3.471,-3.471,-3.4841,-3.5017,0.0,0.0,-2.1203,-2.1203,-2.1159,-2.0973,-2.0615,-2.0573,-2.0214,0.0,0.0,0.0,-1.8397,-1.8471,-1.8319,-1.7579,-1.7509,-1.6951,-1.5725,-1.5884,-1.6147,-1.6433,-1.716,-1.7791,-1.816,-1.8462,-1.8046,-1.6974,-1.7317,-1.745,-1.7515,-1.8387,-1.9237,-2.0005,-2.0641,-2.0785,-2.0587,-2.0306,-2.1057,-2.2445,-2.3673,-2.4901,-2.6135,-2.8271,-2.9237,-2.95,-3.0027,-2.9325,-2.818,-2.8851,-2.7217,-2.4657,-2.3779,-2.2637,-2.1569,-2.1291,-2.1408,-2.1584,-2.1452,-2.1511,-2.1686,-2.2008,0.0,0.0,-2.5213,0.0,0.0,0.0,-2.969,-2.9925,-3.0685,-3.0817,-3.0817,-3.0817,-3.1139,-3.1446,-3.1578,-3.1593,-3.1637,-3.1783,-3.1798,-3.1724,-3.1534,-3.1563,-3.152,-3.1329,-3.1666,-3.2002,-3.2266,-3.2588,-3.2778,-3.2778,-3.2778,-3.2778,-3.2778,-3.2778,-3.2778,-3.2778,-3.2778,-3.2778,-3.2778,-3.2778,-3.2837,-3.2983,-3.3158,-3.351,-3.3934,-3.3934,-3.4124,-3.4446,-3.4636,-3.471,-3.4724,-3.4856,-3.4929,-3.4973,0.0,0.0,-2.1046,-2.096,-2.1205,-2.097,-1.987,-1.9961,-1.9746,0.0,-1.8261,-1.8302,-1.8613,-1.9,-1.8765,-1.7611,-1.6844,-1.5964,-1.4904,-1.4168,-1.4189,-1.5036,-1.5695,-1.6241,-1.6756,-1.7347,-1.7152,-1.6197,-1.6542,-1.708,-1.7726,-1.7964,-1.8758,-2.0001,-1.9808,-1.9459,-1.8961,-1.972,-2.1003,-2.2682,-2.4202,-2.5044,-2.5692,-2.83,-2.8725,-2.8052,-2.9178,-2.9251,-2.9003,-3.0246,-2.893,-2.6661,-2.6047,-2.4364,-2.2432,-2.1569,-2.1862,-2.2359,-2.192,-2.2037,-2.233,-2.252,-2.2623,0.0,-2.5871,0.0,0.0,0.0,-3.0188,-3.0232,-3.0378,-3.0393,-3.0393,-3.0393,-3.0525,-3.0759,-3.1198,-3.1256,-3.1359,-3.1651,-3.1695,-3.1695,-3.1695,-3.1432,-3.1256,-3.1256,-3.1329,-3.1637,-3.2251,-3.2588,-3.2778,-3.2778,-3.2778,-3.2778,-3.2778,-3.2778,-3.2778,-3.2778,-3.2778,-3.2778,-3.2778,-3.2807,-3.2983,-3.3156,-3.3319,-3.3685,-3.4227,-3.4256,-3.4446,-3.471,-3.471,-3.471,-3.4739,-3.5002,-3.4958,-3.4827,-1.8595,-1.9304,-1.9891,-1.9358,-1.9331,-1.9382,-1.9527,-1.9437,-1.9109,-1.8447,-1.7565,-1.7182,-1.7627,-1.7237,-1.6852,-1.656,-1.6549,-1.5966,-1.4677,-1.5288,-1.5672,-1.5658,-1.6429,-1.7102,-1.7659,-1.7773,-1.7198,-1.5952,-1.6651,-1.6684,-1.6045,-1.7649,-1.8534,-1.878,-1.9001,-1.8919,-1.8591,-1.899,-2.0409,-2.2426,-2.3436,-2.5164,-2.7144,-2.8476,-2.9647,-3.0598,-3.0846,-3.1022,-3.0993,-2.9998,-2.9105,-2.8008,-2.5608,-2.5037,-2.4832,-2.2637,-2.2988,-2.3866,-2.274,-2.2681,-2.2828,-2.2374,-2.2652,0.0,-2.3106,-2.3501,-2.4305,0.0,-2.6179,-2.65,-2.7554,-2.773,-2.773,-2.773,-2.8593,-2.9661,-3.0759,-3.092,-3.0934,-3.1007,-3.1007,0.0,-3.1007,-3.0964,-3.092,-3.092,-3.1402,-3.1871,-3.2266,-3.2588,-3.2778,-3.2778,-3.2778,-3.2778,-3.2778,-3.2778,-3.2778,-3.2778,-3.2778,-3.2778,-3.2778,-3.3041,-3.3188,-3.3276,-3.3802,-3.4095,-3.4241,-3.4505,-3.4651,-3.471,-3.471,-3.471,-3.471,-3.4768,-3.4914,-3.5046,-1.8231,-1.8648,-1.9018,-1.8843,-1.9063,-1.9197,-1.8984,-1.8981,-1.8808,-1.8168,-1.7697,-1.7378,-1.7378,-1.7619,-1.7493,-1.6742,-1.6952,-1.6608,-1.5315,-1.5455,-1.5756,-1.6198,-1.6092,-1.6375,-1.7077,-1.6637,-1.6163,-1.57,-1.6079,-1.6361,-1.652,-1.7278,-1.8469,-2.0019,-1.8932,-1.8975,-1.9663,-1.9248,-1.988,-2.1327,-2.3634,-2.6099,-2.8549,-2.9676,-3.07,-3.1549,-3.1549,-3.1666,-3.1622,-3.0481,-2.9354,-2.8227,-2.7086,-2.6281,-2.5432,-2.3647,-2.3925,-2.4525,-2.3223,-2.2988,-2.3076,-2.293,-2.2871,0.0,0.0,-2.3618,-2.4247,-2.5725,-2.6018,-2.6266,-2.7086,-2.71,-2.7042,-2.7203,-2.8169,-2.8944,-2.9134,-3.0115,-3.0817,0.0,0.0,0.0,-3.0817,-3.0817,-3.0817,-3.0817,-3.1285,-3.1695,-3.2017,-3.2354,-3.2602,-3.2763,-3.2778,-3.2778,-3.2778,-3.2778,-3.2778,-3.2778,-3.2778,-3.2851,-3.3012,-3.3173,-3.3422,-3.3744,-3.408,-3.4314,-3.4475,-3.4636,-3.471,-3.471,-3.471,-3.471,-3.4724,-3.4871,-3.4929,-3.4929,-1.7864,-1.7981,-1.8127,-1.8235,-1.8741,-1.8884,-1.8256,-1.8446,-1.8436,-1.7825,-1.8013,-1.8099,-1.7755,-1.8936,-1.9184,-1.7984,-1.8197,-1.7878,-1.6597,-1.5725,-1.566,-1.6552,-1.5552,-1.5396,-1.6426,-1.542,-1.5011,-1.5163,-1.5323,-1.5946,-1.6903,-1.6691,-1.8184,-2.0858,-1.9154,-1.9192,-2.0524,-2.0073,-2.0288,-2.1182,-2.4428,-2.6869,-2.8725,-3.032,-3.1139,-3.1476,-3.1856,-3.1988,-3.1856,-3.1022,-2.969,-2.8388,-2.8271,-2.7378,-2.6032,-2.4379,-2.4759,-2.5359,-2.3735,-2.3427,-2.3559,-2.3515,-2.3252,-2.3179,0.0,0.0,0.0,-2.5813,0.0,0.0,0.0,0.0,0.0,0.0,0.0,0.0,0.0,-2.8754,0.0,0.0,0.0,0.0,-3.0481,-3.0451,-3.0554,-3.0803,-3.0949,-3.1256,-3.1768,-3.2163,-3.25,-3.2763,-3.2778,-3.2778,-3.2778,-3.2778,-3.2778,-3.2778,-3.2778,-3.2939,-3.3156,-3.3305,-3.3656,-3.4227,-3.4285,-3.4461,-3.471,-3.471,-3.471,-3.471,-3.471,-3.471,-3.4739,-3.4973,-3.4914,-3.4739,-1.5887,-1.6585,-1.6961,-1.6447,-1.6717,-1.705,-1.7162,-1.7413,-1.7586,-1.769,-1.8293,-1.8767,-1.8856,-2.0306,-2.1148,-2.1016,-2.0674,-1.9896,-1.8474,-1.7184,-1.6536,-1.6683,-1.5726,-1.5698,-1.6859,-1.5585,-1.4602,-1.4015,-1.4751,-1.5013,-1.4787,-1.5896,-1.7002,-1.8091,-1.9322,-1.962,-1.9319,-2.1194,-2.2994,-2.4707,-2.587,-2.6079,-2.5912,-2.8564,-2.9793,-3.0305,-3.2046,-3.2661,-3.2427,-3.092,-3.0261,-2.9588,-2.6793,-2.7495,-2.8564,-2.4437,-2.552,-2.7452,-2.4715,-2.4598,-2.492,-2.3515,-2.3764,-2.394,-2.2374,0.0,-2.3164,-2.2798,0.0,-2.3471,-2.3223,0.0,0.0,0.0,0.0,0.0,-2.4964,-2.6354,-2.7422,0.0,0.0,0.0,0.0,-2.9105,-2.9588,-3.0744,-3.0334,-3.0539,-3.1739,-3.2383,-3.2734,-3.2778,-3.2778,-3.2778,-3.2778,-3.2778,-3.2778,-3.2778,-3.2778,-3.2939,-3.3246,-3.3539,-3.3875,-3.4241,-3.4519,-3.4666,-3.471,-3.471,-3.471,-3.471,-3.471,-3.471,-3.471,-3.4739,-3.4739,-3.471,-1.5601,-1.5887,-1.6142,-1.6024,-1.618,-1.6482,-1.6926,-1.768,-1.8229,-1.8326,-1.8724,-1.8982,-1.8939,-1.9399,-1.9847,-2.0067,-1.9899,-1.9408,-1.8416,-1.7686,-1.7282,-1.7287,-1.6106,-1.585,-1.6756,-1.5547,-1.4878,-1.4817,-1.5135,0.0,0.0,0.0,-1.7265,-1.98,-2.0019,-2.1321,-2.3336,-2.3164,-2.3536,-2.4362,-2.5091,-2.514,-2.5295,-2.9456,-3.1271,-3.1651,-3.2471,-3.2778,-3.2661,-3.1988,-3.0744,-2.95,-2.9456,-2.8739,-2.7613,-2.6091,-2.631,-2.6603,-2.4613,-2.4935,-2.5461,-2.4027,-2.413,-2.4115,-2.2374,-2.214,-2.2315,-2.2418,0.0,0.0,0.0,0.0,0.0,0.0,-2.4232,0.0,0.0,0.0,-2.6778,0.0,0.0,0.0,0.0,0.0,0.0,0.0,-3.0056,-3.0232,-3.171,-3.2237,-3.2573,-3.2763,-3.2778,-3.2778,-3.2778,-3.2778,-3.2778,-3.2778,-3.2954,-3.3217,-3.3539,-3.3861,-3.4095,-3.4227,-3.4358,-3.4417,-3.4417,-3.4417,-3.4534,-3.471,-3.471,-3.471,-3.471,-3.471,-3.471,-3.471,-1.5601,-1.5601,-1.5655,-1.5888,-1.6017,-1.6291,-1.7001,-1.7776,-1.8369,-1.8562,-1.8918,-1.9133,-1.9079,-1.9574,-1.9985,-2.0405,-2.057,-2.025,-1.9393,-1.8622,-1.8254,-1.8481,-1.6761,-1.6194,-1.7085,-1.5649,-1.4955,-1.5033,-1.4964,-1.5246,0.0,0.0,-1.7152,-2.0382,-2.0367,-2.237,-2.5666,-2.4612,-2.468,-2.5476,-2.5769,-2.6266,-2.7174,-3.0495,-3.2178,-3.2778,-3.2778,-3.2778,-3.2719,-3.2354,-3.0978,-2.9632,-3.0846,-2.9603,-2.7686,-2.7627,-2.7481,-2.6954,-2.5213,-2.5564,-2.6003,-2.4247,-2.4057,-2.3881,-2.2286,-2.2008,-2.214,-2.233,-2.255,0.0,0.0,0.0,-2.2886,0.0,0.0,-2.4159,0.0,0.0,0.0,0.0,0.0,0.0,0.0,0.0,0.0,0.0,0.0,-2.9807,-3.1695,-3.2193,-3.2529,-3.2763,-3.2778,-3.2778,-3.2778,-3.2778,-3.2778,-3.2778,-3.31,-3.3422,-3.3744,-3.3978,-3.4139,-3.4212,-3.4124,-3.4139,-3.4212,-3.4212,-3.4402,-3.471,-3.471,-3.471,-3.471,-3.471,-3.471,-3.471,-1.5601,-1.5601,-1.5601,-1.5612,-1.5989,-1.6538,-1.726,-1.7195,-1.7313,-1.8024,-1.8724,-1.9316,-1.9844,-2.2088,-2.3645,-2.3821,-2.4219,-2.3951,-2.2579,-2.0575,-1.9736,-2.047,-1.7776,-1.6937,-1.8304,-1.6064,-1.4536,-1.3836,-1.3661,-1.3992,0.0,0.0,0.0,0.0,-2.0152,-2.213,-2.3787,-2.5128,-2.7466,-3.0167,-2.9471,-3.0539,-3.2354,-3.1032,-3.1388,-3.2778,-3.2778,-3.2778,-3.2573,-3.1315,-3.0832,0.0,-2.9017,-2.9544,-3.032,-2.8399,-2.9237,-3.0042,-2.7203,-2.6925,-2.6735,-2.3852,-2.3384,-2.3208,-2.1613,-2.2184,-2.2813,-2.1906,-2.2945,-2.3735,-2.2828,-2.2901,-2.2988,-2.2696,0.0,0.0,0.0,0.0,0.0,0.0,0.0,0.0,0.0,0.0,0.0,0.0,0.0,0.0,-3.1666,-3.2412,-3.2763,-3.2778,-3.2778,-3.2778,-3.2778,-3.2778,-3.2778,-3.2778,-3.31,-3.3422,-3.3729,-3.3744,-3.3919,-3.4197,-3.389,-3.3919,-3.4212,-3.4212,-3.4402,-3.471,-3.471,-3.471,-3.471,-3.471,-3.471,-3.471,-1.5888,-1.5957,-1.5968,-1.5655,-1.586,-1.642,-1.7453,-1.7669,-1.8099,-1.9122,-1.9467,-1.9854,-2.0479,-2.153,-2.2348,-2.2821,-2.3176,-2.301,-2.227,-2.0987,-2.0307,-2.0554,-1.8282,-1.7389,-1.8196,-1.6646,-1.5397,-1.4525,-1.4449,-1.4407,0.0,0.0,0.0,0.0,-1.9957,-2.2231,-2.4412,-2.4674,-2.5609,-2.6824,-2.6626,-2.8097,-3.0433,-3.0503,-3.148,-3.2675,-3.1671,-3.1951,0.0,-3.2266,-3.1534,-3.0876,-3.1198,-3.0495,-2.9544,-2.9544,-2.9544,-2.9281,-2.811,-2.871,-2.8944,-2.5813,-2.5447,-2.514,-2.2462,-2.2345,-2.2637,-2.2125,-2.2769,-2.334,-2.3003,-2.2857,-2.2754,0.0,0.0,0.0,0.0,0.0,0.0,0.0,0.0,0.0,0.0,0.0,0.0,0.0,0.0,0.0,0.0,-3.2412,-3.2778,-3.2778,-3.2778,-3.2778,-3.2778,-3.2778,-3.288,-3.3085,-3.3407,-3.3627,-3.3744,-3.3949,-3.3875,-3.3583,-3.3685,-3.3788,-3.3919,-3.4124,-3.4402,-3.471,-3.471,-3.471,-3.471,-3.471,-3.471,-3.471,-1.6158,-1.6204,-1.6215,-1.5903,-1.6118,-1.6667,-1.769,-1.8196,-1.8799,-1.98,-2.0222,-2.0565,-2.1093,-2.1534,-2.1997,-2.2535,-2.2805,-2.2665,-2.2019,-2.1405,-2.1071,-2.1071,-1.9424,-1.8735,-1.9219,-1.7809,-1.6646,-1.5774,-1.5343,-1.5104,0.0,0.0,0.0,0.0,0.0,-2.1408,-2.4135,-2.4559,-2.5641,-2.7129,-2.7645,-2.8859,0.0,0.0,-3.1282,-3.2208,0.0,-3.2023,-3.2939,-3.2939,-3.2456,-3.2002,-3.2851,-3.1959,-3.0715,-3.1227,-3.0934,-3.0261,-2.95,-3.0042,-3.0159,-2.7393,-2.7027,-2.6574,-2.3691,-2.3442,-2.3706,-2.3296,-2.334,-2.3735,-2.4657,-2.3618,0.0,0.0,0.0,0.0,0.0,-2.2374,0.0,0.0,0.0,0.0,0.0,0.0,0.0,0.0,0.0,0.0,0.0,0.0,-3.2778,-3.2778,-3.2778,-3.2778,-3.2778,-3.288,-3.3041,-3.3156,-3.3583,-3.3729,-3.3729,-3.3832,-3.37,-3.3422,-3.351,-3.3685,-3.3919,-3.4139,-3.4402,-3.471,-3.471,-3.471,-3.471,-3.471,-3.471,-3.471,-1.6377,-1.6366,-1.6387,-1.642,-1.6754,-1.727,-1.8013,-1.8713,-1.9348,-1.9941,-2.0748,-2.1426,-2.1674,-2.232,-2.2826,-2.2975,-2.33,-2.3052,-2.2159,-2.2051,-2.2051,-2.2094,-2.1136,-2.0823,-2.1319,-1.9456,-1.8132,-1.7432,-1.6215,-1.5895,0.0,0.0,0.0,0.0,-1.7731,0.0,-2.2911,-2.4714,-2.746,-3.0588,-3.1951,-3.2557,-3.2425,-3.1109,-3.0916,-3.1432,-3.2354,-3.2908,-3.3261,-3.3246,-3.3466,-3.3729,-3.3715,-3.3715,-3.3671,-3.3363,-3.3171,-3.2924,-3.1373,-3.0949,-3.0481,-2.8487,-2.799,-2.7466,-2.5242,-2.5461,-2.5959,-2.5315,-2.4715,-2.5037,-2.7378,-2.5037,0.0,0.0,0.0,0.0,0.0,0.0,0.0,0.0,0.0,0.0,0.0,0.0,0.0,0.0,0.0,0.0,0.0,0.0,-3.269,-3.2763,-3.2778,-3.2778,-3.2778,-3.3085,-3.3246,-3.3156,-3.3583,-3.3729,-3.37,-3.3393,-3.3407,-3.3685,-3.3393,-3.3627,-3.4212,-3.4241,-3.4432,-3.471,-3.471,-3.471,-3.471,-3.471,-3.471,-3.471,-1.6614,-1.7001,-1.7475,-1.783,-1.755,-1.7636,-1.8713,-1.9176,-1.9833,-2.1007,-2.1685,-2.2288,-2.288,-2.3257,-2.3504,-2.3558,-2.3795,-2.3828,-2.3591,-2.2902,-2.2826,-2.3537,-2.1976,-2.1394,-2.2051,-1.9951,-1.8702,-1.8164,-1.6614,-1.5764,-1.5525,0.0,0.0,0.0,0.0,-1.8951,-2.1183,-2.2959,-2.5783,-2.8886,-2.8256,-2.8866,-3.0118,0.0,-3.0916,-3.1291,-3.1511,-3.2418,-3.3568,-3.3319,-3.3466,-3.3685,-3.3451,-3.3539,-3.3715,-3.3627,-3.3612,-3.3466,-3.2807,-3.2617,-3.2222,-3.051,-2.9734,-2.8973,-2.7437,-2.7466,-2.7627,-2.6983,-2.7276,-2.7276,-2.6032,-2.5052,-2.4013,0.0,0.0,0.0,0.0,0.0,0.0,-2.3384,0.0,0.0,0.0,0.0,0.0,0.0,0.0,0.0,0.0,0.0,0.0,-3.2734,-3.2778,-3.2778,-3.2778,-3.3085,-3.3246,-3.3156,-3.3583,-3.3612,-3.3363,-3.3276,-3.329,-3.3378,-3.3539,-3.3846,-3.4241,-3.4475,-3.4622,-3.471,-3.471,-3.471,-3.471,-3.471,-3.471,-3.471,-1.7173,-1.769,-1.8304,-1.861,-1.8756,-1.8993,-1.9661,-1.9876,-2.0361,-2.147,-2.2126,-2.2643,-2.3042,-2.358,-2.3903,-2.3903,-2.4032,-2.3935,-2.3515,-2.3375,-2.3365,-2.3483,-2.2869,-2.2708,-2.3106,-2.1523,-2.0253,-1.9359,-1.7798,-1.6581,-1.5709,0.0,0.0,0.0,0.0,-1.8093,-1.9656,-2.3243,-2.6569,-2.9414,-2.9228,-2.977,0.0,-3.1384,-3.1797,-3.2164,-3.2076,-3.2627,-3.3495,-3.3305,-3.3466,-3.3729,-3.3685,-3.3802,-3.3949,-3.3949,-3.3949,-3.3875,-3.3539,-3.3349,-3.2938,-3.2105,-3.1505,-3.0759,-2.9325,-2.9149,-2.9178,-2.8812,-2.8593,-2.8461,-2.8432,-2.6471,-2.4159,0.0,0.0,0.0,0.0,0.0,0.0,0.0,0.0,0.0,0.0,0.0,0.0,0.0,0.0,0.0,0.0,0.0,0.0,-3.2719,-3.25,-3.2544,-3.2968,-3.288,-3.3041,-3.3466,-3.3495,-3.3422,-3.3246,-3.31,-3.3188,-3.3466,-3.3656,-3.3993,-3.4446,-3.4622,-3.471,-3.471,-3.471,-3.471,-3.4601,-3.393,-3.4118,-3.471,-1.7852,-1.839,-1.8939,-1.905,-1.9962,-2.064,-2.0737,-2.0802,-2.1071,-2.1717,-2.2428,-2.2869,-2.2869,-2.3644,-2.4161,-2.4161,-2.4183,-2.3849,-2.302,-2.3741,-2.3817,-2.2955,-2.3709,-2.4151,-2.4118,-2.3138,-2.1976,-2.0608,-1.9122,-1.7658,0.0,0.0,0.0,0.0,0.0,0.0,0.0,-2.469,-2.8541,-3.1183,-3.2179,-3.263,-3.2778,-3.2822,-3.2894,-3.2994,-3.2994,-3.3142,-3.3305,-3.3171,-3.3466,-3.3773,-3.4022,-3.4124,-3.4168,-3.412,-3.412,-3.4154,-3.3784,-3.3492,-3.3349,-3.3261,-3.3041,-3.2456,-3.0993,-3.0754,-3.0754,-3.0754,-2.9559,-2.9354,-3.1915,0.0,0.0,0.0,0.0,-2.2301,-2.3135,0.0,0.0,0.0,0.0,0.0,0.0,0.0,0.0,0.0,0.0,0.0,0.0,0.0,0.0,-3.2719,-3.2222,-3.231,-3.3115,0.0,-3.2793,-3.3539,-3.3334,-3.3217,-3.3173,-3.2939,-3.3158,-3.3729,-3.3773,-3.4047,-3.4414,-3.437,-3.4327,-3.4298,-3.4298,-3.4312,-3.4168,-3.2811,-3.3055,-3.419,-1.8315,-1.8885,-1.9327,-1.9103,-2.0091,-2.105,-2.1653,-2.2062,-2.2428,-2.2751,-2.3418,-2.386,-2.386,-2.4183,-2.4398,-2.4398,-2.457,-2.4613,-2.4441,-2.4592,-2.4527,-2.4172,-2.4312,-2.4312,-2.4118,-2.2988,-2.1889,-2.0845,-1.9036,-1.7421,0.0,0.0,0.0,0.0,0.0,0.0,-2.4061,-2.583,0.0,-3.2383,-3.169,-3.2001,-3.2793,-3.3056,-3.2759,-3.2229,-3.2229,-3.2829,-3.3612,-3.3334,-3.3466,-3.37,-3.348,-3.3597,-3.3784,-3.3678,-3.3949,-3.412,-3.3692,-3.3819,-3.3919,-3.3378,-3.3202,-3.3012,-3.2471,-3.2354,-3.2354,-3.2354,-3.212,-3.1607,-3.0568,0.0,0.0,-2.3984,-2.3662,-2.4364,-2.6354,0.0,0.0,0.0,0.0,0.0,0.0,0.0,0.0,0.0,0.0,0.0,0.0,0.0,0.0,0.0,-3.2661,0.0,0.0,0.0,-3.2895,-3.2544,-3.3012,-3.31,-3.2866,-3.3071,-3.3378,-3.3744,-3.4022,-3.3586,-3.2744,-3.2589,-3.2353,-3.2117,-3.2117,-3.2283,-3.2319,-3.2132,-3.1678,-3.1435,-1.9338,-1.9531,-1.9801,-2.0188,-2.1028,-2.1889,-2.2611,-2.3225,-2.3515,-2.3268,-2.3526,-2.3784,-2.3914,-2.4355,-2.4635,-2.4635,-2.4743,-2.4861,-2.499,-2.4872,-2.4807,-2.4829,-2.471,-2.4592,-2.4474,-2.3903,-2.2783,-2.1093,-1.9941,-1.8261,-1.6129,0.0,0.0,0.0,0.0,-1.9815,0.0,0.0,0.0,-2.9941,-3.0066,-3.037,-3.0809,-3.0474,-3.0721,-3.1248,-3.0515,-3.1374,-3.2699,-3.228,-3.228,-3.2498,-3.2513,-3.2627,-3.2722,-3.2853,-3.3044,-3.3165,-3.3137,-3.3158,-3.3277,-3.3331,-3.3133,-3.2843,-3.2967,-3.2895,-3.2778,-3.2778,-3.2778,-3.2178,-3.0217,-2.8286,0.0,-2.574,-2.4744,-2.4876,-2.7159,0.0,-2.631,0.0,0.0,0.0,0.0,0.0,0.0,0.0,0.0,0.0,0.0,0.0,0.0,0.0,0.0,0.0,0.0,0.0,0.0,-3.2778,-3.2924,-3.2997,-3.3027,-3.3173,-3.351,-3.3901,-3.3308,-3.2692,-3.2134,-3.1926,-3.172,-3.1597,-3.1669,-3.1833,-3.1717,-3.0501,-3.021,-3.0631,-2.0296,-2.0253,-2.0514,-2.134,-2.2051,-2.2708,-2.3375,-2.4032,-2.428,-2.3763,-2.3655,-2.3709,-2.3946,-2.4517,-2.4883,-2.4883,-2.4926,-2.5033,-2.5238,-2.5066,-2.5023,-2.5173,-2.499,-2.4861,-2.4807,-2.4807,-2.3774,-2.1653,-2.0974,-1.9284,-1.6678,-1.6342,0.0,0.0,0.0,0.0,0.0,0.0,-2.6592,-2.7686,-2.8799,-2.9141,-2.8997,-2.8278,-2.9115,-3.0373,-2.9363,-3.0081,-3.1478,-3.1242,-3.1193,-3.1357,-3.1609,-3.1679,-3.1749,-3.1966,-3.2155,-3.2225,-3.2427,-3.2385,-3.2485,-3.3144,-3.2817,-3.2522,-3.2991,-3.2819,-3.2675,-3.2778,-3.2778,-3.2178,-3.0217,-2.8959,0.0,0.0,-2.6091,-2.5959,0.0,0.0,0.0,0.0,0.0,0.0,0.0,0.0,0.0,0.0,0.0,0.0,0.0,0.0,0.0,0.0,0.0,-3.2295,-3.2719,0.0,-3.2602,-3.3041,-3.2924,-3.2997,-3.3156,-3.3393,-3.3547,-3.3657,-3.2422,-3.1502,-3.0889,-3.0294,-3.0254,-3.0503,-3.0717,-3.0809,-3.07,-2.8825,-2.8617,-2.9335,-2.0705,-2.1007,-2.1373,-2.2105,-2.2654,-2.3149,-2.3644,-2.414,-2.4517,-2.4657,-2.4495,-2.4452,-2.4678,-2.4969,-2.5141,-2.5141,-2.5335,-2.5464,-2.5486,-2.5464,-2.5367,-2.5184,-2.5152,-2.5033,-2.4807,-2.4807,-2.4172,-2.2793,-2.1534,-1.9854,-1.7884,-1.7077,0.0,0.0,0.0,0.0,0.0,-2.6437,-2.7748,-2.8976,-2.9411,-2.9398,-2.9128,-2.9355,-2.9679,-3.0016,-2.9898,-3.0188,-3.0536,-3.0509,-3.0848,-3.1329,-3.1357,-3.1357,-3.1338,-3.1207,-3.1471,-3.1812,-3.1661,-3.2108,-3.2603,-3.2443,-3.2345,-3.2324,-3.2508,-3.2284,-3.2232,-3.2689,-3.2778,-3.2178,-3.0217,-3.1154,-3.1183,0.0,0.0,0.0,0.0,0.0,-2.8461,-2.9954,0.0,0.0,0.0,0.0,0.0,0.0,0.0,0.0,0.0,0.0,0.0,-3.1388,0.0,-3.1285,-3.1051,-3.2163,-3.2602,-3.2383,-3.2939,-3.3217,-3.3261,-3.3861,-3.34,-3.2143,-3.2036,-3.024,-2.7185,-2.5785,-2.5822,-2.6814,-2.6997,-2.739,-2.7736,-2.7756,-2.6726,-2.5377,-2.2342,-2.2245,-2.2395,-2.3257,-2.344,-2.3731,-2.4495,-2.4764,-2.4969,-2.5206,-2.5033,-2.498,-2.5206,-2.5324,-2.5378,-2.5378,-2.5464,-2.5572,-2.5723,-2.5593,-2.5539,-2.5593,-2.5453,-2.5335,-2.5238,-2.5227,-2.4657,-2.3472,-2.2029,-2.0511,-1.8918,-1.8401,-1.8918,-2.0406,0.0,-2.3295,-2.4397,-2.5696,-2.6476,-2.695,-2.7042,-2.6732,-2.5983,-2.5495,-2.5751,-2.6225,-2.5403,-2.6805,-2.8929,-2.8603,-2.9313,-3.0437,-3.0437,-3.0437,-3.0464,-3.0407,-3.0537,-3.0695,-3.0812,-3.1066,-3.1491,-3.2371,-3.2393,-3.25,-3.3115,-3.293,-3.273,-3.2807,-3.2778,-3.2529,-3.1754,-3.1285,-3.0949,-3.07,0.0,0.0,0.0,0.0,0.0,-3.1724,0.0,-2.9895,0.0,0.0,0.0,0.0,0.0,0.0,0.0,0.0,0.0,-2.9822,0.0,-3.2237,-3.1124,-3.2398,-3.2983,-3.2866,-3.3115,-3.3451,-3.3832,-3.4095,-3.2901,-3.0621,-2.9432,-2.7582,-2.5462,-2.5581,-2.5822,-2.6312,-2.6735,-2.7017,-2.7201,-2.6222,-2.5398,-2.4759,-2.3558,-2.3278,-2.3321,-2.4344,-2.4269,-2.4334,-2.5152,-2.5216,-2.526,-2.5486,-2.5378,-2.5335,-2.5496,-2.5518,-2.5518,-2.5518,-2.5518,-2.5593,-2.5755,-2.5615,-2.5593,-2.5755,-2.5604,-2.5518,-2.5518,-2.5518,-2.5109,-2.4269,-2.2912,-2.1663,-2.0533,-2.0016,-2.0576,0.0,-2.3052,-2.3784,-2.4323,-2.4875,-2.5032,-2.5032,-2.474,-2.4156,-2.3473,-2.2681,-2.3062,-2.3813,-2.2877,-2.4502,-2.7251,-2.7354,-2.8215,-2.9196,-2.9761,-2.9913,-2.9913,-2.9913,-2.9913,-2.9967,-3.0167,-3.0287,-3.0748,-3.1987,-3.2223,-3.2373,-3.3389,-3.3282,-3.2979,-3.2837,-3.2778,-3.2778,-3.2778,-3.1651,-3.1007,-3.1915,0.0,0.0,0.0,-3.2134,0.0,-3.2193,-3.1446,-3.0817,-3.0525,0.0,0.0,0.0,0.0,0.0,0.0,0.0,0.0,0.0,0.0,0.0,-3.1329,-3.2588,-3.3246,-3.3156,-3.3436,-3.3773,-3.412,-3.3272,-3.1488,-2.8775,-2.691,-2.5429,-2.4437,-2.5262,-2.5639,-2.5697,-2.6281,-2.6375,-2.6179,-2.509,-2.4396,-2.3817,-2.3924,-2.3903,-2.4107,-2.5292,-2.5109,-2.4958,-2.5443,-2.5324,-2.526,-2.5486,-2.5518,-2.5518,-2.5518,-2.5518,-2.5518,-2.5518,-2.5518,-2.5518,-2.5518,-2.5518,-2.5518,-2.5518,-2.5518,-2.5518,-2.5518,-2.5518,-2.5518,-2.5496,-2.4301,-2.3472,-2.2889,-2.1803,-2.2137,-2.381,-2.3821,-2.4398,-2.5399,-2.4438,-2.4058,-2.3961,-2.2877,-2.2387,-2.2387,-2.2387,-2.3062,-2.3931,-2.392,-2.4349,-2.5395,-2.7392,-2.7706,-2.7512,-2.9363,-2.9913,-2.9913,-2.9913,-2.9913,-2.9913,-2.9913,-3.014,-3.0617,-3.1358,-3.1519,-3.1877,-3.3215,-3.2985,-3.2531,-3.2748,-3.2778,-3.2778,-3.2778,-3.2749,-3.2222,-3.0724,0.0,-3.2193,-3.068,-3.0656,0.0,-3.0846,-2.8315,-2.77,-3.0539,0.0,0.0,0.0,0.0,0.0,0.0,0.0,0.0,-3.1695,-3.149,0.0,-3.1315,-3.2588,-3.3246,-3.3246,-3.389,-3.4212,-3.412,-3.1196,-2.8737,-2.6756,-2.5195,-2.4334,-2.4118,-2.4118,-2.4118,-2.4183,-2.4893,-2.4725,-2.4001,-2.4556,-2.3581,-2.1924,-2.5012,-2.5012,-2.5076,-2.5453,-2.5389,-2.5346,-2.5496,-2.5453,-2.5432,-2.5507,-2.5518,-2.5518,-2.5518,-2.5518,-2.5518,-2.5518,-2.5518,-2.5518,-2.5518,-2.5518,-2.5518,-2.5518,-2.5518,-2.5518,-2.5518,-2.5518,-2.5518,-2.5518,0.0,0.0,-2.3515,-2.3311,-2.3838,-2.4958,-2.4958,-2.5163,-2.5421,-2.4448,-2.3961,-2.3961,-2.2779,-2.1995,-2.1308,-2.1308,-2.1112,-2.0718,-2.0718,-2.1842,-2.3518,-2.5646,-2.6964,-2.8152,-2.9952,-3.0234,-2.9913,-2.9913,-2.9913,-2.9913,-2.9913,-2.998,-3.0217,-3.1045,-3.1642,-3.2281,-3.3022,-3.3259,-3.33,-3.3069,-3.31,-3.3027,-3.2807,-3.2778,-3.2602,-3.209,-3.2427,-3.2588,-3.2076,-3.209,-3.2149,-3.2149,-3.1344,-3.1227,0.0,-3.0451,0.0,0.0,0.0,0.0,0.0,0.0,0.0,0.0,-3.1651,0.0,-3.1651,-3.2705,-3.3466,-3.3905,-3.4124,-3.3643,-3.2594,-2.8718,-2.6491,-2.5614,-2.3241,-2.2132,-2.2073,-2.2073,-2.2241,-2.2452,-2.2912,-2.3082,-2.3058,-2.2673,-2.2292,-2.1654,-2.5518,-2.5518,-2.5518,-2.5518,-2.5518,-2.5518,-2.5518,-2.5518,-2.5518,-2.5518,-2.5518,-2.5518,-2.5518,-2.5518,-2.5518,-2.5518,-2.5518,-2.5518,-2.5518,-2.5518,-2.5518,-2.5518,-2.5518,-2.5518,-2.5518,-2.5518,0.0,-2.5518,-2.4775,-2.4409,-2.442,-2.457,-2.4958,-2.5518,-2.5129,-2.4935,-2.4838,-2.3365,-2.2779,-2.2681,-2.171,-2.0826,-2.0235,-2.0235,-1.9849,-1.9256,-1.9256,-2.0136,-2.1594,-2.3628,-2.5495,-2.7262,-2.9085,-2.9887,-3.0207,-2.998,-2.9913,-2.9913,-2.9913,-2.9913,-3.007,-3.0908,-3.1491,-3.2022,-3.2591,-3.3177,-3.3451,-3.2952,-3.3151,-3.3273,-3.2904,-3.2952,-3.2983,-3.3115,-3.2924,-3.2822,-3.2939,-3.2954,-3.2763,-3.228,0.0,0.0,0.0,-3.1783,-3.1227,0.0,0.0,0.0,0.0,0.0,0.0,-3.0525,-3.2295,-3.2954,-3.2354,-3.3188,-3.3817,-3.4227,-3.3758,-3.217,-2.9505,-2.6794,-2.4862,-2.3632,-2.1835,-2.114,-2.114,-2.114,-2.1292,-2.1687,-2.2,-2.2047,-2.2058,-2.167,-2.1275,-2.0858,-2.5518,-2.5518,-2.5518,-2.5518,-2.5518,-2.5518,-2.5518,-2.5518,-2.5518,-2.5518,-2.5518,-2.5518,-2.5518,-2.5518,-2.5518,-2.5518,-2.5518,-2.5518,-2.5518,-2.5518,-2.5518,-2.5518,-2.5518,-2.5518,-2.5518,-2.5518,-2.5518,-2.5518,-2.5518,-2.5518,-2.5518,-2.5421,-2.5421,-2.5324,-2.4351,-2.3863,-2.3766,-2.1701,-2.0826,-2.0727,-1.975,-1.9256,-1.9256,-1.9256,-1.9256,-1.9256,-1.9256,-1.9256,-1.9651,-2.1701,-2.3498,-2.5193,-2.7146,-2.9048,-3.0517,-2.9997,-2.9927,-2.994,-2.9927,-2.9913,-3.007,-3.0791,-3.1053,-3.1345,-3.2119,-3.2888,-3.3215,-3.2365,-3.3028,-3.3576,-3.3105,-3.3118,-3.3378,-3.3685,-3.3232,-3.2939,-3.3232,-3.3186,-3.2822,-3.1622,0.0,0.0,-3.1929,-3.1929,-3.2383,0.0,0.0,0.0,0.0,0.0,-3.0364,-3.3129,-3.3232,-3.3171,-3.3186,-3.3905,-3.4134,-3.4071,-3.2606,-2.9759,-2.56,-2.5307,-2.3655,-2.0955,-2.0955,-2.0872,-2.0881,-2.0899,-2.1142,-2.1515,-2.1835,-2.1477,-2.0942,-2.1234,-2.0705,-1.9784,-2.5518,-2.5518,-2.5518,-2.5518,-2.5518,-2.5518,-2.5518,-2.5518,-2.5518,-2.5518,-2.5518,-2.5518,-2.5518,-2.5518,-2.5518,-2.5518,-2.5518,-2.5518,-2.5518,-2.5518,-2.5518,-2.5518,-2.5518,-2.5518,-2.5518,-2.5518,-2.5518,-2.5518,-2.5518,-2.5518,-2.5518,-2.474,-2.4351,-2.4351,-2.3268,-2.2779,-2.2681,-2.1308,-2.0826,-2.0727,-1.975,-1.9256,-1.9256,-1.9256,-1.9256,-1.9256,-1.9256,-1.9256,-1.9668,-2.1965,-2.2856,-2.3635,-2.7245,-2.8518,-2.8881,-2.9688,-3.0074,-3.0207,-2.998,-2.9913,-2.9927,-3.0187,-3.0632,-3.1386,-3.2385,-3.2752,-3.278,-3.2617,-3.308,-3.3484,-3.3057,-3.3307,-3.3641,-3.3715,-3.3597,-3.3524,-3.3612,-3.3612,-3.3495,-3.3188,-3.3232,-3.3276,-3.3276,-3.3276,-3.2895,0.0,0.0,0.0,-3.1432,-3.1212,-3.1651,-3.2851,-3.3115,-3.3363,-3.3612,-3.4022,-3.3772,-3.2755,-2.9173,-2.6849,-2.5506,-2.2611,-2.0814,-1.9944,-1.9201,-1.8998,-1.915,-1.9199,-1.9392,-1.9628,-1.9947,-2.0033,-1.9833,-2.0124,-2.0086,-1.9979,-2.5518,-2.5518,-2.5518,-2.5518,-2.5518,-2.5518,-2.5518,-2.5518,-2.5518,-2.5518,-2.5518,-2.5518,-2.5518,-2.5518,-2.5518,-2.5518,-2.5518,-2.5518,-2.5518,-2.5518,-2.5518,-2.5518,-2.5518,-2.5518,-2.5518,-2.5518,-2.5227,-2.4838,-2.4838,-2.4546,-2.4048,-2.3561,-2.3268,-2.317,-2.2191,-2.1701,-2.1603,-2.053,-2.0136,-2.0046,-1.9553,-1.9256,-1.9256,-1.9256,-1.9256,-1.9256,-1.9256,-1.9256,-1.947,-2.0742,-2.1774,-2.274,-2.4853,-2.6827,-2.8387,-2.8607,-2.9482,-3.0301,-2.9993,-2.9913,-2.9913,-2.9913,-3.0321,-3.089,-3.1491,-3.1932,-3.2163,-3.2301,-3.2994,-3.3457,-3.3429,-3.3683,-3.4007,-3.4154,-3.3919,-3.3788,-3.3934,-3.3949,-3.3949,-3.3949,-3.3949,-3.3949,-3.3949,-3.3817,-3.3305,-3.228,-3.2354,0.0,-3.1944,-3.2266,-3.2617,-3.2983,-3.3451,-3.3773,-3.3949,-3.3608,-3.2418,-3.054,-2.7522,-2.5001,-2.3064,-2.0971,-1.9663,-1.9015,-1.8456,-1.833,-1.8582,-1.868,-1.8923,-1.924,-1.9354,-1.95,-1.9638,-1.9654,-1.9784,-1.9922,-2.5518,-2.5518,-2.5518,-2.5518,-2.5518,-2.5518,-2.5518,-2.5518,-2.5518,-2.5518,-2.5518,-2.5518,-2.5518,-2.5518,-2.5518,-2.5518,-2.5518,-2.5518,-2.5518,-2.5518,-2.5518,-2.5518,-2.5518,-2.5518,-2.5518,-2.5324,-2.474,-2.3766,-2.3766,-2.3268,-2.2387,-2.2191,-2.2191,-2.2093,-2.1022,-2.053,-2.053,-1.9651,-1.9256,-1.9256,-1.9256,-1.9256,-1.9256,-1.9256,-1.9256,-1.9256,-1.9256,-1.9256,-1.9256,-1.9256,-2.0423,-2.1949,-2.1966,-2.4821,-2.8033,-2.7469,-2.8828,-3.0354,-3.0007,-2.9913,-2.9913,-2.9913,-3.01,-3.0301,-3.0354,-3.0907,-3.1532,-3.1754,-3.2673,-3.3436,-3.3614,-3.3859,-3.4115,-3.4236,-3.3896,-3.3678,-3.3861,-3.3974,-3.4105,-3.4154,-3.4139,-3.4124,-3.408,-3.3817,-3.3524,-3.3202,-3.2948,-3.2977,-3.3156,-3.3064,-3.3122,-3.3212,-3.3842,-3.3964,-3.3822,-3.2445,-3.0527,-2.8093,-2.6141,-2.3435,-2.0202,-1.9905,-1.9159,-1.8176,-1.8208,-1.8428,-1.8769,-1.8818,-1.9094,-1.9467,-1.9402,-1.9516,-1.9695,-1.9597,-1.967,-1.9833,-2.5518,-2.5518,-2.5518,-2.5518,-2.5518,-2.5518,-2.5518,-2.5518,-2.5518,-2.5518,-2.5518,-2.5518,-2.5518,-2.5518,-2.5518,-2.5518,-2.5518,-2.5518,-2.5518,-2.5518,-2.5518,-2.5518,-2.5518,-2.5518,-2.5518,-2.4643,-2.3658,-2.2681,-2.2681,-2.2583,-2.2387,-2.1505,-2.1022,-2.1022,-1.9947,-1.9553,-1.9553,-1.9355,-1.9256,-1.9256,-1.9256,-1.9256,-1.9256,-1.9256,-1.9256,-1.9256,-1.9256,-1.9256,-1.9256,-1.9256,-1.9553,-2.0029,-2.1744,-2.3987,-2.6234,-2.731,-2.9119,-3.0608,-3.006,-2.9913,-2.9913,-2.9913,-2.9953,-3.0047,-3.0301,-3.0849,-3.114,-3.098,-3.1978,-3.2715,-3.2398,-3.2859,-3.3072,-3.2155,-3.2697,-3.3059,-3.231,-3.2988,-3.3663,-3.3755,-3.3802,-3.37,-3.3422,-3.3349,-3.3188,-3.2866,-3.1921,-3.1881,-3.3156,-3.2464,-3.2482,-3.3421,-3.3521,-3.3121,-3.2029,-3.0051,-2.8236,-2.632,-2.2852,-2.0756,-1.9991,-1.8955,-1.8387,-1.8184,-1.8338,-1.8615,-1.8964,-1.9264,-1.9354,-1.9345,-1.9776,-1.9695,-1.9378,-1.9646,-1.9865,-2.0028,-2.5518,-2.5518,-2.5518,-2.5518,-2.5518,-2.5518,-2.5518,-2.5518,-2.5518,-2.5518,-2.5518,-2.5518,-2.5518,-2.5518,-2.5518,-2.5518,-2.5518,-2.5227,-2.474,-2.5227,-2.5518,-2.5518,-2.4935,-2.4448,-2.3853,-2.3365,-2.2583,-2.1514,-2.1514,-2.1219,-2.0727,-2.0235,-1.9947,-1.9947,-1.9553,-1.9256,-1.9256,-1.9256,-1.9256,-1.9256,-1.9256,-1.9256,-1.9256,-1.9256,-1.9256,-1.9256,-1.9256,-1.9256,-1.9256,-1.9256,-1.9256,-1.9454,-2.0423,-2.2172,-2.4141,-2.5816,-2.8155,-3.0261,-2.9993,-2.9913,-2.9913,-2.9913,-2.9913,-2.9953,-3.0087,-3.0294,-3.0556,-3.0853,-3.1395,-3.1955,-3.2274,-3.2594,-3.2583,-3.2217,-3.269,-3.2916,-3.2508,-3.3118,-3.363,-3.3653,-3.3311,-3.3028,-3.3057,-3.2147,-3.161,-3.1652,-3.1413,-3.146,-3.2084,-3.2561,-3.2985,-3.3341,-3.2283,-3.1382,-3.0838,-2.7807,-2.5578,-2.4238,-2.145,-1.9854,-1.9192,-1.8538,-1.8176,-1.8192,-1.8476,-1.8801,-1.9151,-1.941,-1.9524,-1.9557,-1.9711,-1.9613,-1.9419,-1.9581,-1.9825,-2.0068,-2.5518,-2.5518,-2.5518,-2.5518,-2.5518,-2.5518,-2.5518,-2.5518,-2.5518,-2.5518,-2.5518,-2.5518,-2.5518,-2.5518,-2.5518,-2.5518,-2.5324,-2.4838,-2.4058,-2.4448,-2.474,-2.474,-2.4048,-2.317,-2.2093,-2.1995,-2.1505,-2.0432,-2.0432,-2.0046,-1.9256,-1.9256,-1.9256,-1.9256,-1.9256,-1.9256,-1.9256,-1.9256,-1.9256,-1.9256,-1.9256,-1.9256,-1.9256,-1.9256,-1.9256,-1.9256,-1.9256,-1.9256,-1.9256,-1.9256,-1.9256,-1.9256,-1.9256,-2.0718,-2.2614,-2.3936,-2.662,-2.9363,-2.9747,-2.9913,-2.9913,-2.9913,-2.9913,-2.9913,-2.9913,-3.0003,-3.025,-3.075,-3.0936,-3.1309,-3.2038,-3.2089,-3.1936,-3.1903,-3.226,-3.2373,-3.2204,-3.2732,-3.2976,-3.2597,-3.2022,-3.154,-3.1372,-3.0633,-2.9952,-2.9621,-3.0729,-3.1234,-3.0889,-3.2118,-3.2738,-3.2286,-3.0838,-2.9683,-2.8632,-2.5589,-2.344,-2.224,-2.0485,-1.9175,-1.8387,-1.8241,-1.8225,-1.8322,-1.8647,-1.8988,-1.9329,-1.9508,-1.9638,-1.9711,-1.9613,-1.9549,-1.9524,-1.9613,-1.9825,-2.0076,-2.5518,-2.5518,-2.5518,-2.5518,-2.5518,-2.5518,-2.5518,-2.5518,-2.5518,-2.5518,-2.5518,-2.5518,-2.5518,-2.5518,-2.5518,-2.5518,-2.4643,-2.4058,-2.3961,-2.317,-2.2583,-2.2583,-2.2583,-2.1995,-2.0924,-2.0924,-2.0432,-1.9454,-1.9454,-1.9355,-1.9256,-1.9256,-1.9256,-1.9256,-1.9256,-1.9256,-1.9256,-1.9256,-1.9256,-1.9256,-1.9256,-1.9256,-1.9256,-1.9256,-1.9256,-1.9256,-1.9256,-1.9256,-1.9256,-1.9256,-1.9256,-1.9256,-1.9256,-2.0718,-2.2321,-2.221,-2.467,-2.775,-2.944,-2.9913,-2.9913,-2.9913,-2.9913,-2.9913,-2.9913,-3.0272,-3.0451,-3.003,-3.0605,-3.1004,-3.059,-3.0713,-3.0523,-2.9499,-3.0258,-3.0673,-2.9773,-3.0585,-3.0718,-2.9208,-2.9013,-2.8357,-2.6655,-2.8551,-2.8922,-2.6503,-2.9386,-3.0782,-2.9738,-3.0587,-3.0661,-2.96,-2.9874,-2.8248,-2.4407,-2.3389,-2.2135,-2.0455,-1.9207,-1.8457,-1.8192,-1.8184,-1.8363,-1.8696,-1.8883,-1.9167,-1.9508,-1.9695,-1.9678,-1.9549,-1.9703,-1.9662,-1.9557,-1.9898,-2.0044,-2.0093,-2.5518,-2.5518,-2.5518,-2.5518,-2.5518,-2.5518,-2.5518,-2.5518,-2.5518,-2.5518,-2.5518,-2.5518,-2.5518,-2.4935,-2.4546,-2.4546,-2.3561,-2.2681,-2.2093,-2.1603,-2.1415,-2.1415,-2.1415,-2.0924,-1.9849,-1.9849,-1.9651,-1.9256,-1.9256,-1.9256,-1.9256,-1.9256,-1.9256,-1.9256,-1.9256,-1.9256,-1.9256,-1.9256,-1.9256,-1.9256,-1.9256,-1.9256,-1.9256,-1.9256,-1.9256,-1.9256,-1.9256,-1.9256,-1.9256,-1.9256,-1.9256,-1.9256,-1.9256,-1.984,-2.0683,-2.1638,-2.3752,-2.5926,-2.6422,-2.8248,-2.9644,-2.8436,-2.9002,-2.9913,-2.9913,-3.0003,-2.981,-2.8346,-2.8332,-2.8186,-2.6973,-2.7695,-2.8355,-2.8079,-2.85,-2.8757,-2.8563,-2.8035,-2.7585,-2.7083,-2.6736,-2.6655,-2.6828,-2.6296,-2.5889,-2.5663,-2.6613,-2.6862,-2.6094,-2.7049,-2.6817,-2.5066,-2.526,-2.4581,-2.2955,-2.1169,-1.9923,-1.9296,-1.8609,-1.8241,-1.8184,-1.8412,-1.859,-1.8744,-1.9142,-1.9386,-1.9524,-1.9711,-1.9678,-1.9516,-1.9589,-1.9573,-1.954,-1.98,-1.9971,-2.0093,-2.5518,-2.5518,-2.5518,-2.5518,-2.5518,-2.5518,-2.5518,-2.5518,-2.5518,-2.5518,-2.5227,-2.5032,-2.5032,-2.4146,-2.3473,-2.3473,-2.2485,-2.1603,-2.0826,-2.053,-2.0333,-2.0333,-2.0333,-2.0046,-1.9363,-1.9256,-1.9256,-1.9256,-1.9256,-1.9256,-1.9256,-1.9256,-1.9256,-1.9256,-1.9256,-1.9256,-1.9256,-1.9256,-1.9256,-1.9256,-1.9256,-1.9256,-1.9256,-1.9256,-1.9256,-1.9256,-1.9256,-1.9256,-1.9256,-1.9256,-1.9256,-1.9256,-1.9256,-1.9256,-1.9528,-2.0747,-2.249,-2.3834,-2.3014,-2.5515,-2.7859,-2.6473,-2.7583,-2.8809,-2.8166,-2.8061,-2.7723,-2.6356,-2.6118,-2.5742,-2.4557,-2.5318,-2.6235,-2.641,-2.6627,-2.681,-2.6896,-2.5982,-2.5235,-2.4713,-2.4472,-2.4377,-2.4715,-2.3977,-2.3372,-2.3531,-2.4591,-2.4979,-2.4407,-2.4494,-2.392,-2.2466,-2.1781,-2.1397,-2.1397,-1.9725,-1.8777,-1.872,-1.8412,-1.8233,-1.8184,-1.8558,-1.8785,-1.8923,-1.9394,-1.9597,-1.9605,-1.9735,-1.9646,-1.9435,-1.9435,-1.95,-1.9613,-1.9743,-1.9938,-2.0166,-2.5518,-2.5518,-2.5518,-2.5518,-2.5518,-2.5518,-2.5518,-2.5518,-2.5518,-2.5518,-2.4643,-2.3961,-2.3961,-2.3072,-2.2387,-2.2387,-2.1415,-2.0826,-2.0826,-1.9849,-1.9256,-1.9256,-1.9256,-1.9256,-1.9256,-1.9256,-1.9256,-1.9256,-1.9256,-1.9256,-1.9256,-1.9256,-1.9256,-1.9256,-1.9256,-1.9256,-1.9256,-1.9256,-1.9256,-1.9256,-1.9256,-1.9256,-1.9256,-1.9256,-1.9256,-1.9256,-1.9256,-1.9256,-1.9256,-1.9256,-1.9256,-1.9256,-1.9256,-1.9256,-1.9256,-1.9256,-2.0481,-2.1477,-1.9564,-2.1713,-2.4522,-2.437,-2.5605,-2.6435,-2.4419,-2.4144,-2.4241,-2.4016,-2.4144,-2.423,-2.4005,-2.4155,-2.4305,-2.4305,-2.4415,-2.4576,-2.4576,-2.4576,-2.3904,-2.2124,-2.1863,-2.118,-1.9437,-2.1575,-2.2065,-1.9454,-2.3511,-2.5926,-2.5464,-2.3531,-2.2368,-2.2368,-2.0432,-1.9256,-1.9256,-1.9077,-1.8891,-1.872,-1.8541,-1.8355,-1.8192,-1.8558,-1.8923,-1.9281,-1.9638,-1.9792,-1.9792,-1.9792,-1.9581,-1.9256,-1.9264,-1.9484,-1.9792,-1.9792,-2.002,-2.032,-2.5518,-2.5518,-2.5518,-2.5518,-2.5518,-2.5518,-2.5518,-2.4935,-2.4448,-2.4448,-2.3561,-2.2877,-2.2877,-2.1897,-2.1317,-2.1317,-2.0333,-1.975,-1.975,-1.9454,-1.9256,-1.9256,-1.9256,-1.9256,-1.9256,-1.9256,-1.9256,-1.9256,-1.9256,-1.9256,-1.9256,-1.9256,-1.9256,-1.9256,-1.9256,-1.9256,-1.9256,-1.9256,-1.9256,-1.9256,-1.9256,-1.9256,-1.9256,-1.9256,-1.9256,-1.9256,-1.9256,-1.9256,-1.9256,-1.9256,-1.9256,-1.9256,-1.9256,-1.9256,-1.9256,-1.9256,-1.9708,-1.9953,-1.9372,-2.0871,-2.2671,-2.2446,-2.3843,-2.5202,-2.4549,-2.4509,-2.4072,-2.2695,-2.2443,-2.2,-2.0544,-2.1518,-2.2492,-2.2387,-2.2541,-2.2639,-2.27,-2.1481,-2.0509,-2.0124,-2.0051,-2.0175,-2.0333,-2.0423,-2.0423,-2.0333,-2.1005,-2.1299,-2.1201,-2.0522,-2.0235,-2.0235,-1.9651,-1.9256,-1.9256,-1.8956,-1.8777,-1.872,-1.8412,-1.8363,-1.8574,-1.8931,-1.9297,-1.9646,-1.9882,-1.9914,-1.9792,-1.9792,-1.9581,-1.9289,-1.9532,-1.9695,-1.9808,-1.9938,-2.0125,-2.032,-2.5518,-2.5518,-2.5518,-2.5518,-2.5518,-2.5324,-2.4935,-2.4351,-2.3863,-2.3463,-2.2387,-2.1799,-2.1799,-2.0826,-2.0235,-2.0235,-1.9651,-1.9256,-1.9256,-1.9256,-1.9256,-1.9256,-1.9256,-1.9256,-1.9256,-1.9256,-1.9256,-1.9256,-1.9256,-1.9256,-1.9256,-1.9256,-1.9256,-1.9256,-1.9256,-1.9256,-1.9256,-1.9256,-1.9256,-1.9256,-1.9256,-1.9256,-1.9256,-1.9256,-1.9256,-1.9256,-1.9256,-1.9256,-1.9256,-1.9256,-1.9256,-1.9256,-1.9256,-1.9256,-1.9256,-1.9256,-1.9256,-1.9256,-1.9256,-2.0051,-2.08,-2.0676,-2.2049,-2.3253,-2.241,-2.2373,-2.203,-2.081,-2.0577,-2.0229,-1.8929,-1.9722,-2.063,-2.0622,-2.0693,-2.0791,-2.0818,-1.9868,-1.9134,-1.9248,-1.9256,-1.9553,-2.0136,-1.9651,-1.9553,-2.0136,-1.9651,-1.9256,-1.9256,-1.9256,-1.9256,-1.9256,-1.9256,-1.9256,-1.9256,-1.8972,-1.8826,-1.8826,-1.8598,-1.8606,-1.8842,-1.9272,-1.9589,-1.98,-1.9987,-1.9963,-1.9784,-1.9711,-1.9516,-1.9289,-1.9573,-1.9727,-1.9817,-1.9995,-2.0174,-2.032,-2.5518,-2.5518,-2.5518,-2.5518,-2.5421,-2.5032,-2.4156,-2.3863,-2.3365,-2.2387,-2.1317,-2.0629,-2.0629,-1.9849,-1.9256,-1.9256,-1.9256,-1.9256,-1.9256,-1.9256,-1.9256,-1.9256,-1.9256,-1.9256,-1.9256,-1.9256,-1.9256,-1.9256,-1.9256,-1.9256,-1.9256,-1.9256,-1.9256,-1.9256,-1.9256,-1.9256,-1.9256,-1.9256,-1.9256,-1.9256,-1.9256,-1.9256,-1.9256,-1.9256,-1.9256,-1.9256,-1.9256,-1.9256,-1.9256,-1.9256,-1.9256,-1.9256,-1.9256,-1.9256,-1.9256,-1.9256,-1.9256,-1.9256,-1.9256,-1.9256,-1.9256,-1.9256,-2.035,-2.1037,-1.9154,-1.8891,-1.8964,-1.8801,-1.8899,-1.8956,-1.8801,-1.8899,-1.9004,-1.9004,-1.9151,-1.9256,-1.9256,-1.9256,-1.9256,-1.9256,-1.9256,-1.9256,-1.9256,-1.9256,-1.9256,-1.9256,-1.9256,-1.9256,-1.9256,-1.9256,-1.9256,-1.9256,-1.924,-1.9232,-1.9232,-1.9037,-1.8956,-1.9004,-1.8972,-1.8988,-1.9045,-1.954,-1.9784,-1.9825,-1.9995,-1.9963,-1.9776,-1.9589,-1.941,-1.9281,-1.9467,-1.9638,-1.9817,-2.0011,-2.019,-2.032,-2.5518,-2.5518,-2.5518,-2.5518,-2.4838,-2.4253,-2.4058,-2.2583,-2.1415,-2.1219,-2.0235,-1.9651,-1.9651,-1.9454,-1.9256,-1.9256,-1.9256,-1.9256,-1.9256,-1.9256,-1.9256,-1.9256,-1.9256,-1.9256,-1.9256,-1.9256,-1.9256,-1.9256,-1.9256,-1.9256,-1.9256,-1.9256,-1.9256,-1.9256,-1.9256,-1.9256,-1.9256,-1.9256,-1.9256,-1.9256,-1.9256,-1.9256,-1.9256,-1.9256,-1.9256,-1.9256,-1.9256,-1.9256,-1.9256,-1.9256,-1.9256,-1.9256,-1.9256,-1.9256,-1.9256,-1.9256,-1.9256,-1.9256,-1.9256,-1.9256,-1.9256,-1.9256,-1.9593,-1.9723,-1.9241,-1.9175,-1.9191,-1.9151,-1.9175,-1.9183,-1.9151,-1.9175,-1.9199,-1.9199,-1.9232,-1.9256,-1.9256,-1.9256,-1.9256,-1.9256,-1.9256,-1.9256,-1.9256,-1.9256,-1.9256,-1.9256,-1.9256,-1.9256,-1.9256,-1.9256,-1.9256,-1.9256,-1.9118,-1.9045,-1.9045,-1.8728,-1.8777,-1.9199,-1.8915,-1.8996,-1.9402,-1.9516,-1.9735,-2.0011,-2.0052,-1.9963,-1.9776,-1.9589,-1.941,-1.9289,-1.9605,-1.9752,-1.9825,-2.015,-2.0288,-2.032,-2.5518,-2.5518,-2.5324,-2.4838,-2.4351,-2.3668,-2.2583,-2.1505,-2.0629,-2.0136,-1.9651,-1.9256,-1.9256,-1.9256,-1.9256,-1.9256,-1.9256,-1.9256,-1.9256,-1.9256,-1.9256,-1.9256,-1.9256,-1.9256,-1.9256,-1.9256,-1.9256,-1.9256,-1.9256,-1.9256,-1.9256,-1.9256,-1.9256,-1.9256,-1.9256,-1.9256,-1.9256,-1.9256,-1.9256,-1.9256,-1.9256,-1.9256,-1.9256,-1.9256,-1.9256,-1.9256,-1.9256,-1.9256,-1.9256,-1.9256,-1.9256,-1.9256,-1.9256,-1.9256,-1.9256,-1.9256,-1.9256,-1.9256,-1.9256,-1.9256,-1.9256,-1.9256,-1.9256,-1.9256,-1.9256,-1.9256,-1.9256,-1.9256,-1.9256,-1.9256,-1.9256,-1.9256,-1.9256,-1.9256,-1.9256,-1.9256,-1.9256,-1.9256,-1.9256,-1.9256,-1.9256,-1.9256,-1.9256,-1.9256,-1.9256,-1.9256,-1.9256,-1.9256,-1.9256,-1.9175,-1.9126,-1.9126,-1.8956,-1.8899,-1.898,-1.8801,-1.8931,-1.9378,-1.9021,-1.9077,-1.9516,-1.9605,-1.98,-2.006,-1.9882,-1.98,-1.9768,-1.95,-1.9386,-1.941,-1.9687,-1.9841,-1.9955,-2.0223,-2.032,-2.032,-2.5518,-2.5324,-2.4935,-2.4156,-2.3668,-2.2877,-2.1121,-2.0629,-2.0235,-1.9454,-1.9256,-1.9256,-1.9256,-1.9256,-1.9256,-1.9256,-1.9256,-1.9256,-1.9256,-1.9256,-1.9256,-1.9256,-1.9256,-1.9256,-1.9256,-1.9256,-1.9256,-1.9256,-1.9256,-1.9256,-1.9256,-1.9256,-1.9256,-1.9256,-1.9256,-1.9256,-1.9256,-1.9256,-1.9256,-1.9256,-1.9256,-1.9256,-1.9256,-1.9256,-1.9256,-1.9256,-1.9256,-1.9256,-1.9256,-1.9256,-1.9256,-1.9256,-1.9256,-1.9256,-1.9256,-1.9256,-1.9256,-1.9256,-1.9256,-1.9256,-1.9256,-1.9256,-1.9256,-1.9256,-1.9256,-1.9256,-1.9256,-1.9256,-1.9256,-1.9256,-1.9256,-1.9256,-1.9256,-1.9256,-1.9256,-1.9256,-1.9256,-1.9256,-1.9256,-1.9256,-1.9256,-1.9256,-1.9256,-1.9256,-1.9256,-1.9256,-1.9256,-1.9248,-1.9216,-1.9061,-1.8972,-1.8939,-1.8801,-1.8793,-1.8939,-1.8939,-1.9102,-1.9419,-1.9118,-1.9167,-1.9516,-1.9703,-1.9873,-2.0003,-1.9695,-1.9646,-1.976,-1.9402,-1.9362,-1.9532,-1.9719,-1.9906,-2.0085,-2.0255,-2.032,-2.032,-2.5518,-2.4838,-2.4156,-2.4058,-2.2485,-2.1121,-2.0826,-2.0046,-1.9454,-1.9363,-1.9256,-1.9256,-1.9256,-1.9256,-1.9256,-1.9256,-1.9256,-1.9256,-1.9256,-1.9256,-1.9256,-1.9256,-1.9256,-1.9256,-1.9256,-1.9256,-1.9256,-1.9256,-1.9256,-1.9256,-1.9256,-1.9256,-1.9256,-1.9256,-1.9256,-1.9256,-1.9256,-1.9256,-1.9256,-1.9256,-1.9256,-1.9256,-1.9256,-1.9256,-1.9256,-1.9256,-1.9256,-1.9256,-1.9256,-1.9256,-1.9256,-1.9256,-1.9256,-1.9256,-1.9256,-1.9256,-1.9256,-1.9256,-1.9256,-1.9256,-1.9256,-1.9256,-1.9256,-1.9256,-1.9256,-1.9256,-1.9256,-1.9256,-1.9256,-1.9256,-1.9256,-1.9256,-1.9256,-1.9256,-1.9256,-1.9256,-1.9256,-1.9256,-1.9256,-1.9256,-1.9256,-1.9256,-1.9256,-1.9256,-1.9256,-1.9256,-1.9256,-1.9191,-1.9029,-1.8996,-1.8915,-1.8761,-1.8736,-1.8736,-1.8761,-1.8761,-1.8858,-1.9053,-1.9004,-1.9167,-1.9516,-1.9703,-1.98,-1.9825,-1.9776,-1.9768,-1.976,-1.9402,-1.9362,-1.9532,-1.9719,-1.9906,-2.0085,-2.0255,-2.032,-2.032,-2.474,-2.4351,-2.3658,-2.2387,-2.1406,-2.0629,-2.0038,-1.9553,-1.9256,-1.9256,-1.9256,-1.9256,-1.9256,-1.9256,-1.9256,-1.9256,-1.9256,-1.9256,-1.9256,-1.9256,-1.9256,-1.9256,-1.9256,-1.9256,-1.9256,-1.9256,-1.9256,-1.9256,-1.9256,-1.9256,-1.9256,-1.9256,-1.9256,-1.9256,-1.9256,-1.9256,-1.9256,-1.9256,-1.9256,-1.9256,-1.9256,-1.9256,-1.9256,-1.9256,-1.9256,-1.9256,-1.9256,-1.9256,-1.9256,-1.9256,-1.9256,-1.9256,-1.9256,-1.9256,-1.9256,-1.9256,-1.9256,-1.9256,-1.9256,-1.9256,-1.9256,-1.9256,-1.9256,-1.9256,-1.9256,-1.9256,-1.9256,-1.9256,-1.9256,-1.9256,-1.9256,-1.9256,-1.9256,-1.9256,-1.9256,-1.9256,-1.9256,-1.9256,-1.9256,-1.9256,-1.9256,-1.9256,-1.9256,-1.9256,-1.9256,-1.9256,-1.9256,-1.9224,-1.9142,-1.8948,-1.885,-1.8866,-1.868,-1.8663,-1.8866,-1.8866,-1.8956,-1.9134,-1.9232,-1.9362,-1.9516,-1.9597,-1.9752,-1.993,-1.9727,-1.9752,-1.9914,-1.9549,-1.9565,-1.9833,-1.9914,-2.0052,-2.0214,-2.0296,-2.032,-2.032]}]]